<?xml version="1.0" encoding="UTF-8" standalone="no" ?>
<gpx xmlns="http://www.topografix.com/GPX/1/1" xmlns:xsi="http://www.w3.org/2001/XMLSchema-instance" xsi:schemaLocation="http://www.topografix.com/GPX/1/1 http://www.topografix.com/GPX/1/1/gpx.xsd" version="1.1" creator="VisuGPX - https://www.visugpx.com">
  <metadata>
    <name>Moucherotte</name>
  </metadata>
  <trk>
    <name><![CDATA[250218-Moucherotte]]></name>
    <trkseg>
      <trkpt lat="45.16917" lon="5.62998">
        <ele>1167.4</ele>
        <time>2025-02-18T13:01:41</time>
      </trkpt>
      <trkpt lat="45.16918" lon="5.62999">
        <ele>1167.4</ele>
        <time>2025-02-18T13:01:43</time>
      </trkpt>
      <trkpt lat="45.16918" lon="5.63">
        <ele>1167.4</ele>
        <time>2025-02-18T13:01:43</time>
      </trkpt>
      <trkpt lat="45.1692" lon="5.63004">
        <ele>1167.4</ele>
        <time>2025-02-18T13:01:46</time>
      </trkpt>
      <trkpt lat="45.16921" lon="5.63005">
        <ele>1167.4</ele>
        <time>2025-02-18T13:01:47</time>
      </trkpt>
      <trkpt lat="45.16918" lon="5.6301">
        <ele>1168.9</ele>
        <time>2025-02-18T13:01:48</time>
      </trkpt>
      <trkpt lat="45.16915" lon="5.63013">
        <ele>1168.9</ele>
        <time>2025-02-18T13:01:50</time>
      </trkpt>
      <trkpt lat="45.16914" lon="5.63013">
        <ele>1168.9</ele>
        <time>2025-02-18T13:01:53</time>
      </trkpt>
      <trkpt lat="45.16914" lon="5.63014">
        <ele>1168.9</ele>
        <time>2025-02-18T13:01:54</time>
      </trkpt>
      <trkpt lat="45.16913" lon="5.63016">
        <ele>1168.9</ele>
        <time>2025-02-18T13:01:54</time>
      </trkpt>
      <trkpt lat="45.16913" lon="5.63021">
        <ele>1167.6666</ele>
        <time>2025-02-18T13:01:56</time>
      </trkpt>
      <trkpt lat="45.16913" lon="5.63024">
        <ele>1167.6666</ele>
        <time>2025-02-18T13:01:57</time>
      </trkpt>
      <trkpt lat="45.16917" lon="5.63042">
        <ele>1167.3</ele>
        <time>2025-02-18T13:02:05</time>
      </trkpt>
      <trkpt lat="45.16918" lon="5.63043">
        <ele>1167.3</ele>
        <time>2025-02-18T13:02:06</time>
      </trkpt>
      <trkpt lat="45.1692" lon="5.63045">
        <ele>1167.3</ele>
        <time>2025-02-18T13:02:08</time>
      </trkpt>
      <trkpt lat="45.16924" lon="5.63047">
        <ele>1167.2</ele>
        <time>2025-02-18T13:02:10</time>
      </trkpt>
      <trkpt lat="45.16925" lon="5.63049">
        <ele>1167.2</ele>
        <time>2025-02-18T13:02:12</time>
      </trkpt>
      <trkpt lat="45.16925" lon="5.63051">
        <ele>1167.2</ele>
        <time>2025-02-18T13:02:13</time>
      </trkpt>
      <trkpt lat="45.16926" lon="5.63058">
        <ele>1167.2</ele>
        <time>2025-02-18T13:02:16</time>
      </trkpt>
      <trkpt lat="45.16927" lon="5.63061">
        <ele>1167.8</ele>
        <time>2025-02-18T13:02:17</time>
      </trkpt>
      <trkpt lat="45.16927" lon="5.63067">
        <ele>1167.8</ele>
        <time>2025-02-18T13:02:20</time>
      </trkpt>
      <trkpt lat="45.16927" lon="5.63071">
        <ele>1167.8</ele>
        <time>2025-02-18T13:02:22</time>
      </trkpt>
      <trkpt lat="45.16927" lon="5.63073">
        <ele>1167.8</ele>
        <time>2025-02-18T13:02:23</time>
      </trkpt>
      <trkpt lat="45.16926" lon="5.63075">
        <ele>1167.8</ele>
        <time>2025-02-18T13:02:24</time>
      </trkpt>
      <trkpt lat="45.16925" lon="5.63077">
        <ele>1167.8</ele>
        <time>2025-02-18T13:02:25</time>
      </trkpt>
      <trkpt lat="45.1691" lon="5.63115">
        <ele>1170.1</ele>
        <time>2025-02-18T13:02:50</time>
      </trkpt>
      <trkpt lat="45.16903" lon="5.63139">
        <ele>1170.2</ele>
        <time>2025-02-18T13:03:05</time>
      </trkpt>
      <trkpt lat="45.16901" lon="5.63145">
        <ele>1172.7667</ele>
        <time>2025-02-18T13:03:09</time>
      </trkpt>
      <trkpt lat="45.16899" lon="5.63147">
        <ele>1172.7667</ele>
        <time>2025-02-18T13:03:11</time>
      </trkpt>
      <trkpt lat="45.16897" lon="5.63156">
        <ele>1173.6</ele>
        <time>2025-02-18T13:03:17</time>
      </trkpt>
      <trkpt lat="45.16891" lon="5.63168">
        <ele>1175.1</ele>
        <time>2025-02-18T13:03:26</time>
      </trkpt>
      <trkpt lat="45.1689" lon="5.63171">
        <ele>1175.1</ele>
        <time>2025-02-18T13:03:28</time>
      </trkpt>
      <trkpt lat="45.16886" lon="5.63185">
        <ele>1175.8</ele>
        <time>2025-02-18T13:03:38</time>
      </trkpt>
      <trkpt lat="45.16883" lon="5.63193">
        <ele>1175.8667</ele>
        <time>2025-02-18T13:03:45</time>
      </trkpt>
      <trkpt lat="45.16875" lon="5.63223">
        <ele>1181.6</ele>
        <time>2025-02-18T13:04:06</time>
      </trkpt>
      <trkpt lat="45.16873" lon="5.63229">
        <ele>1184.8667</ele>
        <time>2025-02-18T13:04:11</time>
      </trkpt>
      <trkpt lat="45.16873" lon="5.63231">
        <ele>1184.8667</ele>
        <time>2025-02-18T13:04:13</time>
      </trkpt>
      <trkpt lat="45.16872" lon="5.63236">
        <ele>1184.8667</ele>
        <time>2025-02-18T13:04:17</time>
      </trkpt>
      <trkpt lat="45.16869" lon="5.63249">
        <ele>1189.8</ele>
        <time>2025-02-18T13:04:28</time>
      </trkpt>
      <trkpt lat="45.16868" lon="5.63251">
        <ele>1189.8</ele>
        <time>2025-02-18T13:04:30</time>
      </trkpt>
      <trkpt lat="45.16867" lon="5.63254">
        <ele>1189.8</ele>
        <time>2025-02-18T13:04:33</time>
      </trkpt>
      <trkpt lat="45.16864" lon="5.6326">
        <ele>1190.8</ele>
        <time>2025-02-18T13:04:40</time>
      </trkpt>
      <trkpt lat="45.16861" lon="5.63268">
        <ele>1191.4</ele>
        <time>2025-02-18T13:04:48</time>
      </trkpt>
      <trkpt lat="45.1686" lon="5.63271">
        <ele>1191.4</ele>
        <time>2025-02-18T13:04:51</time>
      </trkpt>
      <trkpt lat="45.1686" lon="5.63271">
        <ele>1191.4</ele>
        <time>2025-02-18T13:04:52</time>
      </trkpt>
      <trkpt lat="45.16859" lon="5.63275">
        <ele>1192.2</ele>
        <time>2025-02-18T13:04:55</time>
      </trkpt>
      <trkpt lat="45.16859" lon="5.63276">
        <ele>1192.2</ele>
        <time>2025-02-18T13:04:56</time>
      </trkpt>
      <trkpt lat="45.16858" lon="5.63278">
        <ele>1192.2</ele>
        <time>2025-02-18T13:04:59</time>
      </trkpt>
      <trkpt lat="45.16857" lon="5.6328">
        <ele>1192.2</ele>
        <time>2025-02-18T13:05:01</time>
      </trkpt>
      <trkpt lat="45.16856" lon="5.63284">
        <ele>1194.7</ele>
        <time>2025-02-18T13:05:05</time>
      </trkpt>
      <trkpt lat="45.16855" lon="5.63288">
        <ele>1194.7</ele>
        <time>2025-02-18T13:05:08</time>
      </trkpt>
      <trkpt lat="45.16854" lon="5.63291">
        <ele>1197.7</ele>
        <time>2025-02-18T13:05:11</time>
      </trkpt>
      <trkpt lat="45.16852" lon="5.63297">
        <ele>1197.7</ele>
        <time>2025-02-18T13:05:18</time>
      </trkpt>
      <trkpt lat="45.16852" lon="5.63297">
        <ele>1197.7</ele>
        <time>2025-02-18T13:05:18</time>
      </trkpt>
      <trkpt lat="45.16851" lon="5.63297">
        <ele>1197.7</ele>
        <time>2025-02-18T13:05:19</time>
      </trkpt>
      <trkpt lat="45.16851" lon="5.63299">
        <ele>1199.6</ele>
        <time>2025-02-18T13:05:20</time>
      </trkpt>
      <trkpt lat="45.16851" lon="5.633">
        <ele>1199.6</ele>
        <time>2025-02-18T13:05:21</time>
      </trkpt>
      <trkpt lat="45.16849" lon="5.63313">
        <ele>1200.5</ele>
        <time>2025-02-18T13:05:32</time>
      </trkpt>
      <trkpt lat="45.16849" lon="5.63316">
        <ele>1200.5</ele>
        <time>2025-02-18T13:05:34</time>
      </trkpt>
      <trkpt lat="45.16848" lon="5.63318">
        <ele>1200.5</ele>
        <time>2025-02-18T13:05:36</time>
      </trkpt>
      <trkpt lat="45.16847" lon="5.63323">
        <ele>1203.1333</ele>
        <time>2025-02-18T13:05:40</time>
      </trkpt>
      <trkpt lat="45.16847" lon="5.63326">
        <ele>1203.1333</ele>
        <time>2025-02-18T13:05:42</time>
      </trkpt>
      <trkpt lat="45.16846" lon="5.63327">
        <ele>1203.1333</ele>
        <time>2025-02-18T13:05:44</time>
      </trkpt>
      <trkpt lat="45.16845" lon="5.63332">
        <ele>1205.9</ele>
        <time>2025-02-18T13:05:48</time>
      </trkpt>
      <trkpt lat="45.16843" lon="5.63338">
        <ele>1205.9</ele>
        <time>2025-02-18T13:05:54</time>
      </trkpt>
      <trkpt lat="45.16842" lon="5.63339">
        <ele>1207.1</ele>
        <time>2025-02-18T13:05:55</time>
      </trkpt>
      <trkpt lat="45.1684" lon="5.63339">
        <ele>1207.1</ele>
        <time>2025-02-18T13:05:57</time>
      </trkpt>
      <trkpt lat="45.16837" lon="5.63341">
        <ele>1207.1</ele>
        <time>2025-02-18T13:06:01</time>
      </trkpt>
      <trkpt lat="45.16835" lon="5.63343">
        <ele>1209.5333</ele>
        <time>2025-02-18T13:06:03</time>
      </trkpt>
      <trkpt lat="45.16835" lon="5.63343">
        <ele>1209.5333</ele>
        <time>2025-02-18T13:06:03</time>
      </trkpt>
      <trkpt lat="45.16835" lon="5.63344">
        <ele>1209.5333</ele>
        <time>2025-02-18T13:06:04</time>
      </trkpt>
      <trkpt lat="45.16835" lon="5.63345">
        <ele>1209.5333</ele>
        <time>2025-02-18T13:06:05</time>
      </trkpt>
      <trkpt lat="45.16835" lon="5.63347">
        <ele>1209.5333</ele>
        <time>2025-02-18T13:06:07</time>
      </trkpt>
      <trkpt lat="45.16835" lon="5.63347">
        <ele>1209.5333</ele>
        <time>2025-02-18T13:06:08</time>
      </trkpt>
      <trkpt lat="45.16835" lon="5.63348">
        <ele>1209.5333</ele>
        <time>2025-02-18T13:06:08</time>
      </trkpt>
      <trkpt lat="45.16835" lon="5.63348">
        <ele>1209.5333</ele>
        <time>2025-02-18T13:06:09</time>
      </trkpt>
      <trkpt lat="45.16835" lon="5.63349">
        <ele>1210.4</ele>
        <time>2025-02-18T13:06:09</time>
      </trkpt>
      <trkpt lat="45.16835" lon="5.63349">
        <ele>1210.4</ele>
        <time>2025-02-18T13:06:10</time>
      </trkpt>
      <trkpt lat="45.16831" lon="5.63351">
        <ele>1210.4</ele>
        <time>2025-02-18T13:06:15</time>
      </trkpt>
      <trkpt lat="45.16831" lon="5.63352">
        <ele>1210.4</ele>
        <time>2025-02-18T13:06:15</time>
      </trkpt>
      <trkpt lat="45.16831" lon="5.63353">
        <ele>1210.4</ele>
        <time>2025-02-18T13:06:16</time>
      </trkpt>
      <trkpt lat="45.16832" lon="5.63353">
        <ele>1210.4</ele>
        <time>2025-02-18T13:06:17</time>
      </trkpt>
      <trkpt lat="45.16832" lon="5.63353">
        <ele>1212.2333</ele>
        <time>2025-02-18T13:06:18</time>
      </trkpt>
      <trkpt lat="45.16832" lon="5.63352">
        <ele>1212.2333</ele>
        <time>2025-02-18T13:06:18</time>
      </trkpt>
      <trkpt lat="45.16831" lon="5.63352">
        <ele>1212.2333</ele>
        <time>2025-02-18T13:06:19</time>
      </trkpt>
      <trkpt lat="45.16831" lon="5.63353">
        <ele>1212.2333</ele>
        <time>2025-02-18T13:06:20</time>
      </trkpt>
      <trkpt lat="45.1683" lon="5.63354">
        <ele>1212.2333</ele>
        <time>2025-02-18T13:06:21</time>
      </trkpt>
      <trkpt lat="45.16828" lon="5.6336">
        <ele>1212.3</ele>
        <time>2025-02-18T13:06:25</time>
      </trkpt>
      <trkpt lat="45.16827" lon="5.63361">
        <ele>1212.3</ele>
        <time>2025-02-18T13:06:26</time>
      </trkpt>
      <trkpt lat="45.16825" lon="5.63362">
        <ele>1212.3</ele>
        <time>2025-02-18T13:06:28</time>
      </trkpt>
      <trkpt lat="45.16825" lon="5.63362">
        <ele>1212.3</ele>
        <time>2025-02-18T13:06:29</time>
      </trkpt>
      <trkpt lat="45.16825" lon="5.63362">
        <ele>1212.3</ele>
        <time>2025-02-18T13:06:31</time>
      </trkpt>
      <trkpt lat="45.16824" lon="5.63363">
        <ele>1213.0333</ele>
        <time>2025-02-18T13:06:34</time>
      </trkpt>
      <trkpt lat="45.16822" lon="5.63363">
        <ele>1213.0333</ele>
        <time>2025-02-18T13:06:36</time>
      </trkpt>
      <trkpt lat="45.1682" lon="5.63363">
        <ele>1213.0333</ele>
        <time>2025-02-18T13:06:39</time>
      </trkpt>
      <trkpt lat="45.16819" lon="5.63363">
        <ele>1213.0333</ele>
        <time>2025-02-18T13:06:40</time>
      </trkpt>
      <trkpt lat="45.16818" lon="5.63363">
        <ele>1214.3</ele>
        <time>2025-02-18T13:06:41</time>
      </trkpt>
      <trkpt lat="45.16816" lon="5.63363">
        <ele>1214.3</ele>
        <time>2025-02-18T13:06:44</time>
      </trkpt>
      <trkpt lat="45.16813" lon="5.63364">
        <ele>1214.3</ele>
        <time>2025-02-18T13:06:47</time>
      </trkpt>
      <trkpt lat="45.16812" lon="5.63364">
        <ele>1214.3</ele>
        <time>2025-02-18T13:06:48</time>
      </trkpt>
      <trkpt lat="45.16802" lon="5.63361">
        <ele>1216.1333</ele>
        <time>2025-02-18T13:06:54</time>
      </trkpt>
      <trkpt lat="45.16799" lon="5.6336">
        <ele>1216.1333</ele>
        <time>2025-02-18T13:06:55</time>
      </trkpt>
      <trkpt lat="45.16796" lon="5.63359">
        <ele>1216.1333</ele>
        <time>2025-02-18T13:06:58</time>
      </trkpt>
      <trkpt lat="45.16794" lon="5.63357">
        <ele>1216.1333</ele>
        <time>2025-02-18T13:06:59</time>
      </trkpt>
      <trkpt lat="45.1679" lon="5.63357">
        <ele>1216.8334</ele>
        <time>2025-02-18T13:07:01</time>
      </trkpt>
      <trkpt lat="45.16788" lon="5.63358">
        <ele>1216.8334</ele>
        <time>2025-02-18T13:07:02</time>
      </trkpt>
      <trkpt lat="45.16776" lon="5.63357">
        <ele>1215.5</ele>
        <time>2025-02-18T13:07:10</time>
      </trkpt>
      <trkpt lat="45.16768" lon="5.63355">
        <ele>1215.5</ele>
        <time>2025-02-18T13:07:17</time>
      </trkpt>
      <trkpt lat="45.16765" lon="5.63352">
        <ele>1213.8</ele>
        <time>2025-02-18T13:07:20</time>
      </trkpt>
      <trkpt lat="45.16764" lon="5.63352">
        <ele>1213.8</ele>
        <time>2025-02-18T13:07:21</time>
      </trkpt>
      <trkpt lat="45.16757" lon="5.63348">
        <ele>1213.8</ele>
        <time>2025-02-18T13:07:27</time>
      </trkpt>
      <trkpt lat="45.16756" lon="5.63346">
        <ele>1213.7</ele>
        <time>2025-02-18T13:07:28</time>
      </trkpt>
      <trkpt lat="45.16755" lon="5.63345">
        <ele>1213.7</ele>
        <time>2025-02-18T13:07:29</time>
      </trkpt>
      <trkpt lat="45.16752" lon="5.63344">
        <ele>1213.7</ele>
        <time>2025-02-18T13:07:31</time>
      </trkpt>
      <trkpt lat="45.16751" lon="5.63344">
        <ele>1213.7</ele>
        <time>2025-02-18T13:07:32</time>
      </trkpt>
      <trkpt lat="45.1675" lon="5.63344">
        <ele>1213.7</ele>
        <time>2025-02-18T13:07:33</time>
      </trkpt>
      <trkpt lat="45.16745" lon="5.63343">
        <ele>1213.8</ele>
        <time>2025-02-18T13:07:38</time>
      </trkpt>
      <trkpt lat="45.16743" lon="5.63343">
        <ele>1213.8</ele>
        <time>2025-02-18T13:07:41</time>
      </trkpt>
      <trkpt lat="45.16735" lon="5.6334">
        <ele>1214.3</ele>
        <time>2025-02-18T13:07:46</time>
      </trkpt>
      <trkpt lat="45.16724" lon="5.63335">
        <ele>1214.3</ele>
        <time>2025-02-18T13:07:53</time>
      </trkpt>
      <trkpt lat="45.16717" lon="5.63331">
        <ele>1216.2</ele>
        <time>2025-02-18T13:07:58</time>
      </trkpt>
      <trkpt lat="45.16699" lon="5.63327">
        <ele>1220.2667</ele>
        <time>2025-02-18T13:08:11</time>
      </trkpt>
      <trkpt lat="45.16694" lon="5.63326">
        <ele>1220.2667</ele>
        <time>2025-02-18T13:08:14</time>
      </trkpt>
      <trkpt lat="45.16677" lon="5.63315">
        <ele>1221.6666</ele>
        <time>2025-02-18T13:08:28</time>
      </trkpt>
      <trkpt lat="45.16663" lon="5.63308">
        <ele>1223.7667</ele>
        <time>2025-02-18T13:08:40</time>
      </trkpt>
      <trkpt lat="45.16659" lon="5.63308">
        <ele>1223.7667</ele>
        <time>2025-02-18T13:08:42</time>
      </trkpt>
      <trkpt lat="45.16646" lon="5.63303">
        <ele>1223.4</ele>
        <time>2025-02-18T13:08:51</time>
      </trkpt>
      <trkpt lat="45.16639" lon="5.63298">
        <ele>1226.3</ele>
        <time>2025-02-18T13:08:56</time>
      </trkpt>
      <trkpt lat="45.16633" lon="5.63296">
        <ele>1226.6</ele>
        <time>2025-02-18T13:08:59</time>
      </trkpt>
      <trkpt lat="45.16629" lon="5.63295">
        <ele>1226.6</ele>
        <time>2025-02-18T13:09:03</time>
      </trkpt>
      <trkpt lat="45.16628" lon="5.63294">
        <ele>1227.2667</ele>
        <time>2025-02-18T13:09:04</time>
      </trkpt>
      <trkpt lat="45.16627" lon="5.63295">
        <ele>1227.2667</ele>
        <time>2025-02-18T13:09:05</time>
      </trkpt>
      <trkpt lat="45.16613" lon="5.63293">
        <ele>1227.8</ele>
        <time>2025-02-18T13:09:15</time>
      </trkpt>
      <trkpt lat="45.16606" lon="5.6329">
        <ele>1226.7</ele>
        <time>2025-02-18T13:09:19</time>
      </trkpt>
      <trkpt lat="45.16573" lon="5.63279">
        <ele>1229.9</ele>
        <time>2025-02-18T13:09:43</time>
      </trkpt>
      <trkpt lat="45.16559" lon="5.63276">
        <ele>1233.3</ele>
        <time>2025-02-18T13:09:54</time>
      </trkpt>
      <trkpt lat="45.16539" lon="5.63265">
        <ele>1238.8</ele>
        <time>2025-02-18T13:10:13</time>
      </trkpt>
      <trkpt lat="45.16537" lon="5.63264">
        <ele>1238.8</ele>
        <time>2025-02-18T13:10:16</time>
      </trkpt>
      <trkpt lat="45.16535" lon="5.63263">
        <ele>1240.0667</ele>
        <time>2025-02-18T13:10:18</time>
      </trkpt>
      <trkpt lat="45.16534" lon="5.63263">
        <ele>1240.0667</ele>
        <time>2025-02-18T13:10:20</time>
      </trkpt>
      <trkpt lat="45.16531" lon="5.63261">
        <ele>1240.0667</ele>
        <time>2025-02-18T13:10:23</time>
      </trkpt>
      <trkpt lat="45.16525" lon="5.63256">
        <ele>1240.1</ele>
        <time>2025-02-18T13:10:32</time>
      </trkpt>
      <trkpt lat="45.16523" lon="5.63254">
        <ele>1239.0667</ele>
        <time>2025-02-18T13:10:34</time>
      </trkpt>
      <trkpt lat="45.16523" lon="5.63253">
        <ele>1239.0667</ele>
        <time>2025-02-18T13:10:35</time>
      </trkpt>
      <trkpt lat="45.16519" lon="5.63249">
        <ele>1239.0667</ele>
        <time>2025-02-18T13:10:39</time>
      </trkpt>
      <trkpt lat="45.16517" lon="5.63248">
        <ele>1239.0667</ele>
        <time>2025-02-18T13:10:41</time>
      </trkpt>
      <trkpt lat="45.16508" lon="5.63246">
        <ele>1239.4</ele>
        <time>2025-02-18T13:10:50</time>
      </trkpt>
      <trkpt lat="45.16506" lon="5.63245">
        <ele>1240.8</ele>
        <time>2025-02-18T13:10:52</time>
      </trkpt>
      <trkpt lat="45.16505" lon="5.63245">
        <ele>1240.8</ele>
        <time>2025-02-18T13:10:53</time>
      </trkpt>
      <trkpt lat="45.16505" lon="5.63245">
        <ele>1240.8</ele>
        <time>2025-02-18T13:10:53</time>
      </trkpt>
      <trkpt lat="45.16504" lon="5.63245">
        <ele>1240.8</ele>
        <time>2025-02-18T13:10:54</time>
      </trkpt>
      <trkpt lat="45.16496" lon="5.63244">
        <ele>1241.6</ele>
        <time>2025-02-18T13:11:02</time>
      </trkpt>
      <trkpt lat="45.16491" lon="5.63243">
        <ele>1241.6</ele>
        <time>2025-02-18T13:11:06</time>
      </trkpt>
      <trkpt lat="45.16484" lon="5.63241">
        <ele>1243</ele>
        <time>2025-02-18T13:11:14</time>
      </trkpt>
      <trkpt lat="45.16483" lon="5.63241">
        <ele>1243</ele>
        <time>2025-02-18T13:11:17</time>
      </trkpt>
      <trkpt lat="45.16476" lon="5.63237">
        <ele>1243</ele>
        <time>2025-02-18T13:11:18</time>
      </trkpt>
      <trkpt lat="45.16472" lon="5.63235">
        <ele>1243.9</ele>
        <time>2025-02-18T13:11:19</time>
      </trkpt>
      <trkpt lat="45.16469" lon="5.63234">
        <ele>1243.9</ele>
        <time>2025-02-18T13:11:21</time>
      </trkpt>
      <trkpt lat="45.16468" lon="5.63233">
        <ele>1243.9</ele>
        <time>2025-02-18T13:11:22</time>
      </trkpt>
      <trkpt lat="45.16466" lon="5.6323">
        <ele>1243.9</ele>
        <time>2025-02-18T13:11:25</time>
      </trkpt>
      <trkpt lat="45.16457" lon="5.63217">
        <ele>1246.0333</ele>
        <time>2025-02-18T13:11:32</time>
      </trkpt>
      <trkpt lat="45.16454" lon="5.63211">
        <ele>1246.0333</ele>
        <time>2025-02-18T13:11:35</time>
      </trkpt>
      <trkpt lat="45.16449" lon="5.63205">
        <ele>1248.7667</ele>
        <time>2025-02-18T13:11:40</time>
      </trkpt>
      <trkpt lat="45.16447" lon="5.63204">
        <ele>1248.7667</ele>
        <time>2025-02-18T13:11:42</time>
      </trkpt>
      <trkpt lat="45.16446" lon="5.63204">
        <ele>1249.2</ele>
        <time>2025-02-18T13:11:43</time>
      </trkpt>
      <trkpt lat="45.16445" lon="5.63203">
        <ele>1249.2</ele>
        <time>2025-02-18T13:11:44</time>
      </trkpt>
      <trkpt lat="45.16445" lon="5.63202">
        <ele>1249.2</ele>
        <time>2025-02-18T13:11:45</time>
      </trkpt>
      <trkpt lat="45.16442" lon="5.63201">
        <ele>1249.2</ele>
        <time>2025-02-18T13:11:48</time>
      </trkpt>
      <trkpt lat="45.1644" lon="5.63201">
        <ele>1249.2</ele>
        <time>2025-02-18T13:11:49</time>
      </trkpt>
      <trkpt lat="45.16435" lon="5.63194">
        <ele>1249.5667</ele>
        <time>2025-02-18T13:11:59</time>
      </trkpt>
      <trkpt lat="45.16435" lon="5.63193">
        <ele>1249.5667</ele>
        <time>2025-02-18T13:12:00</time>
      </trkpt>
      <trkpt lat="45.16432" lon="5.6319">
        <ele>1248.6333</ele>
        <time>2025-02-18T13:12:02</time>
      </trkpt>
      <trkpt lat="45.16428" lon="5.63188">
        <ele>1248.6333</ele>
        <time>2025-02-18T13:12:06</time>
      </trkpt>
      <trkpt lat="45.16427" lon="5.63188">
        <ele>1248.6333</ele>
        <time>2025-02-18T13:12:07</time>
      </trkpt>
      <trkpt lat="45.16426" lon="5.63188">
        <ele>1248.6333</ele>
        <time>2025-02-18T13:12:08</time>
      </trkpt>
      <trkpt lat="45.16424" lon="5.63188">
        <ele>1248.1</ele>
        <time>2025-02-18T13:12:10</time>
      </trkpt>
      <trkpt lat="45.16418" lon="5.63188">
        <ele>1248.1</ele>
        <time>2025-02-18T13:12:12</time>
      </trkpt>
      <trkpt lat="45.16415" lon="5.63187">
        <ele>1248.1</ele>
        <time>2025-02-18T13:12:16</time>
      </trkpt>
      <trkpt lat="45.16411" lon="5.63184">
        <ele>1250.3</ele>
        <time>2025-02-18T13:12:22</time>
      </trkpt>
      <trkpt lat="45.16409" lon="5.63181">
        <ele>1250.3</ele>
        <time>2025-02-18T13:12:25</time>
      </trkpt>
      <trkpt lat="45.16407" lon="5.6318">
        <ele>1250.3</ele>
        <time>2025-02-18T13:12:27</time>
      </trkpt>
      <trkpt lat="45.16404" lon="5.63177">
        <ele>1251.9333</ele>
        <time>2025-02-18T13:12:30</time>
      </trkpt>
      <trkpt lat="45.16384" lon="5.63163">
        <ele>1251.1</ele>
        <time>2025-02-18T13:12:50</time>
      </trkpt>
      <trkpt lat="45.16382" lon="5.63157">
        <ele>1251.1</ele>
        <time>2025-02-18T13:12:54</time>
      </trkpt>
      <trkpt lat="45.16377" lon="5.6315">
        <ele>1247.8</ele>
        <time>2025-02-18T13:13:00</time>
      </trkpt>
      <trkpt lat="45.16368" lon="5.63144">
        <ele>1247.7</ele>
        <time>2025-02-18T13:13:06</time>
      </trkpt>
      <trkpt lat="45.16359" lon="5.63135">
        <ele>1249.2</ele>
        <time>2025-02-18T13:13:12</time>
      </trkpt>
      <trkpt lat="45.16348" lon="5.63122">
        <ele>1259.2</ele>
        <time>2025-02-18T13:13:24</time>
      </trkpt>
      <trkpt lat="45.16345" lon="5.63122">
        <ele>1259.2</ele>
        <time>2025-02-18T13:13:26</time>
      </trkpt>
      <trkpt lat="45.16342" lon="5.6312">
        <ele>1259.2</ele>
        <time>2025-02-18T13:13:29</time>
      </trkpt>
      <trkpt lat="45.16341" lon="5.6312">
        <ele>1262.7</ele>
        <time>2025-02-18T13:13:30</time>
      </trkpt>
      <trkpt lat="45.16336" lon="5.63119">
        <ele>1262.7</ele>
        <time>2025-02-18T13:13:36</time>
      </trkpt>
      <trkpt lat="45.16333" lon="5.63117">
        <ele>1264.5</ele>
        <time>2025-02-18T13:13:41</time>
      </trkpt>
      <trkpt lat="45.16333" lon="5.63116">
        <ele>1264.5</ele>
        <time>2025-02-18T13:13:42</time>
      </trkpt>
      <trkpt lat="45.16331" lon="5.63114">
        <ele>1264.5</ele>
        <time>2025-02-18T13:13:44</time>
      </trkpt>
      <trkpt lat="45.16315" lon="5.63105">
        <ele>1263.8</ele>
        <time>2025-02-18T13:14:00</time>
      </trkpt>
      <trkpt lat="45.16314" lon="5.63105">
        <ele>1263.8</ele>
        <time>2025-02-18T13:14:01</time>
      </trkpt>
      <trkpt lat="45.16313" lon="5.63105">
        <ele>1263.8</ele>
        <time>2025-02-18T13:14:01</time>
      </trkpt>
      <trkpt lat="45.16311" lon="5.63103">
        <ele>1263.8</ele>
        <time>2025-02-18T13:14:02</time>
      </trkpt>
      <trkpt lat="45.16308" lon="5.63102">
        <ele>1263.8</ele>
        <time>2025-02-18T13:14:05</time>
      </trkpt>
      <trkpt lat="45.16301" lon="5.63099">
        <ele>1266.1666</ele>
        <time>2025-02-18T13:14:09</time>
      </trkpt>
      <trkpt lat="45.16295" lon="5.63097">
        <ele>1268.5333</ele>
        <time>2025-02-18T13:14:14</time>
      </trkpt>
      <trkpt lat="45.16285" lon="5.63099">
        <ele>1270.9</ele>
        <time>2025-02-18T13:14:22</time>
      </trkpt>
      <trkpt lat="45.16285" lon="5.631">
        <ele>1270.9</ele>
        <time>2025-02-18T13:14:23</time>
      </trkpt>
      <trkpt lat="45.16285" lon="5.63099">
        <ele>1270.9</ele>
        <time>2025-02-18T13:14:23</time>
      </trkpt>
      <trkpt lat="45.16284" lon="5.63099">
        <ele>1270.9</ele>
        <time>2025-02-18T13:14:24</time>
      </trkpt>
      <trkpt lat="45.16284" lon="5.63098">
        <ele>1270.9</ele>
        <time>2025-02-18T13:14:26</time>
      </trkpt>
      <trkpt lat="45.16283" lon="5.63098">
        <ele>1276.2333</ele>
        <time>2025-02-18T13:14:30</time>
      </trkpt>
      <trkpt lat="45.16283" lon="5.63098">
        <ele>1276.2333</ele>
        <time>2025-02-18T13:14:31</time>
      </trkpt>
      <trkpt lat="45.16284" lon="5.63097">
        <ele>1276.2333</ele>
        <time>2025-02-18T13:14:32</time>
      </trkpt>
      <trkpt lat="45.16284" lon="5.63097">
        <ele>1276.2333</ele>
        <time>2025-02-18T13:14:33</time>
      </trkpt>
      <trkpt lat="45.16284" lon="5.63097">
        <ele>1276.2333</ele>
        <time>2025-02-18T13:14:35</time>
      </trkpt>
      <trkpt lat="45.16284" lon="5.63097">
        <ele>1279.5</ele>
        <time>2025-02-18T13:14:36</time>
      </trkpt>
      <trkpt lat="45.16284" lon="5.63097">
        <ele>1279.5</ele>
        <time>2025-02-18T13:14:37</time>
      </trkpt>
      <trkpt lat="45.16284" lon="5.63097">
        <ele>1279.5</ele>
        <time>2025-02-18T13:14:43</time>
      </trkpt>
      <trkpt lat="45.16284" lon="5.63097">
        <ele>1279.5</ele>
        <time>2025-02-18T13:14:45</time>
      </trkpt>
      <trkpt lat="45.16284" lon="5.63097">
        <ele>1279.5</ele>
        <time>2025-02-18T13:15:07</time>
      </trkpt>
      <trkpt lat="45.16278" lon="5.63096">
        <ele>1279.5</ele>
        <time>2025-02-18T13:16:00</time>
      </trkpt>
      <trkpt lat="45.16276" lon="5.63096">
        <ele>1279.5</ele>
        <time>2025-02-18T13:16:03</time>
      </trkpt>
      <trkpt lat="45.16275" lon="5.63096">
        <ele>1279.5</ele>
        <time>2025-02-18T13:16:04</time>
      </trkpt>
      <trkpt lat="45.16274" lon="5.63097">
        <ele>1279.5</ele>
        <time>2025-02-18T13:16:06</time>
      </trkpt>
      <trkpt lat="45.16274" lon="5.63097">
        <ele>1279.5</ele>
        <time>2025-02-18T13:16:07</time>
      </trkpt>
      <trkpt lat="45.16273" lon="5.63097">
        <ele>1279.5</ele>
        <time>2025-02-18T13:16:07</time>
      </trkpt>
      <trkpt lat="45.16271" lon="5.63098">
        <ele>1279.5</ele>
        <time>2025-02-18T13:16:09</time>
      </trkpt>
      <trkpt lat="45.16269" lon="5.63098">
        <ele>1279.5</ele>
        <time>2025-02-18T13:16:11</time>
      </trkpt>
      <trkpt lat="45.16269" lon="5.63098">
        <ele>1279.5</ele>
        <time>2025-02-18T13:16:12</time>
      </trkpt>
      <trkpt lat="45.16267" lon="5.63097">
        <ele>1278.2333</ele>
        <time>2025-02-18T13:16:14</time>
      </trkpt>
      <trkpt lat="45.16266" lon="5.63096">
        <ele>1278.2333</ele>
        <time>2025-02-18T13:16:16</time>
      </trkpt>
      <trkpt lat="45.16266" lon="5.63096">
        <ele>1278.2333</ele>
        <time>2025-02-18T13:16:17</time>
      </trkpt>
      <trkpt lat="45.16265" lon="5.63096">
        <ele>1278.2333</ele>
        <time>2025-02-18T13:16:17</time>
      </trkpt>
      <trkpt lat="45.16265" lon="5.63096">
        <ele>1278.2333</ele>
        <time>2025-02-18T13:16:18</time>
      </trkpt>
      <trkpt lat="45.16265" lon="5.63096">
        <ele>1281.5333</ele>
        <time>2025-02-18T13:16:19</time>
      </trkpt>
      <trkpt lat="45.16264" lon="5.63096">
        <ele>1281.5333</ele>
        <time>2025-02-18T13:16:21</time>
      </trkpt>
      <trkpt lat="45.16259" lon="5.63097">
        <ele>1281.5333</ele>
        <time>2025-02-18T13:16:25</time>
      </trkpt>
      <trkpt lat="45.16257" lon="5.63095">
        <ele>1283.1666</ele>
        <time>2025-02-18T13:16:27</time>
      </trkpt>
      <trkpt lat="45.16252" lon="5.63091">
        <ele>1283.1666</ele>
        <time>2025-02-18T13:16:30</time>
      </trkpt>
      <trkpt lat="45.1625" lon="5.63091">
        <ele>1283.1666</ele>
        <time>2025-02-18T13:16:32</time>
      </trkpt>
      <trkpt lat="45.16248" lon="5.63091">
        <ele>1281.5</ele>
        <time>2025-02-18T13:16:33</time>
      </trkpt>
      <trkpt lat="45.16244" lon="5.63094">
        <ele>1281.5</ele>
        <time>2025-02-18T13:16:37</time>
      </trkpt>
      <trkpt lat="45.16231" lon="5.63096">
        <ele>1279</ele>
        <time>2025-02-18T13:16:54</time>
      </trkpt>
      <trkpt lat="45.1623" lon="5.63096">
        <ele>1279</ele>
        <time>2025-02-18T13:16:55</time>
      </trkpt>
      <trkpt lat="45.16223" lon="5.63097">
        <ele>1278.9</ele>
        <time>2025-02-18T13:17:03</time>
      </trkpt>
      <trkpt lat="45.16221" lon="5.63098">
        <ele>1278.9</ele>
        <time>2025-02-18T13:17:05</time>
      </trkpt>
      <trkpt lat="45.16216" lon="5.63101">
        <ele>1279.2</ele>
        <time>2025-02-18T13:17:11</time>
      </trkpt>
      <trkpt lat="45.16214" lon="5.63102">
        <ele>1279.3</ele>
        <time>2025-02-18T13:17:13</time>
      </trkpt>
      <trkpt lat="45.16214" lon="5.63103">
        <ele>1279.3</ele>
        <time>2025-02-18T13:17:14</time>
      </trkpt>
      <trkpt lat="45.16211" lon="5.63105">
        <ele>1279.3</ele>
        <time>2025-02-18T13:17:18</time>
      </trkpt>
      <trkpt lat="45.16206" lon="5.6311">
        <ele>1280.7</ele>
        <time>2025-02-18T13:17:23</time>
      </trkpt>
      <trkpt lat="45.16204" lon="5.6311">
        <ele>1280.7</ele>
        <time>2025-02-18T13:17:25</time>
      </trkpt>
      <trkpt lat="45.16202" lon="5.63112">
        <ele>1282.7</ele>
        <time>2025-02-18T13:17:29</time>
      </trkpt>
      <trkpt lat="45.162" lon="5.63114">
        <ele>1282.7</ele>
        <time>2025-02-18T13:17:32</time>
      </trkpt>
      <trkpt lat="45.16195" lon="5.63116">
        <ele>1284.1</ele>
        <time>2025-02-18T13:17:38</time>
      </trkpt>
      <trkpt lat="45.16191" lon="5.63119">
        <ele>1285.9</ele>
        <time>2025-02-18T13:17:42</time>
      </trkpt>
      <trkpt lat="45.16189" lon="5.63121">
        <ele>1285.9</ele>
        <time>2025-02-18T13:17:46</time>
      </trkpt>
      <trkpt lat="45.16188" lon="5.63121">
        <ele>1287.5</ele>
        <time>2025-02-18T13:17:49</time>
      </trkpt>
      <trkpt lat="45.16186" lon="5.63122">
        <ele>1287.5</ele>
        <time>2025-02-18T13:17:50</time>
      </trkpt>
      <trkpt lat="45.16185" lon="5.63123">
        <ele>1287.5</ele>
        <time>2025-02-18T13:17:52</time>
      </trkpt>
      <trkpt lat="45.16182" lon="5.63125">
        <ele>1290</ele>
        <time>2025-02-18T13:17:56</time>
      </trkpt>
      <trkpt lat="45.16181" lon="5.63125">
        <ele>1290</ele>
        <time>2025-02-18T13:17:58</time>
      </trkpt>
      <trkpt lat="45.16179" lon="5.63126">
        <ele>1290</ele>
        <time>2025-02-18T13:18:00</time>
      </trkpt>
      <trkpt lat="45.16178" lon="5.63126">
        <ele>1291.6</ele>
        <time>2025-02-18T13:18:00</time>
      </trkpt>
      <trkpt lat="45.16177" lon="5.63126">
        <ele>1291.6</ele>
        <time>2025-02-18T13:18:01</time>
      </trkpt>
      <trkpt lat="45.16176" lon="5.63126">
        <ele>1291.6</ele>
        <time>2025-02-18T13:18:02</time>
      </trkpt>
      <trkpt lat="45.16175" lon="5.63127">
        <ele>1291.6</ele>
        <time>2025-02-18T13:18:03</time>
      </trkpt>
      <trkpt lat="45.16174" lon="5.63126">
        <ele>1291.6</ele>
        <time>2025-02-18T13:18:04</time>
      </trkpt>
      <trkpt lat="45.16173" lon="5.63126">
        <ele>1291.6</ele>
        <time>2025-02-18T13:18:05</time>
      </trkpt>
      <trkpt lat="45.16171" lon="5.63124">
        <ele>1291.6</ele>
        <time>2025-02-18T13:18:08</time>
      </trkpt>
      <trkpt lat="45.16168" lon="5.63124">
        <ele>1291.6</ele>
        <time>2025-02-18T13:18:11</time>
      </trkpt>
      <trkpt lat="45.16167" lon="5.63124">
        <ele>1291.6</ele>
        <time>2025-02-18T13:18:13</time>
      </trkpt>
      <trkpt lat="45.16164" lon="5.63124">
        <ele>1292.3667</ele>
        <time>2025-02-18T13:18:15</time>
      </trkpt>
      <trkpt lat="45.16162" lon="5.63125">
        <ele>1292.3667</ele>
        <time>2025-02-18T13:18:17</time>
      </trkpt>
      <trkpt lat="45.16161" lon="5.63125">
        <ele>1292.3667</ele>
        <time>2025-02-18T13:18:18</time>
      </trkpt>
      <trkpt lat="45.1616" lon="5.63125">
        <ele>1292.3667</ele>
        <time>2025-02-18T13:18:18</time>
      </trkpt>
      <trkpt lat="45.16157" lon="5.63125">
        <ele>1292.3667</ele>
        <time>2025-02-18T13:18:21</time>
      </trkpt>
      <trkpt lat="45.16153" lon="5.63126">
        <ele>1293.8</ele>
        <time>2025-02-18T13:18:24</time>
      </trkpt>
      <trkpt lat="45.1615" lon="5.63127">
        <ele>1293.8</ele>
        <time>2025-02-18T13:18:27</time>
      </trkpt>
      <trkpt lat="45.16149" lon="5.63127">
        <ele>1293.8</ele>
        <time>2025-02-18T13:18:28</time>
      </trkpt>
      <trkpt lat="45.16148" lon="5.63128">
        <ele>1296.1</ele>
        <time>2025-02-18T13:18:29</time>
      </trkpt>
      <trkpt lat="45.16147" lon="5.63128">
        <ele>1296.1</ele>
        <time>2025-02-18T13:18:30</time>
      </trkpt>
      <trkpt lat="45.16147" lon="5.63128">
        <ele>1296.1</ele>
        <time>2025-02-18T13:18:31</time>
      </trkpt>
      <trkpt lat="45.16146" lon="5.63128">
        <ele>1296.1</ele>
        <time>2025-02-18T13:18:31</time>
      </trkpt>
      <trkpt lat="45.16145" lon="5.63128">
        <ele>1296.1</ele>
        <time>2025-02-18T13:18:32</time>
      </trkpt>
      <trkpt lat="45.16144" lon="5.63128">
        <ele>1296.1</ele>
        <time>2025-02-18T13:18:33</time>
      </trkpt>
      <trkpt lat="45.16144" lon="5.63128">
        <ele>1296.1</ele>
        <time>2025-02-18T13:18:34</time>
      </trkpt>
      <trkpt lat="45.16144" lon="5.63128">
        <ele>1296.1</ele>
        <time>2025-02-18T13:18:35</time>
      </trkpt>
      <trkpt lat="45.16143" lon="5.63129">
        <ele>1297.3</ele>
        <time>2025-02-18T13:18:36</time>
      </trkpt>
      <trkpt lat="45.16142" lon="5.6313">
        <ele>1297.3</ele>
        <time>2025-02-18T13:18:37</time>
      </trkpt>
      <trkpt lat="45.16142" lon="5.6313">
        <ele>1297.3</ele>
        <time>2025-02-18T13:18:38</time>
      </trkpt>
      <trkpt lat="45.16141" lon="5.6313">
        <ele>1297.3</ele>
        <time>2025-02-18T13:18:39</time>
      </trkpt>
      <trkpt lat="45.1614" lon="5.6313">
        <ele>1297.3</ele>
        <time>2025-02-18T13:18:41</time>
      </trkpt>
      <trkpt lat="45.16136" lon="5.6313">
        <ele>1299.8</ele>
        <time>2025-02-18T13:18:45</time>
      </trkpt>
      <trkpt lat="45.16135" lon="5.63129">
        <ele>1299.8</ele>
        <time>2025-02-18T13:18:47</time>
      </trkpt>
      <trkpt lat="45.1613" lon="5.63129">
        <ele>1301.6</ele>
        <time>2025-02-18T13:18:51</time>
      </trkpt>
      <trkpt lat="45.16124" lon="5.6313">
        <ele>1302.6</ele>
        <time>2025-02-18T13:18:55</time>
      </trkpt>
      <trkpt lat="45.1612" lon="5.63129">
        <ele>1302.6</ele>
        <time>2025-02-18T13:18:59</time>
      </trkpt>
      <trkpt lat="45.16118" lon="5.63129">
        <ele>1302.7</ele>
        <time>2025-02-18T13:19:02</time>
      </trkpt>
      <trkpt lat="45.16113" lon="5.63128">
        <ele>1302.7</ele>
        <time>2025-02-18T13:19:06</time>
      </trkpt>
      <trkpt lat="45.16112" lon="5.63128">
        <ele>1302.7</ele>
        <time>2025-02-18T13:19:07</time>
      </trkpt>
      <trkpt lat="45.16111" lon="5.63128">
        <ele>1302.7</ele>
        <time>2025-02-18T13:19:08</time>
      </trkpt>
      <trkpt lat="45.16111" lon="5.63128">
        <ele>1302.8334</ele>
        <time>2025-02-18T13:19:09</time>
      </trkpt>
      <trkpt lat="45.1611" lon="5.63128">
        <ele>1302.8334</ele>
        <time>2025-02-18T13:19:11</time>
      </trkpt>
      <trkpt lat="45.16107" lon="5.63129">
        <ele>1307.5</ele>
        <time>2025-02-18T13:19:21</time>
      </trkpt>
      <trkpt lat="45.16105" lon="5.63129">
        <ele>1307.5</ele>
        <time>2025-02-18T13:19:22</time>
      </trkpt>
      <trkpt lat="45.16103" lon="5.63129">
        <ele>1310.1</ele>
        <time>2025-02-18T13:19:23</time>
      </trkpt>
      <trkpt lat="45.16102" lon="5.63129">
        <ele>1310.1</ele>
        <time>2025-02-18T13:19:25</time>
      </trkpt>
      <trkpt lat="45.16101" lon="5.63129">
        <ele>1310.1</ele>
        <time>2025-02-18T13:19:26</time>
      </trkpt>
      <trkpt lat="45.16099" lon="5.63128">
        <ele>1310.1</ele>
        <time>2025-02-18T13:19:28</time>
      </trkpt>
      <trkpt lat="45.16096" lon="5.63129">
        <ele>1311.3</ele>
        <time>2025-02-18T13:19:32</time>
      </trkpt>
      <trkpt lat="45.16095" lon="5.63129">
        <ele>1311.3</ele>
        <time>2025-02-18T13:19:33</time>
      </trkpt>
      <trkpt lat="45.16086" lon="5.63131">
        <ele>1312.1</ele>
        <time>2025-02-18T13:19:43</time>
      </trkpt>
      <trkpt lat="45.16085" lon="5.63131">
        <ele>1312.1</ele>
        <time>2025-02-18T13:19:44</time>
      </trkpt>
      <trkpt lat="45.16084" lon="5.6313">
        <ele>1312.3</ele>
        <time>2025-02-18T13:19:45</time>
      </trkpt>
      <trkpt lat="45.16083" lon="5.63131">
        <ele>1312.3</ele>
        <time>2025-02-18T13:19:46</time>
      </trkpt>
      <trkpt lat="45.16083" lon="5.63131">
        <ele>1312.3</ele>
        <time>2025-02-18T13:19:47</time>
      </trkpt>
      <trkpt lat="45.16083" lon="5.63132">
        <ele>1312.3</ele>
        <time>2025-02-18T13:19:48</time>
      </trkpt>
      <trkpt lat="45.16082" lon="5.63132">
        <ele>1312.3</ele>
        <time>2025-02-18T13:19:49</time>
      </trkpt>
      <trkpt lat="45.16082" lon="5.63132">
        <ele>1312.3</ele>
        <time>2025-02-18T13:19:49</time>
      </trkpt>
      <trkpt lat="45.16082" lon="5.63132">
        <ele>1312.3</ele>
        <time>2025-02-18T13:19:50</time>
      </trkpt>
      <trkpt lat="45.16082" lon="5.63132">
        <ele>1312.3</ele>
        <time>2025-02-18T13:19:50</time>
      </trkpt>
      <trkpt lat="45.16081" lon="5.63132">
        <ele>1312.3</ele>
        <time>2025-02-18T13:19:51</time>
      </trkpt>
      <trkpt lat="45.16079" lon="5.63132">
        <ele>1314.3</ele>
        <time>2025-02-18T13:19:55</time>
      </trkpt>
      <trkpt lat="45.16079" lon="5.63131">
        <ele>1314.3</ele>
        <time>2025-02-18T13:19:56</time>
      </trkpt>
      <trkpt lat="45.16078" lon="5.63131">
        <ele>1314.3</ele>
        <time>2025-02-18T13:19:57</time>
      </trkpt>
      <trkpt lat="45.16077" lon="5.6313">
        <ele>1314.3</ele>
        <time>2025-02-18T13:19:59</time>
      </trkpt>
      <trkpt lat="45.16069" lon="5.63129">
        <ele>1319.7667</ele>
        <time>2025-02-18T13:20:08</time>
      </trkpt>
      <trkpt lat="45.16068" lon="5.63128">
        <ele>1319.7667</ele>
        <time>2025-02-18T13:20:09</time>
      </trkpt>
      <trkpt lat="45.16065" lon="5.63126">
        <ele>1319.7667</ele>
        <time>2025-02-18T13:20:11</time>
      </trkpt>
      <trkpt lat="45.16064" lon="5.63126">
        <ele>1319.7667</ele>
        <time>2025-02-18T13:20:12</time>
      </trkpt>
      <trkpt lat="45.16063" lon="5.63126">
        <ele>1319.7667</ele>
        <time>2025-02-18T13:20:13</time>
      </trkpt>
      <trkpt lat="45.16063" lon="5.63125">
        <ele>1320.1666</ele>
        <time>2025-02-18T13:20:14</time>
      </trkpt>
      <trkpt lat="45.16062" lon="5.63125">
        <ele>1320.1666</ele>
        <time>2025-02-18T13:20:15</time>
      </trkpt>
      <trkpt lat="45.16062" lon="5.63124">
        <ele>1320.1666</ele>
        <time>2025-02-18T13:20:15</time>
      </trkpt>
      <trkpt lat="45.16061" lon="5.63124">
        <ele>1320.1666</ele>
        <time>2025-02-18T13:20:16</time>
      </trkpt>
      <trkpt lat="45.1606" lon="5.63123">
        <ele>1320.1666</ele>
        <time>2025-02-18T13:20:17</time>
      </trkpt>
      <trkpt lat="45.1606" lon="5.63122">
        <ele>1320.1666</ele>
        <time>2025-02-18T13:20:17</time>
      </trkpt>
      <trkpt lat="45.16059" lon="5.63122">
        <ele>1320.1666</ele>
        <time>2025-02-18T13:20:18</time>
      </trkpt>
      <trkpt lat="45.16058" lon="5.63121">
        <ele>1320.1666</ele>
        <time>2025-02-18T13:20:19</time>
      </trkpt>
      <trkpt lat="45.16057" lon="5.63121">
        <ele>1321.5</ele>
        <time>2025-02-18T13:20:21</time>
      </trkpt>
      <trkpt lat="45.16056" lon="5.63121">
        <ele>1321.5</ele>
        <time>2025-02-18T13:20:22</time>
      </trkpt>
      <trkpt lat="45.16055" lon="5.63121">
        <ele>1321.5</ele>
        <time>2025-02-18T13:20:23</time>
      </trkpt>
      <trkpt lat="45.16054" lon="5.6312">
        <ele>1321.5</ele>
        <time>2025-02-18T13:20:26</time>
      </trkpt>
      <trkpt lat="45.16054" lon="5.6312">
        <ele>1321.5</ele>
        <time>2025-02-18T13:20:27</time>
      </trkpt>
      <trkpt lat="45.16054" lon="5.6312">
        <ele>1321.5</ele>
        <time>2025-02-18T13:20:28</time>
      </trkpt>
      <trkpt lat="45.16053" lon="5.6312">
        <ele>1321.5</ele>
        <time>2025-02-18T13:20:29</time>
      </trkpt>
      <trkpt lat="45.16053" lon="5.6312">
        <ele>1322</ele>
        <time>2025-02-18T13:20:29</time>
      </trkpt>
      <trkpt lat="45.16053" lon="5.6312">
        <ele>1322</ele>
        <time>2025-02-18T13:20:30</time>
      </trkpt>
      <trkpt lat="45.16052" lon="5.6312">
        <ele>1322</ele>
        <time>2025-02-18T13:20:32</time>
      </trkpt>
      <trkpt lat="45.16052" lon="5.6312">
        <ele>1322</ele>
        <time>2025-02-18T13:20:33</time>
      </trkpt>
      <trkpt lat="45.16052" lon="5.6312">
        <ele>1322</ele>
        <time>2025-02-18T13:20:34</time>
      </trkpt>
      <trkpt lat="45.16053" lon="5.6312">
        <ele>1322</ele>
        <time>2025-02-18T13:20:35</time>
      </trkpt>
      <trkpt lat="45.16053" lon="5.6312">
        <ele>1321.7</ele>
        <time>2025-02-18T13:20:38</time>
      </trkpt>
      <trkpt lat="45.16053" lon="5.6312">
        <ele>1321.7</ele>
        <time>2025-02-18T13:20:39</time>
      </trkpt>
      <trkpt lat="45.16053" lon="5.6312">
        <ele>1321.7</ele>
        <time>2025-02-18T13:20:44</time>
      </trkpt>
      <trkpt lat="45.16053" lon="5.6312">
        <ele>1321.6</ele>
        <time>2025-02-18T13:20:45</time>
      </trkpt>
      <trkpt lat="45.16053" lon="5.6312">
        <ele>1321.6</ele>
        <time>2025-02-18T13:20:45</time>
      </trkpt>
      <trkpt lat="45.16052" lon="5.6312">
        <ele>1321.6</ele>
        <time>2025-02-18T13:20:48</time>
      </trkpt>
      <trkpt lat="45.16052" lon="5.6312">
        <ele>1321.6</ele>
        <time>2025-02-18T13:20:50</time>
      </trkpt>
      <trkpt lat="45.16052" lon="5.6312">
        <ele>1321.6</ele>
        <time>2025-02-18T13:20:51</time>
      </trkpt>
      <trkpt lat="45.16046" lon="5.63122">
        <ele>1321.6</ele>
        <time>2025-02-18T13:20:52</time>
      </trkpt>
      <trkpt lat="45.16043" lon="5.63123">
        <ele>1321.6</ele>
        <time>2025-02-18T13:20:53</time>
      </trkpt>
      <trkpt lat="45.16041" lon="5.63123">
        <ele>1321.6</ele>
        <time>2025-02-18T13:20:54</time>
      </trkpt>
      <trkpt lat="45.1604" lon="5.63123">
        <ele>1321.6</ele>
        <time>2025-02-18T13:20:55</time>
      </trkpt>
      <trkpt lat="45.16039" lon="5.63123">
        <ele>1321.6</ele>
        <time>2025-02-18T13:20:57</time>
      </trkpt>
      <trkpt lat="45.16038" lon="5.63123">
        <ele>1321.6</ele>
        <time>2025-02-18T13:20:57</time>
      </trkpt>
      <trkpt lat="45.16037" lon="5.63123">
        <ele>1321.6</ele>
        <time>2025-02-18T13:20:58</time>
      </trkpt>
      <trkpt lat="45.16037" lon="5.63123">
        <ele>1321.6</ele>
        <time>2025-02-18T13:20:59</time>
      </trkpt>
      <trkpt lat="45.16036" lon="5.63124">
        <ele>1321.6</ele>
        <time>2025-02-18T13:21:00</time>
      </trkpt>
      <trkpt lat="45.16035" lon="5.63124">
        <ele>1322.9</ele>
        <time>2025-02-18T13:21:01</time>
      </trkpt>
      <trkpt lat="45.16035" lon="5.63124">
        <ele>1322.9</ele>
        <time>2025-02-18T13:21:02</time>
      </trkpt>
      <trkpt lat="45.16034" lon="5.63124">
        <ele>1322.9</ele>
        <time>2025-02-18T13:21:02</time>
      </trkpt>
      <trkpt lat="45.16033" lon="5.63124">
        <ele>1322.9</ele>
        <time>2025-02-18T13:21:03</time>
      </trkpt>
      <trkpt lat="45.16029" lon="5.63124">
        <ele>1322.9</ele>
        <time>2025-02-18T13:21:08</time>
      </trkpt>
      <trkpt lat="45.16025" lon="5.63122">
        <ele>1324.9</ele>
        <time>2025-02-18T13:21:12</time>
      </trkpt>
      <trkpt lat="45.16021" lon="5.63121">
        <ele>1326</ele>
        <time>2025-02-18T13:21:16</time>
      </trkpt>
      <trkpt lat="45.16021" lon="5.63121">
        <ele>1326</ele>
        <time>2025-02-18T13:21:17</time>
      </trkpt>
      <trkpt lat="45.1602" lon="5.63121">
        <ele>1326</ele>
        <time>2025-02-18T13:21:18</time>
      </trkpt>
      <trkpt lat="45.16019" lon="5.6312">
        <ele>1326</ele>
        <time>2025-02-18T13:21:18</time>
      </trkpt>
      <trkpt lat="45.16018" lon="5.63119">
        <ele>1326</ele>
        <time>2025-02-18T13:21:20</time>
      </trkpt>
      <trkpt lat="45.16017" lon="5.63119">
        <ele>1326</ele>
        <time>2025-02-18T13:21:21</time>
      </trkpt>
      <trkpt lat="45.16016" lon="5.6312">
        <ele>1326.5</ele>
        <time>2025-02-18T13:21:22</time>
      </trkpt>
      <trkpt lat="45.1601" lon="5.6312">
        <ele>1326.5</ele>
        <time>2025-02-18T13:21:29</time>
      </trkpt>
      <trkpt lat="45.16008" lon="5.6312">
        <ele>1326.4</ele>
        <time>2025-02-18T13:21:30</time>
      </trkpt>
      <trkpt lat="45.16006" lon="5.6312">
        <ele>1326.4</ele>
        <time>2025-02-18T13:21:33</time>
      </trkpt>
      <trkpt lat="45.16006" lon="5.6312">
        <ele>1326.4</ele>
        <time>2025-02-18T13:21:33</time>
      </trkpt>
      <trkpt lat="45.16005" lon="5.63121">
        <ele>1326.4</ele>
        <time>2025-02-18T13:21:34</time>
      </trkpt>
      <trkpt lat="45.16005" lon="5.63121">
        <ele>1326.4</ele>
        <time>2025-02-18T13:21:35</time>
      </trkpt>
      <trkpt lat="45.16004" lon="5.6312">
        <ele>1327.6</ele>
        <time>2025-02-18T13:21:38</time>
      </trkpt>
      <trkpt lat="45.16003" lon="5.6312">
        <ele>1327.6</ele>
        <time>2025-02-18T13:21:39</time>
      </trkpt>
      <trkpt lat="45.16003" lon="5.6312">
        <ele>1327.6</ele>
        <time>2025-02-18T13:21:40</time>
      </trkpt>
      <trkpt lat="45.16003" lon="5.63119">
        <ele>1327.6</ele>
        <time>2025-02-18T13:21:41</time>
      </trkpt>
      <trkpt lat="45.16003" lon="5.63119">
        <ele>1329.2</ele>
        <time>2025-02-18T13:21:45</time>
      </trkpt>
      <trkpt lat="45.16003" lon="5.63119">
        <ele>1329.2</ele>
        <time>2025-02-18T13:21:49</time>
      </trkpt>
      <trkpt lat="45.16003" lon="5.63119">
        <ele>1330.4</ele>
        <time>2025-02-18T13:21:52</time>
      </trkpt>
      <trkpt lat="45.16003" lon="5.63119">
        <ele>1330.4</ele>
        <time>2025-02-18T13:21:53</time>
      </trkpt>
      <trkpt lat="45.16003" lon="5.63119">
        <ele>1330.4</ele>
        <time>2025-02-18T13:21:54</time>
      </trkpt>
      <trkpt lat="45.16003" lon="5.63119">
        <ele>1330.4</ele>
        <time>2025-02-18T13:21:55</time>
      </trkpt>
      <trkpt lat="45.16003" lon="5.63119">
        <ele>1330.4</ele>
        <time>2025-02-18T13:21:55</time>
      </trkpt>
      <trkpt lat="45.16003" lon="5.63119">
        <ele>1330.4</ele>
        <time>2025-02-18T13:21:56</time>
      </trkpt>
      <trkpt lat="45.16003" lon="5.63119">
        <ele>1330.4</ele>
        <time>2025-02-18T13:21:56</time>
      </trkpt>
      <trkpt lat="45.16003" lon="5.63119">
        <ele>1330.4</ele>
        <time>2025-02-18T13:21:57</time>
      </trkpt>
      <trkpt lat="45.16002" lon="5.63119">
        <ele>1330.4</ele>
        <time>2025-02-18T13:21:58</time>
      </trkpt>
      <trkpt lat="45.16002" lon="5.63119">
        <ele>1330.4</ele>
        <time>2025-02-18T13:21:59</time>
      </trkpt>
      <trkpt lat="45.16003" lon="5.63119">
        <ele>1330.4</ele>
        <time>2025-02-18T13:22:00</time>
      </trkpt>
      <trkpt lat="45.16002" lon="5.63119">
        <ele>1330.4</ele>
        <time>2025-02-18T13:22:00</time>
      </trkpt>
      <trkpt lat="45.16003" lon="5.63119">
        <ele>1330.4</ele>
        <time>2025-02-18T13:22:02</time>
      </trkpt>
      <trkpt lat="45.16003" lon="5.63119">
        <ele>1330.4</ele>
        <time>2025-02-18T13:22:03</time>
      </trkpt>
      <trkpt lat="45.16002" lon="5.63119">
        <ele>1330.4</ele>
        <time>2025-02-18T13:22:04</time>
      </trkpt>
      <trkpt lat="45.16002" lon="5.63119">
        <ele>1330.4</ele>
        <time>2025-02-18T13:22:06</time>
      </trkpt>
      <trkpt lat="45.15996" lon="5.63116">
        <ele>1330.4</ele>
        <time>2025-02-18T13:22:10</time>
      </trkpt>
      <trkpt lat="45.15993" lon="5.63114">
        <ele>1330.4</ele>
        <time>2025-02-18T13:22:11</time>
      </trkpt>
      <trkpt lat="45.15992" lon="5.63114">
        <ele>1330.4</ele>
        <time>2025-02-18T13:22:12</time>
      </trkpt>
      <trkpt lat="45.15991" lon="5.63115">
        <ele>1330.4</ele>
        <time>2025-02-18T13:22:14</time>
      </trkpt>
      <trkpt lat="45.15991" lon="5.63115">
        <ele>1330.4</ele>
        <time>2025-02-18T13:22:15</time>
      </trkpt>
      <trkpt lat="45.15991" lon="5.63115">
        <ele>1333.1</ele>
        <time>2025-02-18T13:22:16</time>
      </trkpt>
      <trkpt lat="45.15991" lon="5.63116">
        <ele>1333.1</ele>
        <time>2025-02-18T13:22:21</time>
      </trkpt>
      <trkpt lat="45.15991" lon="5.63116">
        <ele>1333.1</ele>
        <time>2025-02-18T13:22:23</time>
      </trkpt>
      <trkpt lat="45.15989" lon="5.63117">
        <ele>1335.5</ele>
        <time>2025-02-18T13:22:25</time>
      </trkpt>
      <trkpt lat="45.15988" lon="5.63117">
        <ele>1335.5</ele>
        <time>2025-02-18T13:22:26</time>
      </trkpt>
      <trkpt lat="45.15988" lon="5.63117">
        <ele>1335.5</ele>
        <time>2025-02-18T13:22:27</time>
      </trkpt>
      <trkpt lat="45.15987" lon="5.63118">
        <ele>1335.5</ele>
        <time>2025-02-18T13:22:28</time>
      </trkpt>
      <trkpt lat="45.15987" lon="5.63118">
        <ele>1335.5</ele>
        <time>2025-02-18T13:22:29</time>
      </trkpt>
      <trkpt lat="45.15987" lon="5.63118">
        <ele>1335.5</ele>
        <time>2025-02-18T13:22:30</time>
      </trkpt>
      <trkpt lat="45.15987" lon="5.63118">
        <ele>1336.5</ele>
        <time>2025-02-18T13:22:32</time>
      </trkpt>
      <trkpt lat="45.15987" lon="5.63118">
        <ele>1336.5</ele>
        <time>2025-02-18T13:22:32</time>
      </trkpt>
      <trkpt lat="45.15987" lon="5.63118">
        <ele>1336.5</ele>
        <time>2025-02-18T13:22:33</time>
      </trkpt>
      <trkpt lat="45.15987" lon="5.63118">
        <ele>1336.5</ele>
        <time>2025-02-18T13:22:34</time>
      </trkpt>
      <trkpt lat="45.15986" lon="5.63118">
        <ele>1336.5</ele>
        <time>2025-02-18T13:22:35</time>
      </trkpt>
      <trkpt lat="45.15984" lon="5.63118">
        <ele>1336.5</ele>
        <time>2025-02-18T13:22:38</time>
      </trkpt>
      <trkpt lat="45.15984" lon="5.63119">
        <ele>1336.5</ele>
        <time>2025-02-18T13:22:39</time>
      </trkpt>
      <trkpt lat="45.15983" lon="5.6312">
        <ele>1337.5</ele>
        <time>2025-02-18T13:22:40</time>
      </trkpt>
      <trkpt lat="45.15983" lon="5.6312">
        <ele>1337.5</ele>
        <time>2025-02-18T13:22:41</time>
      </trkpt>
      <trkpt lat="45.15982" lon="5.63121">
        <ele>1337.5</ele>
        <time>2025-02-18T13:22:42</time>
      </trkpt>
      <trkpt lat="45.15982" lon="5.63122">
        <ele>1337.5</ele>
        <time>2025-02-18T13:22:45</time>
      </trkpt>
      <trkpt lat="45.15982" lon="5.63123">
        <ele>1337.5</ele>
        <time>2025-02-18T13:22:46</time>
      </trkpt>
      <trkpt lat="45.15981" lon="5.63125">
        <ele>1337.5</ele>
        <time>2025-02-18T13:22:48</time>
      </trkpt>
      <trkpt lat="45.15979" lon="5.63127">
        <ele>1337.9</ele>
        <time>2025-02-18T13:22:53</time>
      </trkpt>
      <trkpt lat="45.1598" lon="5.63127">
        <ele>1337.9</ele>
        <time>2025-02-18T13:22:54</time>
      </trkpt>
      <trkpt lat="45.1598" lon="5.63127">
        <ele>1337.9</ele>
        <time>2025-02-18T13:22:56</time>
      </trkpt>
      <trkpt lat="45.1598" lon="5.63127">
        <ele>1337.9</ele>
        <time>2025-02-18T13:22:57</time>
      </trkpt>
      <trkpt lat="45.1598" lon="5.63128">
        <ele>1337.9</ele>
        <time>2025-02-18T13:22:58</time>
      </trkpt>
      <trkpt lat="45.1598" lon="5.63128">
        <ele>1338.4</ele>
        <time>2025-02-18T13:22:59</time>
      </trkpt>
      <trkpt lat="45.15979" lon="5.63128">
        <ele>1338.4</ele>
        <time>2025-02-18T13:23:00</time>
      </trkpt>
      <trkpt lat="45.15978" lon="5.63129">
        <ele>1338.4</ele>
        <time>2025-02-18T13:23:03</time>
      </trkpt>
      <trkpt lat="45.15977" lon="5.6313">
        <ele>1338.4</ele>
        <time>2025-02-18T13:23:05</time>
      </trkpt>
      <trkpt lat="45.15977" lon="5.6313">
        <ele>1338.4</ele>
        <time>2025-02-18T13:23:06</time>
      </trkpt>
      <trkpt lat="45.15975" lon="5.6313">
        <ele>1338.4</ele>
        <time>2025-02-18T13:23:07</time>
      </trkpt>
      <trkpt lat="45.15974" lon="5.63131">
        <ele>1338.9</ele>
        <time>2025-02-18T13:23:09</time>
      </trkpt>
      <trkpt lat="45.15974" lon="5.63131">
        <ele>1338.9</ele>
        <time>2025-02-18T13:23:09</time>
      </trkpt>
      <trkpt lat="45.15974" lon="5.63132">
        <ele>1338.9</ele>
        <time>2025-02-18T13:23:10</time>
      </trkpt>
      <trkpt lat="45.15972" lon="5.63133">
        <ele>1338.9</ele>
        <time>2025-02-18T13:23:13</time>
      </trkpt>
      <trkpt lat="45.15972" lon="5.63133">
        <ele>1340.3</ele>
        <time>2025-02-18T13:23:14</time>
      </trkpt>
      <trkpt lat="45.15971" lon="5.63134">
        <ele>1340.3</ele>
        <time>2025-02-18T13:23:15</time>
      </trkpt>
      <trkpt lat="45.15971" lon="5.63134">
        <ele>1340.3</ele>
        <time>2025-02-18T13:23:16</time>
      </trkpt>
      <trkpt lat="45.15971" lon="5.63134">
        <ele>1340.3</ele>
        <time>2025-02-18T13:23:17</time>
      </trkpt>
      <trkpt lat="45.15971" lon="5.63134">
        <ele>1340.3</ele>
        <time>2025-02-18T13:23:17</time>
      </trkpt>
      <trkpt lat="45.15971" lon="5.63134">
        <ele>1340.3</ele>
        <time>2025-02-18T13:23:18</time>
      </trkpt>
      <trkpt lat="45.15971" lon="5.63134">
        <ele>1340.3</ele>
        <time>2025-02-18T13:23:19</time>
      </trkpt>
      <trkpt lat="45.15971" lon="5.63134">
        <ele>1340.3</ele>
        <time>2025-02-18T13:23:20</time>
      </trkpt>
      <trkpt lat="45.15971" lon="5.63134">
        <ele>1340.3</ele>
        <time>2025-02-18T13:23:21</time>
      </trkpt>
      <trkpt lat="45.15971" lon="5.63134">
        <ele>1341.9</ele>
        <time>2025-02-18T13:23:22</time>
      </trkpt>
      <trkpt lat="45.15971" lon="5.63134">
        <ele>1341.9</ele>
        <time>2025-02-18T13:23:23</time>
      </trkpt>
      <trkpt lat="45.15971" lon="5.63134">
        <ele>1341.9</ele>
        <time>2025-02-18T13:23:25</time>
      </trkpt>
      <trkpt lat="45.15971" lon="5.63134">
        <ele>1341.9</ele>
        <time>2025-02-18T13:23:26</time>
      </trkpt>
      <trkpt lat="45.15971" lon="5.63134">
        <ele>1341.9</ele>
        <time>2025-02-18T13:23:27</time>
      </trkpt>
      <trkpt lat="45.15972" lon="5.63135">
        <ele>1341.9</ele>
        <time>2025-02-18T13:23:28</time>
      </trkpt>
      <trkpt lat="45.15972" lon="5.63135">
        <ele>1341.9</ele>
        <time>2025-02-18T13:23:29</time>
      </trkpt>
      <trkpt lat="45.15971" lon="5.63132">
        <ele>1344.8</ele>
        <time>2025-02-18T13:23:44</time>
      </trkpt>
      <trkpt lat="45.15971" lon="5.63132">
        <ele>1344.8</ele>
        <time>2025-02-18T13:24:11</time>
      </trkpt>
      <trkpt lat="45.15971" lon="5.63132">
        <ele>1344.8</ele>
        <time>2025-02-18T13:24:12</time>
      </trkpt>
      <trkpt lat="45.15971" lon="5.63132">
        <ele>1344.8</ele>
        <time>2025-02-18T13:24:13</time>
      </trkpt>
      <trkpt lat="45.15971" lon="5.63132">
        <ele>1344.8</ele>
        <time>2025-02-18T13:24:13</time>
      </trkpt>
      <trkpt lat="45.15971" lon="5.63132">
        <ele>1344.8</ele>
        <time>2025-02-18T13:24:14</time>
      </trkpt>
      <trkpt lat="45.1597" lon="5.63133">
        <ele>1344.8</ele>
        <time>2025-02-18T13:24:15</time>
      </trkpt>
      <trkpt lat="45.15968" lon="5.63134">
        <ele>1344.8</ele>
        <time>2025-02-18T13:24:16</time>
      </trkpt>
      <trkpt lat="45.15966" lon="5.63137">
        <ele>1344.8</ele>
        <time>2025-02-18T13:24:19</time>
      </trkpt>
      <trkpt lat="45.15965" lon="5.63138">
        <ele>1344.8</ele>
        <time>2025-02-18T13:24:20</time>
      </trkpt>
      <trkpt lat="45.15964" lon="5.63139">
        <ele>1344.8</ele>
        <time>2025-02-18T13:24:21</time>
      </trkpt>
      <trkpt lat="45.15962" lon="5.63139">
        <ele>1344.8</ele>
        <time>2025-02-18T13:24:23</time>
      </trkpt>
      <trkpt lat="45.15962" lon="5.63139">
        <ele>1344.8</ele>
        <time>2025-02-18T13:24:24</time>
      </trkpt>
      <trkpt lat="45.15961" lon="5.63139">
        <ele>1344.8</ele>
        <time>2025-02-18T13:24:25</time>
      </trkpt>
      <trkpt lat="45.15961" lon="5.63139">
        <ele>1344.8</ele>
        <time>2025-02-18T13:24:27</time>
      </trkpt>
      <trkpt lat="45.1596" lon="5.63139">
        <ele>1348.2</ele>
        <time>2025-02-18T13:24:29</time>
      </trkpt>
      <trkpt lat="45.1596" lon="5.63139">
        <ele>1348.2</ele>
        <time>2025-02-18T13:24:30</time>
      </trkpt>
      <trkpt lat="45.15959" lon="5.6314">
        <ele>1348.2</ele>
        <time>2025-02-18T13:24:33</time>
      </trkpt>
      <trkpt lat="45.15959" lon="5.63141">
        <ele>1348.2</ele>
        <time>2025-02-18T13:24:36</time>
      </trkpt>
      <trkpt lat="45.15959" lon="5.63142">
        <ele>1349.2</ele>
        <time>2025-02-18T13:24:41</time>
      </trkpt>
      <trkpt lat="45.15959" lon="5.63142">
        <ele>1350.4</ele>
        <time>2025-02-18T13:24:49</time>
      </trkpt>
      <trkpt lat="45.15959" lon="5.63142">
        <ele>1350.4</ele>
        <time>2025-02-18T13:24:51</time>
      </trkpt>
      <trkpt lat="45.15959" lon="5.63142">
        <ele>1350.4</ele>
        <time>2025-02-18T13:24:52</time>
      </trkpt>
      <trkpt lat="45.15959" lon="5.63141">
        <ele>1350.4</ele>
        <time>2025-02-18T13:24:53</time>
      </trkpt>
      <trkpt lat="45.15959" lon="5.63142">
        <ele>1350.4</ele>
        <time>2025-02-18T13:24:54</time>
      </trkpt>
      <trkpt lat="45.15959" lon="5.63142">
        <ele>1350.4</ele>
        <time>2025-02-18T13:24:55</time>
      </trkpt>
      <trkpt lat="45.15959" lon="5.63143">
        <ele>1350.4</ele>
        <time>2025-02-18T13:24:56</time>
      </trkpt>
      <trkpt lat="45.15959" lon="5.63143">
        <ele>1350.4</ele>
        <time>2025-02-18T13:24:57</time>
      </trkpt>
      <trkpt lat="45.15958" lon="5.63144">
        <ele>1350.4</ele>
        <time>2025-02-18T13:24:58</time>
      </trkpt>
      <trkpt lat="45.15958" lon="5.63145">
        <ele>1350.4</ele>
        <time>2025-02-18T13:24:59</time>
      </trkpt>
      <trkpt lat="45.15957" lon="5.63146">
        <ele>1350.4</ele>
        <time>2025-02-18T13:25:01</time>
      </trkpt>
      <trkpt lat="45.15957" lon="5.63146">
        <ele>1350.4</ele>
        <time>2025-02-18T13:25:02</time>
      </trkpt>
      <trkpt lat="45.15957" lon="5.63147">
        <ele>1350.4</ele>
        <time>2025-02-18T13:25:03</time>
      </trkpt>
      <trkpt lat="45.15957" lon="5.63147">
        <ele>1350.4</ele>
        <time>2025-02-18T13:25:04</time>
      </trkpt>
      <trkpt lat="45.15955" lon="5.63149">
        <ele>1357.5667</ele>
        <time>2025-02-18T13:25:07</time>
      </trkpt>
      <trkpt lat="45.15955" lon="5.63149">
        <ele>1357.5667</ele>
        <time>2025-02-18T13:25:08</time>
      </trkpt>
      <trkpt lat="45.15954" lon="5.6315">
        <ele>1357.5667</ele>
        <time>2025-02-18T13:25:09</time>
      </trkpt>
      <trkpt lat="45.15955" lon="5.6315">
        <ele>1357.5667</ele>
        <time>2025-02-18T13:25:13</time>
      </trkpt>
      <trkpt lat="45.15955" lon="5.63151">
        <ele>1360.1</ele>
        <time>2025-02-18T13:25:18</time>
      </trkpt>
      <trkpt lat="45.15955" lon="5.63151">
        <ele>1360.1</ele>
        <time>2025-02-18T13:25:20</time>
      </trkpt>
      <trkpt lat="45.15955" lon="5.63151">
        <ele>1360.1</ele>
        <time>2025-02-18T13:25:21</time>
      </trkpt>
      <trkpt lat="45.15955" lon="5.63151">
        <ele>1360.1</ele>
        <time>2025-02-18T13:25:22</time>
      </trkpt>
      <trkpt lat="45.15955" lon="5.63151">
        <ele>1361</ele>
        <time>2025-02-18T13:25:23</time>
      </trkpt>
      <trkpt lat="45.15955" lon="5.63151">
        <ele>1361</ele>
        <time>2025-02-18T13:25:24</time>
      </trkpt>
      <trkpt lat="45.15955" lon="5.63151">
        <ele>1361</ele>
        <time>2025-02-18T13:25:25</time>
      </trkpt>
      <trkpt lat="45.15955" lon="5.63151">
        <ele>1361</ele>
        <time>2025-02-18T13:25:26</time>
      </trkpt>
      <trkpt lat="45.15955" lon="5.63151">
        <ele>1361</ele>
        <time>2025-02-18T13:25:27</time>
      </trkpt>
      <trkpt lat="45.15955" lon="5.63151">
        <ele>1361</ele>
        <time>2025-02-18T13:25:27</time>
      </trkpt>
      <trkpt lat="45.15955" lon="5.63151">
        <ele>1361</ele>
        <time>2025-02-18T13:25:28</time>
      </trkpt>
      <trkpt lat="45.15955" lon="5.63151">
        <ele>1361</ele>
        <time>2025-02-18T13:25:29</time>
      </trkpt>
      <trkpt lat="45.15955" lon="5.63151">
        <ele>1361</ele>
        <time>2025-02-18T13:25:30</time>
      </trkpt>
      <trkpt lat="45.15955" lon="5.63151">
        <ele>1361</ele>
        <time>2025-02-18T13:25:31</time>
      </trkpt>
      <trkpt lat="45.15955" lon="5.63151">
        <ele>1361</ele>
        <time>2025-02-18T13:25:32</time>
      </trkpt>
      <trkpt lat="45.15955" lon="5.63151">
        <ele>1361</ele>
        <time>2025-02-18T13:25:34</time>
      </trkpt>
      <trkpt lat="45.15955" lon="5.63151">
        <ele>1361</ele>
        <time>2025-02-18T13:25:35</time>
      </trkpt>
      <trkpt lat="45.15954" lon="5.63153">
        <ele>1361</ele>
        <time>2025-02-18T13:25:37</time>
      </trkpt>
      <trkpt lat="45.15952" lon="5.63157">
        <ele>1361</ele>
        <time>2025-02-18T13:25:38</time>
      </trkpt>
      <trkpt lat="45.15951" lon="5.63162">
        <ele>1361</ele>
        <time>2025-02-18T13:25:42</time>
      </trkpt>
      <trkpt lat="45.15951" lon="5.63162">
        <ele>1361</ele>
        <time>2025-02-18T13:25:43</time>
      </trkpt>
      <trkpt lat="45.15951" lon="5.63162">
        <ele>1361</ele>
        <time>2025-02-18T13:25:44</time>
      </trkpt>
      <trkpt lat="45.15951" lon="5.63162">
        <ele>1361</ele>
        <time>2025-02-18T13:25:46</time>
      </trkpt>
      <trkpt lat="45.15951" lon="5.63162">
        <ele>1361</ele>
        <time>2025-02-18T13:25:47</time>
      </trkpt>
      <trkpt lat="45.15951" lon="5.63162">
        <ele>1363</ele>
        <time>2025-02-18T13:25:52</time>
      </trkpt>
      <trkpt lat="45.15951" lon="5.63162">
        <ele>1363</ele>
        <time>2025-02-18T13:26:00</time>
      </trkpt>
      <trkpt lat="45.15946" lon="5.6317">
        <ele>1364.7</ele>
        <time>2025-02-18T13:26:11</time>
      </trkpt>
      <trkpt lat="45.15945" lon="5.6317">
        <ele>1364.7</ele>
        <time>2025-02-18T13:26:25</time>
      </trkpt>
      <trkpt lat="45.15944" lon="5.63169">
        <ele>1364.7</ele>
        <time>2025-02-18T13:26:26</time>
      </trkpt>
      <trkpt lat="45.15944" lon="5.63166">
        <ele>1364.7</ele>
        <time>2025-02-18T13:26:28</time>
      </trkpt>
      <trkpt lat="45.15945" lon="5.63162">
        <ele>1364.1</ele>
        <time>2025-02-18T13:27:11</time>
      </trkpt>
      <trkpt lat="45.15945" lon="5.63162">
        <ele>1364.1</ele>
        <time>2025-02-18T13:27:18</time>
      </trkpt>
      <trkpt lat="45.15947" lon="5.63162">
        <ele>1367.5</ele>
        <time>2025-02-18T13:27:20</time>
      </trkpt>
      <trkpt lat="45.15948" lon="5.63161">
        <ele>1367.5</ele>
        <time>2025-02-18T13:27:24</time>
      </trkpt>
      <trkpt lat="45.15948" lon="5.63161">
        <ele>1367.5</ele>
        <time>2025-02-18T13:27:26</time>
      </trkpt>
      <trkpt lat="45.15948" lon="5.63161">
        <ele>1367.5</ele>
        <time>2025-02-18T13:27:28</time>
      </trkpt>
      <trkpt lat="45.15948" lon="5.63161">
        <ele>1367.3</ele>
        <time>2025-02-18T13:27:31</time>
      </trkpt>
      <trkpt lat="45.15948" lon="5.63161">
        <ele>1367.3</ele>
        <time>2025-02-18T13:27:32</time>
      </trkpt>
      <trkpt lat="45.15948" lon="5.63161">
        <ele>1367.3</ele>
        <time>2025-02-18T13:27:34</time>
      </trkpt>
      <trkpt lat="45.15948" lon="5.63161">
        <ele>1367.3</ele>
        <time>2025-02-18T13:27:36</time>
      </trkpt>
      <trkpt lat="45.15948" lon="5.63161">
        <ele>1367.3</ele>
        <time>2025-02-18T13:28:09</time>
      </trkpt>
      <trkpt lat="45.15944" lon="5.6316">
        <ele>1367.3</ele>
        <time>2025-02-18T13:28:16</time>
      </trkpt>
      <trkpt lat="45.15942" lon="5.6316">
        <ele>1367.3</ele>
        <time>2025-02-18T13:28:17</time>
      </trkpt>
      <trkpt lat="45.15942" lon="5.6316">
        <ele>1367.3</ele>
        <time>2025-02-18T13:28:19</time>
      </trkpt>
      <trkpt lat="45.15941" lon="5.6316">
        <ele>1367.3</ele>
        <time>2025-02-18T13:28:20</time>
      </trkpt>
      <trkpt lat="45.15941" lon="5.6316">
        <ele>1367.3</ele>
        <time>2025-02-18T13:28:21</time>
      </trkpt>
      <trkpt lat="45.1594" lon="5.6316">
        <ele>1367.3</ele>
        <time>2025-02-18T13:28:21</time>
      </trkpt>
      <trkpt lat="45.15939" lon="5.63161">
        <ele>1367.3</ele>
        <time>2025-02-18T13:28:22</time>
      </trkpt>
      <trkpt lat="45.15939" lon="5.63161">
        <ele>1367.3</ele>
        <time>2025-02-18T13:28:23</time>
      </trkpt>
      <trkpt lat="45.15938" lon="5.63161">
        <ele>1367.3</ele>
        <time>2025-02-18T13:28:24</time>
      </trkpt>
      <trkpt lat="45.15938" lon="5.63161">
        <ele>1367.3</ele>
        <time>2025-02-18T13:28:25</time>
      </trkpt>
      <trkpt lat="45.15937" lon="5.63162">
        <ele>1365</ele>
        <time>2025-02-18T13:28:28</time>
      </trkpt>
      <trkpt lat="45.15937" lon="5.63162">
        <ele>1365</ele>
        <time>2025-02-18T13:28:29</time>
      </trkpt>
      <trkpt lat="45.15938" lon="5.63162">
        <ele>1365</ele>
        <time>2025-02-18T13:28:31</time>
      </trkpt>
      <trkpt lat="45.15938" lon="5.63162">
        <ele>1365</ele>
        <time>2025-02-18T13:28:31</time>
      </trkpt>
      <trkpt lat="45.15938" lon="5.63162">
        <ele>1365</ele>
        <time>2025-02-18T13:28:32</time>
      </trkpt>
      <trkpt lat="45.15938" lon="5.63162">
        <ele>1365</ele>
        <time>2025-02-18T13:28:34</time>
      </trkpt>
      <trkpt lat="45.15938" lon="5.63162">
        <ele>1366.8</ele>
        <time>2025-02-18T13:28:34</time>
      </trkpt>
      <trkpt lat="45.15938" lon="5.63161">
        <ele>1366.8</ele>
        <time>2025-02-18T13:28:36</time>
      </trkpt>
      <trkpt lat="45.15938" lon="5.63161">
        <ele>1366.8</ele>
        <time>2025-02-18T13:28:37</time>
      </trkpt>
      <trkpt lat="45.15938" lon="5.63161">
        <ele>1366.8</ele>
        <time>2025-02-18T13:28:37</time>
      </trkpt>
      <trkpt lat="45.15938" lon="5.63162">
        <ele>1366.8</ele>
        <time>2025-02-18T13:28:38</time>
      </trkpt>
      <trkpt lat="45.15935" lon="5.63163">
        <ele>1366.8</ele>
        <time>2025-02-18T13:28:40</time>
      </trkpt>
      <trkpt lat="45.15934" lon="5.63164">
        <ele>1366.8</ele>
        <time>2025-02-18T13:28:41</time>
      </trkpt>
      <trkpt lat="45.15933" lon="5.63165">
        <ele>1366.8</ele>
        <time>2025-02-18T13:28:42</time>
      </trkpt>
      <trkpt lat="45.15933" lon="5.63165">
        <ele>1367.6</ele>
        <time>2025-02-18T13:28:43</time>
      </trkpt>
      <trkpt lat="45.15932" lon="5.63166">
        <ele>1367.6</ele>
        <time>2025-02-18T13:28:43</time>
      </trkpt>
      <trkpt lat="45.15931" lon="5.63166">
        <ele>1367.6</ele>
        <time>2025-02-18T13:28:45</time>
      </trkpt>
      <trkpt lat="45.15931" lon="5.63167">
        <ele>1367.6</ele>
        <time>2025-02-18T13:28:46</time>
      </trkpt>
      <trkpt lat="45.15931" lon="5.63167">
        <ele>1367.6</ele>
        <time>2025-02-18T13:28:47</time>
      </trkpt>
      <trkpt lat="45.1593" lon="5.63168">
        <ele>1367.6</ele>
        <time>2025-02-18T13:28:49</time>
      </trkpt>
      <trkpt lat="45.1593" lon="5.63169">
        <ele>1369.4</ele>
        <time>2025-02-18T13:28:51</time>
      </trkpt>
      <trkpt lat="45.15928" lon="5.6317">
        <ele>1369.4</ele>
        <time>2025-02-18T13:28:53</time>
      </trkpt>
      <trkpt lat="45.15927" lon="5.63171">
        <ele>1369.4</ele>
        <time>2025-02-18T13:28:56</time>
      </trkpt>
      <trkpt lat="45.15923" lon="5.63177">
        <ele>1370.7</ele>
        <time>2025-02-18T13:29:06</time>
      </trkpt>
      <trkpt lat="45.15923" lon="5.63178">
        <ele>1373.1</ele>
        <time>2025-02-18T13:29:07</time>
      </trkpt>
      <trkpt lat="45.15922" lon="5.63179">
        <ele>1373.1</ele>
        <time>2025-02-18T13:29:08</time>
      </trkpt>
      <trkpt lat="45.15922" lon="5.63181">
        <ele>1373.1</ele>
        <time>2025-02-18T13:29:10</time>
      </trkpt>
      <trkpt lat="45.15921" lon="5.63181">
        <ele>1373.1</ele>
        <time>2025-02-18T13:29:11</time>
      </trkpt>
      <trkpt lat="45.15921" lon="5.63182">
        <ele>1373.1</ele>
        <time>2025-02-18T13:29:12</time>
      </trkpt>
      <trkpt lat="45.15921" lon="5.63182">
        <ele>1373.1</ele>
        <time>2025-02-18T13:29:13</time>
      </trkpt>
      <trkpt lat="45.15921" lon="5.63182">
        <ele>1373.1</ele>
        <time>2025-02-18T13:29:13</time>
      </trkpt>
      <trkpt lat="45.15921" lon="5.63183">
        <ele>1373.1</ele>
        <time>2025-02-18T13:29:14</time>
      </trkpt>
      <trkpt lat="45.1592" lon="5.63183">
        <ele>1375.2</ele>
        <time>2025-02-18T13:29:17</time>
      </trkpt>
      <trkpt lat="45.1592" lon="5.63183">
        <ele>1375.2</ele>
        <time>2025-02-18T13:29:19</time>
      </trkpt>
      <trkpt lat="45.15919" lon="5.63184">
        <ele>1375.2</ele>
        <time>2025-02-18T13:29:20</time>
      </trkpt>
      <trkpt lat="45.15918" lon="5.63185">
        <ele>1378</ele>
        <time>2025-02-18T13:29:23</time>
      </trkpt>
      <trkpt lat="45.15918" lon="5.63185">
        <ele>1378</ele>
        <time>2025-02-18T13:29:25</time>
      </trkpt>
      <trkpt lat="45.15918" lon="5.63185">
        <ele>1378</ele>
        <time>2025-02-18T13:29:26</time>
      </trkpt>
      <trkpt lat="45.15918" lon="5.63187">
        <ele>1378</ele>
        <time>2025-02-18T13:29:28</time>
      </trkpt>
      <trkpt lat="45.15918" lon="5.63188">
        <ele>1378</ele>
        <time>2025-02-18T13:29:29</time>
      </trkpt>
      <trkpt lat="45.15918" lon="5.63189">
        <ele>1378</ele>
        <time>2025-02-18T13:29:29</time>
      </trkpt>
      <trkpt lat="45.15919" lon="5.63194">
        <ele>1378.6</ele>
        <time>2025-02-18T13:29:34</time>
      </trkpt>
      <trkpt lat="45.1592" lon="5.63195">
        <ele>1378.6</ele>
        <time>2025-02-18T13:29:36</time>
      </trkpt>
      <trkpt lat="45.1592" lon="5.63196">
        <ele>1378.6</ele>
        <time>2025-02-18T13:29:38</time>
      </trkpt>
      <trkpt lat="45.15919" lon="5.63197">
        <ele>1379.5667</ele>
        <time>2025-02-18T13:29:39</time>
      </trkpt>
      <trkpt lat="45.15918" lon="5.63198">
        <ele>1379.5667</ele>
        <time>2025-02-18T13:29:41</time>
      </trkpt>
      <trkpt lat="45.15918" lon="5.63199">
        <ele>1379.5667</ele>
        <time>2025-02-18T13:29:42</time>
      </trkpt>
      <trkpt lat="45.15917" lon="5.632">
        <ele>1379.5667</ele>
        <time>2025-02-18T13:29:43</time>
      </trkpt>
      <trkpt lat="45.15917" lon="5.63203">
        <ele>1381.2</ele>
        <time>2025-02-18T13:29:47</time>
      </trkpt>
      <trkpt lat="45.15917" lon="5.63204">
        <ele>1381.2</ele>
        <time>2025-02-18T13:29:48</time>
      </trkpt>
      <trkpt lat="45.15916" lon="5.63205">
        <ele>1381.2</ele>
        <time>2025-02-18T13:29:51</time>
      </trkpt>
      <trkpt lat="45.15916" lon="5.63206">
        <ele>1381.2</ele>
        <time>2025-02-18T13:29:53</time>
      </trkpt>
      <trkpt lat="45.15916" lon="5.63206">
        <ele>1381.2</ele>
        <time>2025-02-18T13:29:55</time>
      </trkpt>
      <trkpt lat="45.15916" lon="5.63207">
        <ele>1382.7</ele>
        <time>2025-02-18T13:29:56</time>
      </trkpt>
      <trkpt lat="45.15915" lon="5.63207">
        <ele>1382.7</ele>
        <time>2025-02-18T13:29:58</time>
      </trkpt>
      <trkpt lat="45.15915" lon="5.63207">
        <ele>1382.7</ele>
        <time>2025-02-18T13:29:58</time>
      </trkpt>
      <trkpt lat="45.15915" lon="5.63207">
        <ele>1382.7</ele>
        <time>2025-02-18T13:30:00</time>
      </trkpt>
      <trkpt lat="45.15915" lon="5.63211">
        <ele>1382.7</ele>
        <time>2025-02-18T13:30:03</time>
      </trkpt>
      <trkpt lat="45.15915" lon="5.63214">
        <ele>1384.2</ele>
        <time>2025-02-18T13:30:06</time>
      </trkpt>
      <trkpt lat="45.15915" lon="5.63215">
        <ele>1384.2</ele>
        <time>2025-02-18T13:30:07</time>
      </trkpt>
      <trkpt lat="45.15915" lon="5.63216">
        <ele>1384.2</ele>
        <time>2025-02-18T13:30:08</time>
      </trkpt>
      <trkpt lat="45.15915" lon="5.63218">
        <ele>1384.2</ele>
        <time>2025-02-18T13:30:10</time>
      </trkpt>
      <trkpt lat="45.15915" lon="5.63219">
        <ele>1384.2</ele>
        <time>2025-02-18T13:30:12</time>
      </trkpt>
      <trkpt lat="45.15915" lon="5.63221">
        <ele>1386.7</ele>
        <time>2025-02-18T13:30:13</time>
      </trkpt>
      <trkpt lat="45.15915" lon="5.63224">
        <ele>1386.7</ele>
        <time>2025-02-18T13:30:17</time>
      </trkpt>
      <trkpt lat="45.15915" lon="5.63224">
        <ele>1386.7</ele>
        <time>2025-02-18T13:30:17</time>
      </trkpt>
      <trkpt lat="45.15915" lon="5.63224">
        <ele>1386.7</ele>
        <time>2025-02-18T13:30:19</time>
      </trkpt>
      <trkpt lat="45.15914" lon="5.63224">
        <ele>1391.3</ele>
        <time>2025-02-18T13:30:20</time>
      </trkpt>
      <trkpt lat="45.15914" lon="5.63224">
        <ele>1391.3</ele>
        <time>2025-02-18T13:30:22</time>
      </trkpt>
      <trkpt lat="45.15915" lon="5.63224">
        <ele>1391.3</ele>
        <time>2025-02-18T13:30:23</time>
      </trkpt>
      <trkpt lat="45.15914" lon="5.63227">
        <ele>1391.3</ele>
        <time>2025-02-18T13:30:25</time>
      </trkpt>
      <trkpt lat="45.15914" lon="5.63228">
        <ele>1391.3</ele>
        <time>2025-02-18T13:30:26</time>
      </trkpt>
      <trkpt lat="45.15913" lon="5.63229">
        <ele>1391.3</ele>
        <time>2025-02-18T13:30:27</time>
      </trkpt>
      <trkpt lat="45.15913" lon="5.6323">
        <ele>1391.3</ele>
        <time>2025-02-18T13:30:28</time>
      </trkpt>
      <trkpt lat="45.15912" lon="5.63231">
        <ele>1391.3</ele>
        <time>2025-02-18T13:30:29</time>
      </trkpt>
      <trkpt lat="45.15912" lon="5.63232">
        <ele>1391.3</ele>
        <time>2025-02-18T13:30:30</time>
      </trkpt>
      <trkpt lat="45.15911" lon="5.63233">
        <ele>1391.3</ele>
        <time>2025-02-18T13:30:31</time>
      </trkpt>
      <trkpt lat="45.15911" lon="5.63233">
        <ele>1391.3</ele>
        <time>2025-02-18T13:30:31</time>
      </trkpt>
      <trkpt lat="45.15911" lon="5.63234">
        <ele>1391.3</ele>
        <time>2025-02-18T13:30:32</time>
      </trkpt>
      <trkpt lat="45.15911" lon="5.63235">
        <ele>1391.3</ele>
        <time>2025-02-18T13:30:33</time>
      </trkpt>
      <trkpt lat="45.15911" lon="5.63235">
        <ele>1391.3</ele>
        <time>2025-02-18T13:30:34</time>
      </trkpt>
      <trkpt lat="45.1591" lon="5.63235">
        <ele>1391.3</ele>
        <time>2025-02-18T13:30:35</time>
      </trkpt>
      <trkpt lat="45.1591" lon="5.63235">
        <ele>1391</ele>
        <time>2025-02-18T13:30:36</time>
      </trkpt>
      <trkpt lat="45.15909" lon="5.63235">
        <ele>1391</ele>
        <time>2025-02-18T13:30:37</time>
      </trkpt>
      <trkpt lat="45.15909" lon="5.63235">
        <ele>1391</ele>
        <time>2025-02-18T13:30:38</time>
      </trkpt>
      <trkpt lat="45.15909" lon="5.63235">
        <ele>1391</ele>
        <time>2025-02-18T13:30:38</time>
      </trkpt>
      <trkpt lat="45.15909" lon="5.63236">
        <ele>1391</ele>
        <time>2025-02-18T13:30:40</time>
      </trkpt>
      <trkpt lat="45.15908" lon="5.63236">
        <ele>1391</ele>
        <time>2025-02-18T13:30:41</time>
      </trkpt>
      <trkpt lat="45.15908" lon="5.63236">
        <ele>1391</ele>
        <time>2025-02-18T13:30:42</time>
      </trkpt>
      <trkpt lat="45.15908" lon="5.63237">
        <ele>1391</ele>
        <time>2025-02-18T13:30:43</time>
      </trkpt>
      <trkpt lat="45.15908" lon="5.63237">
        <ele>1391</ele>
        <time>2025-02-18T13:30:44</time>
      </trkpt>
      <trkpt lat="45.15908" lon="5.63237">
        <ele>1391.5</ele>
        <time>2025-02-18T13:30:46</time>
      </trkpt>
      <trkpt lat="45.15908" lon="5.63237">
        <ele>1391.5</ele>
        <time>2025-02-18T13:30:46</time>
      </trkpt>
      <trkpt lat="45.15908" lon="5.63237">
        <ele>1391.5</ele>
        <time>2025-02-18T13:30:47</time>
      </trkpt>
      <trkpt lat="45.15908" lon="5.63237">
        <ele>1391.5</ele>
        <time>2025-02-18T13:30:48</time>
      </trkpt>
      <trkpt lat="45.15908" lon="5.63237">
        <ele>1391.5</ele>
        <time>2025-02-18T13:30:49</time>
      </trkpt>
      <trkpt lat="45.15908" lon="5.63237">
        <ele>1391.4</ele>
        <time>2025-02-18T13:30:53</time>
      </trkpt>
      <trkpt lat="45.15908" lon="5.63237">
        <ele>1391.4</ele>
        <time>2025-02-18T13:30:55</time>
      </trkpt>
      <trkpt lat="45.15908" lon="5.63237">
        <ele>1391.4</ele>
        <time>2025-02-18T13:30:57</time>
      </trkpt>
      <trkpt lat="45.15908" lon="5.63237">
        <ele>1391.4</ele>
        <time>2025-02-18T13:30:59</time>
      </trkpt>
      <trkpt lat="45.15908" lon="5.63237">
        <ele>1391.4</ele>
        <time>2025-02-18T13:31:01</time>
      </trkpt>
      <trkpt lat="45.15908" lon="5.63237">
        <ele>1391.4</ele>
        <time>2025-02-18T13:31:03</time>
      </trkpt>
      <trkpt lat="45.15908" lon="5.63237">
        <ele>1391.4</ele>
        <time>2025-02-18T13:31:04</time>
      </trkpt>
      <trkpt lat="45.15904" lon="5.63243">
        <ele>1391.4</ele>
        <time>2025-02-18T13:31:06</time>
      </trkpt>
      <trkpt lat="45.15901" lon="5.63247">
        <ele>1391.4</ele>
        <time>2025-02-18T13:31:08</time>
      </trkpt>
      <trkpt lat="45.15901" lon="5.63247">
        <ele>1391.4</ele>
        <time>2025-02-18T13:31:09</time>
      </trkpt>
      <trkpt lat="45.15901" lon="5.63248">
        <ele>1391.4</ele>
        <time>2025-02-18T13:31:10</time>
      </trkpt>
      <trkpt lat="45.15901" lon="5.6325">
        <ele>1391.4</ele>
        <time>2025-02-18T13:31:14</time>
      </trkpt>
      <trkpt lat="45.15901" lon="5.6325">
        <ele>1391.4</ele>
        <time>2025-02-18T13:31:15</time>
      </trkpt>
      <trkpt lat="45.15901" lon="5.6325">
        <ele>1391.4</ele>
        <time>2025-02-18T13:31:16</time>
      </trkpt>
      <trkpt lat="45.15902" lon="5.6325">
        <ele>1391.4</ele>
        <time>2025-02-18T13:31:17</time>
      </trkpt>
      <trkpt lat="45.15902" lon="5.6325">
        <ele>1391.4</ele>
        <time>2025-02-18T13:31:18</time>
      </trkpt>
      <trkpt lat="45.15902" lon="5.6325">
        <ele>1391.4</ele>
        <time>2025-02-18T13:31:19</time>
      </trkpt>
      <trkpt lat="45.15902" lon="5.6325">
        <ele>1391.4</ele>
        <time>2025-02-18T13:31:20</time>
      </trkpt>
      <trkpt lat="45.15902" lon="5.6325">
        <ele>1397.8334</ele>
        <time>2025-02-18T13:31:21</time>
      </trkpt>
      <trkpt lat="45.15902" lon="5.6325">
        <ele>1397.8334</ele>
        <time>2025-02-18T13:31:22</time>
      </trkpt>
      <trkpt lat="45.15902" lon="5.6325">
        <ele>1397.8334</ele>
        <time>2025-02-18T13:31:24</time>
      </trkpt>
      <trkpt lat="45.15902" lon="5.6325">
        <ele>1397.8334</ele>
        <time>2025-02-18T13:31:25</time>
      </trkpt>
      <trkpt lat="45.15902" lon="5.6325">
        <ele>1397.8334</ele>
        <time>2025-02-18T13:31:26</time>
      </trkpt>
      <trkpt lat="45.15902" lon="5.6325">
        <ele>1397.8334</ele>
        <time>2025-02-18T13:31:28</time>
      </trkpt>
      <trkpt lat="45.15902" lon="5.6325">
        <ele>1397.8334</ele>
        <time>2025-02-18T13:31:29</time>
      </trkpt>
      <trkpt lat="45.15902" lon="5.6325">
        <ele>1398.3</ele>
        <time>2025-02-18T13:31:30</time>
      </trkpt>
      <trkpt lat="45.15902" lon="5.63251">
        <ele>1398.3</ele>
        <time>2025-02-18T13:31:32</time>
      </trkpt>
      <trkpt lat="45.15902" lon="5.63253">
        <ele>1398.3</ele>
        <time>2025-02-18T13:31:33</time>
      </trkpt>
      <trkpt lat="45.15902" lon="5.63258">
        <ele>1398.3</ele>
        <time>2025-02-18T13:31:36</time>
      </trkpt>
      <trkpt lat="45.15902" lon="5.63259">
        <ele>1398.3</ele>
        <time>2025-02-18T13:31:37</time>
      </trkpt>
      <trkpt lat="45.15902" lon="5.63259">
        <ele>1399.6666</ele>
        <time>2025-02-18T13:31:38</time>
      </trkpt>
      <trkpt lat="45.15902" lon="5.6326">
        <ele>1399.6666</ele>
        <time>2025-02-18T13:31:40</time>
      </trkpt>
      <trkpt lat="45.15902" lon="5.63261">
        <ele>1399.6666</ele>
        <time>2025-02-18T13:31:42</time>
      </trkpt>
      <trkpt lat="45.15902" lon="5.63262">
        <ele>1399.6666</ele>
        <time>2025-02-18T13:31:43</time>
      </trkpt>
      <trkpt lat="45.15902" lon="5.63262">
        <ele>1399.6666</ele>
        <time>2025-02-18T13:31:44</time>
      </trkpt>
      <trkpt lat="45.15902" lon="5.63262">
        <ele>1399.6666</ele>
        <time>2025-02-18T13:31:45</time>
      </trkpt>
      <trkpt lat="45.15902" lon="5.63263">
        <ele>1403.0333</ele>
        <time>2025-02-18T13:31:46</time>
      </trkpt>
      <trkpt lat="45.15902" lon="5.63263">
        <ele>1403.0333</ele>
        <time>2025-02-18T13:31:46</time>
      </trkpt>
      <trkpt lat="45.15903" lon="5.63263">
        <ele>1403.0333</ele>
        <time>2025-02-18T13:31:47</time>
      </trkpt>
      <trkpt lat="45.15903" lon="5.63264">
        <ele>1403.0333</ele>
        <time>2025-02-18T13:31:48</time>
      </trkpt>
      <trkpt lat="45.15903" lon="5.63264">
        <ele>1403.0333</ele>
        <time>2025-02-18T13:31:48</time>
      </trkpt>
      <trkpt lat="45.15903" lon="5.63264">
        <ele>1403.0333</ele>
        <time>2025-02-18T13:31:49</time>
      </trkpt>
      <trkpt lat="45.15905" lon="5.63269">
        <ele>1404.3</ele>
        <time>2025-02-18T13:31:53</time>
      </trkpt>
      <trkpt lat="45.15906" lon="5.63271">
        <ele>1404.3</ele>
        <time>2025-02-18T13:31:55</time>
      </trkpt>
      <trkpt lat="45.15905" lon="5.63275">
        <ele>1404.3</ele>
        <time>2025-02-18T13:32:01</time>
      </trkpt>
      <trkpt lat="45.15905" lon="5.63276">
        <ele>1407.2</ele>
        <time>2025-02-18T13:32:02</time>
      </trkpt>
      <trkpt lat="45.15905" lon="5.63282">
        <ele>1407.2</ele>
        <time>2025-02-18T13:32:10</time>
      </trkpt>
      <trkpt lat="45.15906" lon="5.63283">
        <ele>1408.6</ele>
        <time>2025-02-18T13:32:12</time>
      </trkpt>
      <trkpt lat="45.15906" lon="5.63283">
        <ele>1408.6</ele>
        <time>2025-02-18T13:32:13</time>
      </trkpt>
      <trkpt lat="45.15906" lon="5.63285">
        <ele>1408.6</ele>
        <time>2025-02-18T13:32:15</time>
      </trkpt>
      <trkpt lat="45.15906" lon="5.63286">
        <ele>1408.6</ele>
        <time>2025-02-18T13:32:16</time>
      </trkpt>
      <trkpt lat="45.15907" lon="5.63288">
        <ele>1408.6</ele>
        <time>2025-02-18T13:32:18</time>
      </trkpt>
      <trkpt lat="45.15907" lon="5.63288">
        <ele>1409.8</ele>
        <time>2025-02-18T13:32:19</time>
      </trkpt>
      <trkpt lat="45.15907" lon="5.63288">
        <ele>1409.8</ele>
        <time>2025-02-18T13:32:19</time>
      </trkpt>
      <trkpt lat="45.15907" lon="5.63287">
        <ele>1409.8</ele>
        <time>2025-02-18T13:32:20</time>
      </trkpt>
      <trkpt lat="45.15906" lon="5.63287">
        <ele>1409.8</ele>
        <time>2025-02-18T13:32:21</time>
      </trkpt>
      <trkpt lat="45.15906" lon="5.63288">
        <ele>1409.8</ele>
        <time>2025-02-18T13:32:22</time>
      </trkpt>
      <trkpt lat="45.15906" lon="5.63289">
        <ele>1409.8</ele>
        <time>2025-02-18T13:32:23</time>
      </trkpt>
      <trkpt lat="45.15905" lon="5.63293">
        <ele>1409.8</ele>
        <time>2025-02-18T13:32:25</time>
      </trkpt>
      <trkpt lat="45.15904" lon="5.63294">
        <ele>1412</ele>
        <time>2025-02-18T13:32:26</time>
      </trkpt>
      <trkpt lat="45.15905" lon="5.63295">
        <ele>1412</ele>
        <time>2025-02-18T13:32:27</time>
      </trkpt>
      <trkpt lat="45.15905" lon="5.63296">
        <ele>1412</ele>
        <time>2025-02-18T13:32:29</time>
      </trkpt>
      <trkpt lat="45.15905" lon="5.63296">
        <ele>1412</ele>
        <time>2025-02-18T13:32:30</time>
      </trkpt>
      <trkpt lat="45.15905" lon="5.63296">
        <ele>1412</ele>
        <time>2025-02-18T13:32:31</time>
      </trkpt>
      <trkpt lat="45.15905" lon="5.63296">
        <ele>1412</ele>
        <time>2025-02-18T13:32:32</time>
      </trkpt>
      <trkpt lat="45.15906" lon="5.63295">
        <ele>1412</ele>
        <time>2025-02-18T13:32:34</time>
      </trkpt>
      <trkpt lat="45.15907" lon="5.63295">
        <ele>1413.3</ele>
        <time>2025-02-18T13:32:34</time>
      </trkpt>
      <trkpt lat="45.15907" lon="5.63295">
        <ele>1413.3</ele>
        <time>2025-02-18T13:32:35</time>
      </trkpt>
      <trkpt lat="45.15908" lon="5.63295">
        <ele>1413.3</ele>
        <time>2025-02-18T13:32:36</time>
      </trkpt>
      <trkpt lat="45.15909" lon="5.63295">
        <ele>1413.3</ele>
        <time>2025-02-18T13:32:37</time>
      </trkpt>
      <trkpt lat="45.15919" lon="5.63304">
        <ele>1413.1</ele>
        <time>2025-02-18T13:32:51</time>
      </trkpt>
      <trkpt lat="45.1592" lon="5.63305">
        <ele>1413.1</ele>
        <time>2025-02-18T13:32:52</time>
      </trkpt>
      <trkpt lat="45.1592" lon="5.63305">
        <ele>1413.1</ele>
        <time>2025-02-18T13:32:53</time>
      </trkpt>
      <trkpt lat="45.1592" lon="5.63304">
        <ele>1413.1</ele>
        <time>2025-02-18T13:32:54</time>
      </trkpt>
      <trkpt lat="45.1592" lon="5.63304">
        <ele>1413.1</ele>
        <time>2025-02-18T13:32:56</time>
      </trkpt>
      <trkpt lat="45.15919" lon="5.63304">
        <ele>1413.1</ele>
        <time>2025-02-18T13:32:57</time>
      </trkpt>
      <trkpt lat="45.15919" lon="5.63305">
        <ele>1413.1</ele>
        <time>2025-02-18T13:32:58</time>
      </trkpt>
      <trkpt lat="45.1592" lon="5.63305">
        <ele>1413.7</ele>
        <time>2025-02-18T13:32:59</time>
      </trkpt>
      <trkpt lat="45.1592" lon="5.63306">
        <ele>1413.7</ele>
        <time>2025-02-18T13:33:00</time>
      </trkpt>
      <trkpt lat="45.15921" lon="5.63306">
        <ele>1413.7</ele>
        <time>2025-02-18T13:33:01</time>
      </trkpt>
      <trkpt lat="45.15921" lon="5.63306">
        <ele>1413.7</ele>
        <time>2025-02-18T13:33:01</time>
      </trkpt>
      <trkpt lat="45.15921" lon="5.63306">
        <ele>1413.7</ele>
        <time>2025-02-18T13:33:02</time>
      </trkpt>
      <trkpt lat="45.15922" lon="5.63307">
        <ele>1413.7</ele>
        <time>2025-02-18T13:33:03</time>
      </trkpt>
      <trkpt lat="45.15923" lon="5.63308">
        <ele>1413.7</ele>
        <time>2025-02-18T13:33:05</time>
      </trkpt>
      <trkpt lat="45.15924" lon="5.63309">
        <ele>1413.9</ele>
        <time>2025-02-18T13:33:07</time>
      </trkpt>
      <trkpt lat="45.15925" lon="5.63309">
        <ele>1413.9</ele>
        <time>2025-02-18T13:33:10</time>
      </trkpt>
      <trkpt lat="45.15926" lon="5.63309">
        <ele>1413.9</ele>
        <time>2025-02-18T13:33:11</time>
      </trkpt>
      <trkpt lat="45.15927" lon="5.63309">
        <ele>1413.9</ele>
        <time>2025-02-18T13:33:12</time>
      </trkpt>
      <trkpt lat="45.15928" lon="5.63309">
        <ele>1413.9</ele>
        <time>2025-02-18T13:33:13</time>
      </trkpt>
      <trkpt lat="45.15928" lon="5.63309">
        <ele>1415.3</ele>
        <time>2025-02-18T13:33:14</time>
      </trkpt>
      <trkpt lat="45.15929" lon="5.63309">
        <ele>1415.3</ele>
        <time>2025-02-18T13:33:15</time>
      </trkpt>
      <trkpt lat="45.15928" lon="5.63309">
        <ele>1415.3</ele>
        <time>2025-02-18T13:33:21</time>
      </trkpt>
      <trkpt lat="45.15928" lon="5.63309">
        <ele>1416.2</ele>
        <time>2025-02-18T13:33:29</time>
      </trkpt>
      <trkpt lat="45.15928" lon="5.63309">
        <ele>1416.2</ele>
        <time>2025-02-18T13:33:30</time>
      </trkpt>
      <trkpt lat="45.15928" lon="5.63309">
        <ele>1416.2</ele>
        <time>2025-02-18T13:33:32</time>
      </trkpt>
      <trkpt lat="45.15928" lon="5.63309">
        <ele>1416.2</ele>
        <time>2025-02-18T13:33:35</time>
      </trkpt>
      <trkpt lat="45.15926" lon="5.63311">
        <ele>1416.2</ele>
        <time>2025-02-18T13:33:47</time>
      </trkpt>
      <trkpt lat="45.15927" lon="5.6331">
        <ele>1416.2</ele>
        <time>2025-02-18T13:33:48</time>
      </trkpt>
      <trkpt lat="45.15927" lon="5.6331">
        <ele>1416.2</ele>
        <time>2025-02-18T13:33:48</time>
      </trkpt>
      <trkpt lat="45.15927" lon="5.63311">
        <ele>1416.2</ele>
        <time>2025-02-18T13:33:49</time>
      </trkpt>
      <trkpt lat="45.15927" lon="5.63311">
        <ele>1416.2</ele>
        <time>2025-02-18T13:33:50</time>
      </trkpt>
      <trkpt lat="45.15927" lon="5.63312">
        <ele>1416.2</ele>
        <time>2025-02-18T13:33:51</time>
      </trkpt>
      <trkpt lat="45.15931" lon="5.63314">
        <ele>1416.2</ele>
        <time>2025-02-18T13:33:54</time>
      </trkpt>
      <trkpt lat="45.15932" lon="5.63314">
        <ele>1416.2</ele>
        <time>2025-02-18T13:33:55</time>
      </trkpt>
      <trkpt lat="45.15936" lon="5.63315">
        <ele>1416.2</ele>
        <time>2025-02-18T13:33:59</time>
      </trkpt>
      <trkpt lat="45.15937" lon="5.63316">
        <ele>1415.6</ele>
        <time>2025-02-18T13:34:00</time>
      </trkpt>
      <trkpt lat="45.15941" lon="5.63316">
        <ele>1415.6</ele>
        <time>2025-02-18T13:34:05</time>
      </trkpt>
      <trkpt lat="45.15944" lon="5.63316">
        <ele>1416.7</ele>
        <time>2025-02-18T13:34:09</time>
      </trkpt>
      <trkpt lat="45.15947" lon="5.63316">
        <ele>1416.7</ele>
        <time>2025-02-18T13:34:11</time>
      </trkpt>
      <trkpt lat="45.15953" lon="5.63316">
        <ele>1418</ele>
        <time>2025-02-18T13:34:19</time>
      </trkpt>
      <trkpt lat="45.15954" lon="5.63316">
        <ele>1418</ele>
        <time>2025-02-18T13:34:20</time>
      </trkpt>
      <trkpt lat="45.15957" lon="5.63315">
        <ele>1421</ele>
        <time>2025-02-18T13:34:23</time>
      </trkpt>
      <trkpt lat="45.1596" lon="5.63315">
        <ele>1421</ele>
        <time>2025-02-18T13:34:27</time>
      </trkpt>
      <trkpt lat="45.15964" lon="5.63316">
        <ele>1425.2</ele>
        <time>2025-02-18T13:34:32</time>
      </trkpt>
      <trkpt lat="45.15966" lon="5.63317">
        <ele>1425.2</ele>
        <time>2025-02-18T13:34:35</time>
      </trkpt>
      <trkpt lat="45.15967" lon="5.63317">
        <ele>1425.2</ele>
        <time>2025-02-18T13:34:35</time>
      </trkpt>
      <trkpt lat="45.15968" lon="5.63317">
        <ele>1427.9333</ele>
        <time>2025-02-18T13:34:37</time>
      </trkpt>
      <trkpt lat="45.15971" lon="5.63319">
        <ele>1427.9333</ele>
        <time>2025-02-18T13:34:42</time>
      </trkpt>
      <trkpt lat="45.15972" lon="5.6332">
        <ele>1427.9333</ele>
        <time>2025-02-18T13:34:44</time>
      </trkpt>
      <trkpt lat="45.15974" lon="5.63321">
        <ele>1428.8</ele>
        <time>2025-02-18T13:34:47</time>
      </trkpt>
      <trkpt lat="45.15976" lon="5.63323">
        <ele>1428.8</ele>
        <time>2025-02-18T13:34:50</time>
      </trkpt>
      <trkpt lat="45.15976" lon="5.63324">
        <ele>1428.8</ele>
        <time>2025-02-18T13:34:50</time>
      </trkpt>
      <trkpt lat="45.15979" lon="5.63327">
        <ele>1433</ele>
        <time>2025-02-18T13:34:55</time>
      </trkpt>
      <trkpt lat="45.1598" lon="5.63327">
        <ele>1433</ele>
        <time>2025-02-18T13:34:57</time>
      </trkpt>
      <trkpt lat="45.15986" lon="5.6333">
        <ele>1433.7333</ele>
        <time>2025-02-18T13:35:04</time>
      </trkpt>
      <trkpt lat="45.15987" lon="5.63331">
        <ele>1433.7333</ele>
        <time>2025-02-18T13:35:06</time>
      </trkpt>
      <trkpt lat="45.15989" lon="5.63334">
        <ele>1435.5</ele>
        <time>2025-02-18T13:35:09</time>
      </trkpt>
      <trkpt lat="45.1599" lon="5.63336">
        <ele>1435.5</ele>
        <time>2025-02-18T13:35:11</time>
      </trkpt>
      <trkpt lat="45.15992" lon="5.63337">
        <ele>1435.5</ele>
        <time>2025-02-18T13:35:13</time>
      </trkpt>
      <trkpt lat="45.15996" lon="5.6334">
        <ele>1435.9</ele>
        <time>2025-02-18T13:35:18</time>
      </trkpt>
      <trkpt lat="45.15997" lon="5.6334">
        <ele>1435.9</ele>
        <time>2025-02-18T13:35:20</time>
      </trkpt>
      <trkpt lat="45.15999" lon="5.63341">
        <ele>1436.7667</ele>
        <time>2025-02-18T13:35:24</time>
      </trkpt>
      <trkpt lat="45.16" lon="5.63342">
        <ele>1436.7667</ele>
        <time>2025-02-18T13:35:25</time>
      </trkpt>
      <trkpt lat="45.16001" lon="5.63344">
        <ele>1436.7667</ele>
        <time>2025-02-18T13:35:28</time>
      </trkpt>
      <trkpt lat="45.16002" lon="5.63344">
        <ele>1436.7667</ele>
        <time>2025-02-18T13:35:30</time>
      </trkpt>
      <trkpt lat="45.16005" lon="5.63347">
        <ele>1438</ele>
        <time>2025-02-18T13:35:35</time>
      </trkpt>
      <trkpt lat="45.16006" lon="5.63347">
        <ele>1438</ele>
        <time>2025-02-18T13:35:37</time>
      </trkpt>
      <trkpt lat="45.16007" lon="5.63348">
        <ele>1439.8</ele>
        <time>2025-02-18T13:35:38</time>
      </trkpt>
      <trkpt lat="45.16008" lon="5.63349">
        <ele>1439.8</ele>
        <time>2025-02-18T13:35:40</time>
      </trkpt>
      <trkpt lat="45.16009" lon="5.6335">
        <ele>1439.8</ele>
        <time>2025-02-18T13:35:41</time>
      </trkpt>
      <trkpt lat="45.1601" lon="5.63353">
        <ele>1439.8</ele>
        <time>2025-02-18T13:35:44</time>
      </trkpt>
      <trkpt lat="45.16012" lon="5.63354">
        <ele>1440.8</ele>
        <time>2025-02-18T13:35:46</time>
      </trkpt>
      <trkpt lat="45.16012" lon="5.63354">
        <ele>1440.8</ele>
        <time>2025-02-18T13:35:47</time>
      </trkpt>
      <trkpt lat="45.16013" lon="5.63355">
        <ele>1440.8</ele>
        <time>2025-02-18T13:35:48</time>
      </trkpt>
      <trkpt lat="45.16015" lon="5.63358">
        <ele>1440.8</ele>
        <time>2025-02-18T13:35:51</time>
      </trkpt>
      <trkpt lat="45.16016" lon="5.63362">
        <ele>1441.4</ele>
        <time>2025-02-18T13:35:55</time>
      </trkpt>
      <trkpt lat="45.16016" lon="5.63364">
        <ele>1441.4</ele>
        <time>2025-02-18T13:35:57</time>
      </trkpt>
      <trkpt lat="45.16017" lon="5.63366">
        <ele>1441.4</ele>
        <time>2025-02-18T13:35:59</time>
      </trkpt>
      <trkpt lat="45.16018" lon="5.63368">
        <ele>1441.4</ele>
        <time>2025-02-18T13:36:02</time>
      </trkpt>
      <trkpt lat="45.16019" lon="5.6337">
        <ele>1441.8</ele>
        <time>2025-02-18T13:36:06</time>
      </trkpt>
      <trkpt lat="45.1602" lon="5.63371">
        <ele>1441.8</ele>
        <time>2025-02-18T13:36:06</time>
      </trkpt>
      <trkpt lat="45.1602" lon="5.63372">
        <ele>1441.8</ele>
        <time>2025-02-18T13:36:07</time>
      </trkpt>
      <trkpt lat="45.16019" lon="5.63373">
        <ele>1441.8</ele>
        <time>2025-02-18T13:36:09</time>
      </trkpt>
      <trkpt lat="45.1602" lon="5.63374">
        <ele>1442.3</ele>
        <time>2025-02-18T13:36:11</time>
      </trkpt>
      <trkpt lat="45.1602" lon="5.63375">
        <ele>1442.3</ele>
        <time>2025-02-18T13:36:12</time>
      </trkpt>
      <trkpt lat="45.1602" lon="5.63375">
        <ele>1442.3</ele>
        <time>2025-02-18T13:36:13</time>
      </trkpt>
      <trkpt lat="45.1602" lon="5.63376">
        <ele>1442.3</ele>
        <time>2025-02-18T13:36:14</time>
      </trkpt>
      <trkpt lat="45.1602" lon="5.63376">
        <ele>1442.3</ele>
        <time>2025-02-18T13:36:14</time>
      </trkpt>
      <trkpt lat="45.1602" lon="5.63377">
        <ele>1442.3</ele>
        <time>2025-02-18T13:36:15</time>
      </trkpt>
      <trkpt lat="45.16019" lon="5.63377">
        <ele>1442.3</ele>
        <time>2025-02-18T13:36:16</time>
      </trkpt>
      <trkpt lat="45.16019" lon="5.63377">
        <ele>1442.3</ele>
        <time>2025-02-18T13:36:17</time>
      </trkpt>
      <trkpt lat="45.16019" lon="5.63378">
        <ele>1444.9</ele>
        <time>2025-02-18T13:36:20</time>
      </trkpt>
      <trkpt lat="45.16018" lon="5.63379">
        <ele>1444.9</ele>
        <time>2025-02-18T13:36:21</time>
      </trkpt>
      <trkpt lat="45.16018" lon="5.6338">
        <ele>1444.9</ele>
        <time>2025-02-18T13:36:22</time>
      </trkpt>
      <trkpt lat="45.16018" lon="5.63384">
        <ele>1444.9</ele>
        <time>2025-02-18T13:36:25</time>
      </trkpt>
      <trkpt lat="45.16017" lon="5.63385">
        <ele>1444.9</ele>
        <time>2025-02-18T13:36:26</time>
      </trkpt>
      <trkpt lat="45.16016" lon="5.63385">
        <ele>1443.9</ele>
        <time>2025-02-18T13:36:27</time>
      </trkpt>
      <trkpt lat="45.16016" lon="5.63385">
        <ele>1443.9</ele>
        <time>2025-02-18T13:36:28</time>
      </trkpt>
      <trkpt lat="45.16017" lon="5.63385">
        <ele>1443.9</ele>
        <time>2025-02-18T13:36:30</time>
      </trkpt>
      <trkpt lat="45.16017" lon="5.63385">
        <ele>1443.9</ele>
        <time>2025-02-18T13:36:31</time>
      </trkpt>
      <trkpt lat="45.16017" lon="5.63385">
        <ele>1443.9</ele>
        <time>2025-02-18T13:36:32</time>
      </trkpt>
      <trkpt lat="45.16017" lon="5.63384">
        <ele>1443.9</ele>
        <time>2025-02-18T13:36:33</time>
      </trkpt>
      <trkpt lat="45.16017" lon="5.63384">
        <ele>1443.9</ele>
        <time>2025-02-18T13:36:34</time>
      </trkpt>
      <trkpt lat="45.16017" lon="5.63384">
        <ele>1443.9</ele>
        <time>2025-02-18T13:36:35</time>
      </trkpt>
      <trkpt lat="45.16017" lon="5.63384">
        <ele>1443.9</ele>
        <time>2025-02-18T13:36:36</time>
      </trkpt>
      <trkpt lat="45.16017" lon="5.63384">
        <ele>1445.2</ele>
        <time>2025-02-18T13:36:40</time>
      </trkpt>
      <trkpt lat="45.16017" lon="5.63384">
        <ele>1445.2</ele>
        <time>2025-02-18T13:36:41</time>
      </trkpt>
      <trkpt lat="45.16017" lon="5.63384">
        <ele>1445.2</ele>
        <time>2025-02-18T13:36:42</time>
      </trkpt>
      <trkpt lat="45.16017" lon="5.63384">
        <ele>1445.2</ele>
        <time>2025-02-18T13:36:43</time>
      </trkpt>
      <trkpt lat="45.16017" lon="5.63384">
        <ele>1445.2</ele>
        <time>2025-02-18T13:36:44</time>
      </trkpt>
      <trkpt lat="45.16017" lon="5.63384">
        <ele>1445.2</ele>
        <time>2025-02-18T13:36:46</time>
      </trkpt>
      <trkpt lat="45.16017" lon="5.63384">
        <ele>1445.6</ele>
        <time>2025-02-18T13:36:47</time>
      </trkpt>
      <trkpt lat="45.16017" lon="5.63384">
        <ele>1445.6</ele>
        <time>2025-02-18T13:36:52</time>
      </trkpt>
      <trkpt lat="45.16017" lon="5.63384">
        <ele>1445.6</ele>
        <time>2025-02-18T13:37:38</time>
      </trkpt>
      <trkpt lat="45.16017" lon="5.63384">
        <ele>1445.6</ele>
        <time>2025-02-18T13:37:39</time>
      </trkpt>
      <trkpt lat="45.16017" lon="5.63384">
        <ele>1445.6</ele>
        <time>2025-02-18T13:37:40</time>
      </trkpt>
      <trkpt lat="45.16017" lon="5.63383">
        <ele>1445.6</ele>
        <time>2025-02-18T13:37:41</time>
      </trkpt>
      <trkpt lat="45.16013" lon="5.63385">
        <ele>1445.6</ele>
        <time>2025-02-18T13:37:41</time>
      </trkpt>
      <trkpt lat="45.1601" lon="5.63386">
        <ele>1445.6</ele>
        <time>2025-02-18T13:37:42</time>
      </trkpt>
      <trkpt lat="45.16008" lon="5.63387">
        <ele>1445.6</ele>
        <time>2025-02-18T13:37:43</time>
      </trkpt>
      <trkpt lat="45.16007" lon="5.63388">
        <ele>1445.6</ele>
        <time>2025-02-18T13:37:43</time>
      </trkpt>
      <trkpt lat="45.16007" lon="5.6339">
        <ele>1445.6</ele>
        <time>2025-02-18T13:37:45</time>
      </trkpt>
      <trkpt lat="45.16006" lon="5.6339">
        <ele>1445.6</ele>
        <time>2025-02-18T13:37:46</time>
      </trkpt>
      <trkpt lat="45.16003" lon="5.63392">
        <ele>1445.6</ele>
        <time>2025-02-18T13:37:50</time>
      </trkpt>
      <trkpt lat="45.16001" lon="5.63394">
        <ele>1454.5</ele>
        <time>2025-02-18T13:37:54</time>
      </trkpt>
      <trkpt lat="45.15997" lon="5.634">
        <ele>1453.8334</ele>
        <time>2025-02-18T13:38:07</time>
      </trkpt>
      <trkpt lat="45.15996" lon="5.63401">
        <ele>1453.8334</ele>
        <time>2025-02-18T13:38:09</time>
      </trkpt>
      <trkpt lat="45.15994" lon="5.63402">
        <ele>1453.8334</ele>
        <time>2025-02-18T13:38:11</time>
      </trkpt>
      <trkpt lat="45.15994" lon="5.63402">
        <ele>1453.8334</ele>
        <time>2025-02-18T13:38:11</time>
      </trkpt>
      <trkpt lat="45.15993" lon="5.63402">
        <ele>1453.8334</ele>
        <time>2025-02-18T13:38:12</time>
      </trkpt>
      <trkpt lat="45.15993" lon="5.63402">
        <ele>1453.8334</ele>
        <time>2025-02-18T13:38:13</time>
      </trkpt>
      <trkpt lat="45.15992" lon="5.63402">
        <ele>1453.8334</ele>
        <time>2025-02-18T13:38:14</time>
      </trkpt>
      <trkpt lat="45.15991" lon="5.63403">
        <ele>1453.4</ele>
        <time>2025-02-18T13:38:15</time>
      </trkpt>
      <trkpt lat="45.15988" lon="5.63404">
        <ele>1453.4</ele>
        <time>2025-02-18T13:38:19</time>
      </trkpt>
      <trkpt lat="45.15986" lon="5.63405">
        <ele>1451.6</ele>
        <time>2025-02-18T13:38:22</time>
      </trkpt>
      <trkpt lat="45.15986" lon="5.63406">
        <ele>1451.6</ele>
        <time>2025-02-18T13:38:23</time>
      </trkpt>
      <trkpt lat="45.15986" lon="5.63406">
        <ele>1451.6</ele>
        <time>2025-02-18T13:38:23</time>
      </trkpt>
      <trkpt lat="45.15985" lon="5.63408">
        <ele>1451.6</ele>
        <time>2025-02-18T13:38:26</time>
      </trkpt>
      <trkpt lat="45.15982" lon="5.63412">
        <ele>1452.7</ele>
        <time>2025-02-18T13:38:32</time>
      </trkpt>
      <trkpt lat="45.15981" lon="5.63413">
        <ele>1452.7</ele>
        <time>2025-02-18T13:38:35</time>
      </trkpt>
      <trkpt lat="45.15981" lon="5.63415">
        <ele>1454.1</ele>
        <time>2025-02-18T13:38:36</time>
      </trkpt>
      <trkpt lat="45.15981" lon="5.63415">
        <ele>1454.1</ele>
        <time>2025-02-18T13:38:37</time>
      </trkpt>
      <trkpt lat="45.15982" lon="5.63416">
        <ele>1454.1</ele>
        <time>2025-02-18T13:38:39</time>
      </trkpt>
      <trkpt lat="45.15982" lon="5.63416">
        <ele>1454.1</ele>
        <time>2025-02-18T13:38:39</time>
      </trkpt>
      <trkpt lat="45.15982" lon="5.63417">
        <ele>1454.1</ele>
        <time>2025-02-18T13:38:40</time>
      </trkpt>
      <trkpt lat="45.15981" lon="5.63417">
        <ele>1454.1</ele>
        <time>2025-02-18T13:38:41</time>
      </trkpt>
      <trkpt lat="45.15981" lon="5.63417">
        <ele>1454.1</ele>
        <time>2025-02-18T13:38:42</time>
      </trkpt>
      <trkpt lat="45.1598" lon="5.63418">
        <ele>1456.1</ele>
        <time>2025-02-18T13:38:44</time>
      </trkpt>
      <trkpt lat="45.15979" lon="5.63419">
        <ele>1456.1</ele>
        <time>2025-02-18T13:38:47</time>
      </trkpt>
      <trkpt lat="45.15978" lon="5.6342">
        <ele>1456.1</ele>
        <time>2025-02-18T13:38:48</time>
      </trkpt>
      <trkpt lat="45.15979" lon="5.6342">
        <ele>1456.1</ele>
        <time>2025-02-18T13:38:48</time>
      </trkpt>
      <trkpt lat="45.15979" lon="5.63421">
        <ele>1456.1</ele>
        <time>2025-02-18T13:38:49</time>
      </trkpt>
      <trkpt lat="45.15979" lon="5.63421">
        <ele>1456.1</ele>
        <time>2025-02-18T13:38:50</time>
      </trkpt>
      <trkpt lat="45.15979" lon="5.63421">
        <ele>1456.1666</ele>
        <time>2025-02-18T13:38:51</time>
      </trkpt>
      <trkpt lat="45.15979" lon="5.63422">
        <ele>1456.1666</ele>
        <time>2025-02-18T13:38:51</time>
      </trkpt>
      <trkpt lat="45.15977" lon="5.63422">
        <ele>1456.1666</ele>
        <time>2025-02-18T13:38:53</time>
      </trkpt>
      <trkpt lat="45.15977" lon="5.63422">
        <ele>1456.1666</ele>
        <time>2025-02-18T13:38:54</time>
      </trkpt>
      <trkpt lat="45.15977" lon="5.63422">
        <ele>1456.1666</ele>
        <time>2025-02-18T13:38:55</time>
      </trkpt>
      <trkpt lat="45.15977" lon="5.63423">
        <ele>1456.1666</ele>
        <time>2025-02-18T13:38:55</time>
      </trkpt>
      <trkpt lat="45.15977" lon="5.63424">
        <ele>1456.1666</ele>
        <time>2025-02-18T13:38:57</time>
      </trkpt>
      <trkpt lat="45.15977" lon="5.63425">
        <ele>1456.1666</ele>
        <time>2025-02-18T13:38:58</time>
      </trkpt>
      <trkpt lat="45.15977" lon="5.63427">
        <ele>1456.8</ele>
        <time>2025-02-18T13:39:00</time>
      </trkpt>
      <trkpt lat="45.15976" lon="5.63428">
        <ele>1456.8</ele>
        <time>2025-02-18T13:39:03</time>
      </trkpt>
      <trkpt lat="45.15976" lon="5.63429">
        <ele>1456.8</ele>
        <time>2025-02-18T13:39:04</time>
      </trkpt>
      <trkpt lat="45.15976" lon="5.6343">
        <ele>1458</ele>
        <time>2025-02-18T13:39:06</time>
      </trkpt>
      <trkpt lat="45.15976" lon="5.6343">
        <ele>1458</ele>
        <time>2025-02-18T13:39:07</time>
      </trkpt>
      <trkpt lat="45.15976" lon="5.6343">
        <ele>1458</ele>
        <time>2025-02-18T13:39:09</time>
      </trkpt>
      <trkpt lat="45.15976" lon="5.6343">
        <ele>1458</ele>
        <time>2025-02-18T13:39:11</time>
      </trkpt>
      <trkpt lat="45.15976" lon="5.6343">
        <ele>1458</ele>
        <time>2025-02-18T13:39:13</time>
      </trkpt>
      <trkpt lat="45.15976" lon="5.63432">
        <ele>1461.1</ele>
        <time>2025-02-18T13:39:16</time>
      </trkpt>
      <trkpt lat="45.15976" lon="5.63434">
        <ele>1461.1</ele>
        <time>2025-02-18T13:39:18</time>
      </trkpt>
      <trkpt lat="45.15975" lon="5.63436">
        <ele>1461.1</ele>
        <time>2025-02-18T13:39:20</time>
      </trkpt>
      <trkpt lat="45.15975" lon="5.63437">
        <ele>1461.1</ele>
        <time>2025-02-18T13:39:21</time>
      </trkpt>
      <trkpt lat="45.15975" lon="5.63437">
        <ele>1461.1</ele>
        <time>2025-02-18T13:39:22</time>
      </trkpt>
      <trkpt lat="45.15976" lon="5.63437">
        <ele>1461.1</ele>
        <time>2025-02-18T13:39:22</time>
      </trkpt>
      <trkpt lat="45.15976" lon="5.63437">
        <ele>1462.3</ele>
        <time>2025-02-18T13:39:23</time>
      </trkpt>
      <trkpt lat="45.15977" lon="5.63437">
        <ele>1462.3</ele>
        <time>2025-02-18T13:39:25</time>
      </trkpt>
      <trkpt lat="45.15977" lon="5.63436">
        <ele>1462.3</ele>
        <time>2025-02-18T13:39:26</time>
      </trkpt>
      <trkpt lat="45.15977" lon="5.63436">
        <ele>1462.3</ele>
        <time>2025-02-18T13:39:27</time>
      </trkpt>
      <trkpt lat="45.15977" lon="5.63436">
        <ele>1462.3</ele>
        <time>2025-02-18T13:39:28</time>
      </trkpt>
      <trkpt lat="45.15977" lon="5.63436">
        <ele>1462.3</ele>
        <time>2025-02-18T13:39:30</time>
      </trkpt>
      <trkpt lat="45.15977" lon="5.63437">
        <ele>1462.3</ele>
        <time>2025-02-18T13:39:31</time>
      </trkpt>
      <trkpt lat="45.15977" lon="5.6344">
        <ele>1464.2</ele>
        <time>2025-02-18T13:39:35</time>
      </trkpt>
      <trkpt lat="45.15977" lon="5.63441">
        <ele>1464.2</ele>
        <time>2025-02-18T13:39:36</time>
      </trkpt>
      <trkpt lat="45.15977" lon="5.63442">
        <ele>1464.2</ele>
        <time>2025-02-18T13:39:37</time>
      </trkpt>
      <trkpt lat="45.15976" lon="5.63443">
        <ele>1464.2</ele>
        <time>2025-02-18T13:39:39</time>
      </trkpt>
      <trkpt lat="45.15976" lon="5.63443">
        <ele>1465.7667</ele>
        <time>2025-02-18T13:39:41</time>
      </trkpt>
      <trkpt lat="45.15976" lon="5.63443">
        <ele>1465.7667</ele>
        <time>2025-02-18T13:39:42</time>
      </trkpt>
      <trkpt lat="45.15976" lon="5.63444">
        <ele>1465.7667</ele>
        <time>2025-02-18T13:39:44</time>
      </trkpt>
      <trkpt lat="45.15976" lon="5.63444">
        <ele>1465.7667</ele>
        <time>2025-02-18T13:39:45</time>
      </trkpt>
      <trkpt lat="45.15976" lon="5.63444">
        <ele>1465.7667</ele>
        <time>2025-02-18T13:39:50</time>
      </trkpt>
      <trkpt lat="45.15976" lon="5.63443">
        <ele>1465.9</ele>
        <time>2025-02-18T13:39:52</time>
      </trkpt>
      <trkpt lat="45.15976" lon="5.63443">
        <ele>1465.9</ele>
        <time>2025-02-18T13:39:53</time>
      </trkpt>
      <trkpt lat="45.15976" lon="5.63442">
        <ele>1466.6</ele>
        <time>2025-02-18T13:40:01</time>
      </trkpt>
      <trkpt lat="45.15976" lon="5.63442">
        <ele>1466.6</ele>
        <time>2025-02-18T13:40:10</time>
      </trkpt>
      <trkpt lat="45.15976" lon="5.63443">
        <ele>1466.6</ele>
        <time>2025-02-18T13:40:11</time>
      </trkpt>
      <trkpt lat="45.15974" lon="5.63444">
        <ele>1466.6</ele>
        <time>2025-02-18T13:40:14</time>
      </trkpt>
      <trkpt lat="45.15974" lon="5.63445">
        <ele>1466.6</ele>
        <time>2025-02-18T13:40:16</time>
      </trkpt>
      <trkpt lat="45.15974" lon="5.63447">
        <ele>1466.6</ele>
        <time>2025-02-18T13:40:17</time>
      </trkpt>
      <trkpt lat="45.15974" lon="5.63451">
        <ele>1466.6</ele>
        <time>2025-02-18T13:40:19</time>
      </trkpt>
      <trkpt lat="45.15974" lon="5.63453">
        <ele>1471.6</ele>
        <time>2025-02-18T13:40:22</time>
      </trkpt>
      <trkpt lat="45.15974" lon="5.63454">
        <ele>1471.6</ele>
        <time>2025-02-18T13:40:23</time>
      </trkpt>
      <trkpt lat="45.15974" lon="5.63455">
        <ele>1471.6</ele>
        <time>2025-02-18T13:40:25</time>
      </trkpt>
      <trkpt lat="45.15974" lon="5.63455">
        <ele>1471.6</ele>
        <time>2025-02-18T13:40:25</time>
      </trkpt>
      <trkpt lat="45.15974" lon="5.63457">
        <ele>1471.6</ele>
        <time>2025-02-18T13:40:27</time>
      </trkpt>
      <trkpt lat="45.15975" lon="5.63463">
        <ele>1470.9667</ele>
        <time>2025-02-18T13:40:35</time>
      </trkpt>
      <trkpt lat="45.15975" lon="5.63464">
        <ele>1470.9667</ele>
        <time>2025-02-18T13:40:36</time>
      </trkpt>
      <trkpt lat="45.15975" lon="5.63471">
        <ele>1471.3667</ele>
        <time>2025-02-18T13:40:45</time>
      </trkpt>
      <trkpt lat="45.15974" lon="5.63477">
        <ele>1472.1333</ele>
        <time>2025-02-18T13:40:51</time>
      </trkpt>
      <trkpt lat="45.15974" lon="5.63477">
        <ele>1472.1333</ele>
        <time>2025-02-18T13:40:52</time>
      </trkpt>
      <trkpt lat="45.15973" lon="5.63479">
        <ele>1472.1333</ele>
        <time>2025-02-18T13:40:54</time>
      </trkpt>
      <trkpt lat="45.15972" lon="5.63479">
        <ele>1472.1333</ele>
        <time>2025-02-18T13:40:57</time>
      </trkpt>
      <trkpt lat="45.15971" lon="5.63479">
        <ele>1473.1</ele>
        <time>2025-02-18T13:41:00</time>
      </trkpt>
      <trkpt lat="45.15971" lon="5.63479">
        <ele>1473.1</ele>
        <time>2025-02-18T13:41:01</time>
      </trkpt>
      <trkpt lat="45.15971" lon="5.63479">
        <ele>1473.1</ele>
        <time>2025-02-18T13:41:05</time>
      </trkpt>
      <trkpt lat="45.15971" lon="5.63479">
        <ele>1473.1</ele>
        <time>2025-02-18T13:41:06</time>
      </trkpt>
      <trkpt lat="45.15971" lon="5.63479">
        <ele>1473.1</ele>
        <time>2025-02-18T13:41:06</time>
      </trkpt>
      <trkpt lat="45.1597" lon="5.63478">
        <ele>1473.8</ele>
        <time>2025-02-18T13:41:12</time>
      </trkpt>
      <trkpt lat="45.1597" lon="5.63479">
        <ele>1473.8</ele>
        <time>2025-02-18T13:41:12</time>
      </trkpt>
      <trkpt lat="45.1597" lon="5.6348">
        <ele>1473.8</ele>
        <time>2025-02-18T13:41:13</time>
      </trkpt>
      <trkpt lat="45.1597" lon="5.63482">
        <ele>1473.8</ele>
        <time>2025-02-18T13:41:15</time>
      </trkpt>
      <trkpt lat="45.15969" lon="5.63486">
        <ele>1472</ele>
        <time>2025-02-18T13:41:18</time>
      </trkpt>
      <trkpt lat="45.1597" lon="5.63489">
        <ele>1472</ele>
        <time>2025-02-18T13:41:23</time>
      </trkpt>
      <trkpt lat="45.1597" lon="5.63491">
        <ele>1470.6</ele>
        <time>2025-02-18T13:41:25</time>
      </trkpt>
      <trkpt lat="45.1597" lon="5.63492">
        <ele>1470.6</ele>
        <time>2025-02-18T13:41:26</time>
      </trkpt>
      <trkpt lat="45.1597" lon="5.63493">
        <ele>1470.6</ele>
        <time>2025-02-18T13:41:28</time>
      </trkpt>
      <trkpt lat="45.1597" lon="5.63496">
        <ele>1471.6</ele>
        <time>2025-02-18T13:41:31</time>
      </trkpt>
      <trkpt lat="45.15971" lon="5.63501">
        <ele>1471.6</ele>
        <time>2025-02-18T13:41:36</time>
      </trkpt>
      <trkpt lat="45.15971" lon="5.63501">
        <ele>1471.6</ele>
        <time>2025-02-18T13:41:37</time>
      </trkpt>
      <trkpt lat="45.1597" lon="5.63504">
        <ele>1474.2</ele>
        <time>2025-02-18T13:41:39</time>
      </trkpt>
      <trkpt lat="45.1597" lon="5.63507">
        <ele>1474.2</ele>
        <time>2025-02-18T13:41:43</time>
      </trkpt>
      <trkpt lat="45.15971" lon="5.63513">
        <ele>1475</ele>
        <time>2025-02-18T13:41:49</time>
      </trkpt>
      <trkpt lat="45.15972" lon="5.63516">
        <ele>1477.2</ele>
        <time>2025-02-18T13:41:54</time>
      </trkpt>
      <trkpt lat="45.15972" lon="5.63518">
        <ele>1477.2</ele>
        <time>2025-02-18T13:41:57</time>
      </trkpt>
      <trkpt lat="45.15972" lon="5.63519">
        <ele>1477.2</ele>
        <time>2025-02-18T13:41:58</time>
      </trkpt>
      <trkpt lat="45.15973" lon="5.6352">
        <ele>1477.2</ele>
        <time>2025-02-18T13:42:00</time>
      </trkpt>
      <trkpt lat="45.15973" lon="5.63524">
        <ele>1478.7</ele>
        <time>2025-02-18T13:42:04</time>
      </trkpt>
      <trkpt lat="45.15972" lon="5.63527">
        <ele>1478.7</ele>
        <time>2025-02-18T13:42:07</time>
      </trkpt>
      <trkpt lat="45.15973" lon="5.63531">
        <ele>1479.2</ele>
        <time>2025-02-18T13:42:11</time>
      </trkpt>
      <trkpt lat="45.15972" lon="5.63534">
        <ele>1479.2</ele>
        <time>2025-02-18T13:42:14</time>
      </trkpt>
      <trkpt lat="45.15972" lon="5.63536">
        <ele>1479.2</ele>
        <time>2025-02-18T13:42:16</time>
      </trkpt>
      <trkpt lat="45.15972" lon="5.63537">
        <ele>1480</ele>
        <time>2025-02-18T13:42:17</time>
      </trkpt>
      <trkpt lat="45.15973" lon="5.6354">
        <ele>1480</ele>
        <time>2025-02-18T13:42:20</time>
      </trkpt>
      <trkpt lat="45.15973" lon="5.63542">
        <ele>1480</ele>
        <time>2025-02-18T13:42:22</time>
      </trkpt>
      <trkpt lat="45.15974" lon="5.63543">
        <ele>1480.1</ele>
        <time>2025-02-18T13:42:24</time>
      </trkpt>
      <trkpt lat="45.15975" lon="5.63547">
        <ele>1480.1</ele>
        <time>2025-02-18T13:42:28</time>
      </trkpt>
      <trkpt lat="45.15975" lon="5.6355">
        <ele>1481.6</ele>
        <time>2025-02-18T13:42:31</time>
      </trkpt>
      <trkpt lat="45.15976" lon="5.63553">
        <ele>1481.6</ele>
        <time>2025-02-18T13:42:33</time>
      </trkpt>
      <trkpt lat="45.15976" lon="5.63562">
        <ele>1484.6333</ele>
        <time>2025-02-18T13:42:44</time>
      </trkpt>
      <trkpt lat="45.15976" lon="5.63563">
        <ele>1484.6333</ele>
        <time>2025-02-18T13:42:44</time>
      </trkpt>
      <trkpt lat="45.15976" lon="5.63564">
        <ele>1485.6</ele>
        <time>2025-02-18T13:42:46</time>
      </trkpt>
      <trkpt lat="45.15977" lon="5.6357">
        <ele>1487.2</ele>
        <time>2025-02-18T13:42:53</time>
      </trkpt>
      <trkpt lat="45.15977" lon="5.63574">
        <ele>1487.2</ele>
        <time>2025-02-18T13:42:57</time>
      </trkpt>
      <trkpt lat="45.15977" lon="5.63576">
        <ele>1487.2</ele>
        <time>2025-02-18T13:42:59</time>
      </trkpt>
      <trkpt lat="45.15977" lon="5.63578">
        <ele>1488</ele>
        <time>2025-02-18T13:43:01</time>
      </trkpt>
      <trkpt lat="45.15979" lon="5.63588">
        <ele>1489.9</ele>
        <time>2025-02-18T13:43:11</time>
      </trkpt>
      <trkpt lat="45.1598" lon="5.63599">
        <ele>1491.8334</ele>
        <time>2025-02-18T13:43:24</time>
      </trkpt>
      <trkpt lat="45.1598" lon="5.63605">
        <ele>1493.6</ele>
        <time>2025-02-18T13:43:30</time>
      </trkpt>
      <trkpt lat="45.1598" lon="5.63606">
        <ele>1493.6</ele>
        <time>2025-02-18T13:43:31</time>
      </trkpt>
      <trkpt lat="45.1598" lon="5.63613">
        <ele>1495.3334</ele>
        <time>2025-02-18T13:43:38</time>
      </trkpt>
      <trkpt lat="45.15979" lon="5.63615">
        <ele>1495.3334</ele>
        <time>2025-02-18T13:43:40</time>
      </trkpt>
      <trkpt lat="45.15979" lon="5.63617">
        <ele>1495.3334</ele>
        <time>2025-02-18T13:43:42</time>
      </trkpt>
      <trkpt lat="45.15979" lon="5.6362">
        <ele>1496.1</ele>
        <time>2025-02-18T13:43:47</time>
      </trkpt>
      <trkpt lat="45.1598" lon="5.63628">
        <ele>1497.5</ele>
        <time>2025-02-18T13:43:57</time>
      </trkpt>
      <trkpt lat="45.15981" lon="5.63629">
        <ele>1499.7</ele>
        <time>2025-02-18T13:43:58</time>
      </trkpt>
      <trkpt lat="45.15982" lon="5.63634">
        <ele>1499.7</ele>
        <time>2025-02-18T13:44:05</time>
      </trkpt>
      <trkpt lat="45.15983" lon="5.63641">
        <ele>1501.1</ele>
        <time>2025-02-18T13:44:12</time>
      </trkpt>
      <trkpt lat="45.15984" lon="5.63641">
        <ele>1501.1</ele>
        <time>2025-02-18T13:44:13</time>
      </trkpt>
      <trkpt lat="45.15987" lon="5.63649">
        <ele>1504.7</ele>
        <time>2025-02-18T13:44:23</time>
      </trkpt>
      <trkpt lat="45.15988" lon="5.6365">
        <ele>1504.7</ele>
        <time>2025-02-18T13:44:25</time>
      </trkpt>
      <trkpt lat="45.15988" lon="5.63651">
        <ele>1504.7</ele>
        <time>2025-02-18T13:44:26</time>
      </trkpt>
      <trkpt lat="45.15988" lon="5.63652">
        <ele>1504.7</ele>
        <time>2025-02-18T13:44:27</time>
      </trkpt>
      <trkpt lat="45.15988" lon="5.63653">
        <ele>1504.7</ele>
        <time>2025-02-18T13:44:28</time>
      </trkpt>
      <trkpt lat="45.15987" lon="5.63653">
        <ele>1506.4</ele>
        <time>2025-02-18T13:44:29</time>
      </trkpt>
      <trkpt lat="45.15987" lon="5.63655">
        <ele>1506.4</ele>
        <time>2025-02-18T13:44:31</time>
      </trkpt>
      <trkpt lat="45.15986" lon="5.63659">
        <ele>1506.4</ele>
        <time>2025-02-18T13:44:33</time>
      </trkpt>
      <trkpt lat="45.15986" lon="5.63659">
        <ele>1506.4</ele>
        <time>2025-02-18T13:44:34</time>
      </trkpt>
      <trkpt lat="45.15986" lon="5.6366">
        <ele>1506.4</ele>
        <time>2025-02-18T13:44:35</time>
      </trkpt>
      <trkpt lat="45.15986" lon="5.63662">
        <ele>1507.2</ele>
        <time>2025-02-18T13:44:37</time>
      </trkpt>
      <trkpt lat="45.15986" lon="5.63664">
        <ele>1507.2</ele>
        <time>2025-02-18T13:44:38</time>
      </trkpt>
      <trkpt lat="45.15986" lon="5.63665">
        <ele>1507.2</ele>
        <time>2025-02-18T13:44:39</time>
      </trkpt>
      <trkpt lat="45.15985" lon="5.63674">
        <ele>1507.7</ele>
        <time>2025-02-18T13:44:46</time>
      </trkpt>
      <trkpt lat="45.15985" lon="5.63682">
        <ele>1508.1</ele>
        <time>2025-02-18T13:44:54</time>
      </trkpt>
      <trkpt lat="45.15985" lon="5.63685">
        <ele>1508.1</ele>
        <time>2025-02-18T13:44:57</time>
      </trkpt>
      <trkpt lat="45.15984" lon="5.63685">
        <ele>1508.1</ele>
        <time>2025-02-18T13:44:58</time>
      </trkpt>
      <trkpt lat="45.15984" lon="5.63685">
        <ele>1509.0333</ele>
        <time>2025-02-18T13:44:58</time>
      </trkpt>
      <trkpt lat="45.15985" lon="5.63685">
        <ele>1509.0333</ele>
        <time>2025-02-18T13:44:59</time>
      </trkpt>
      <trkpt lat="45.15985" lon="5.63684">
        <ele>1509.0333</ele>
        <time>2025-02-18T13:45:01</time>
      </trkpt>
      <trkpt lat="45.15984" lon="5.63684">
        <ele>1509.0333</ele>
        <time>2025-02-18T13:45:03</time>
      </trkpt>
      <trkpt lat="45.15984" lon="5.63683">
        <ele>1509.0333</ele>
        <time>2025-02-18T13:45:05</time>
      </trkpt>
      <trkpt lat="45.15984" lon="5.63683">
        <ele>1509.0333</ele>
        <time>2025-02-18T13:45:06</time>
      </trkpt>
      <trkpt lat="45.15984" lon="5.63683">
        <ele>1509.2</ele>
        <time>2025-02-18T13:45:08</time>
      </trkpt>
      <trkpt lat="45.15984" lon="5.63683">
        <ele>1509.2</ele>
        <time>2025-02-18T13:45:10</time>
      </trkpt>
      <trkpt lat="45.15984" lon="5.63683">
        <ele>1509.2</ele>
        <time>2025-02-18T13:45:11</time>
      </trkpt>
      <trkpt lat="45.15984" lon="5.63683">
        <ele>1509.2</ele>
        <time>2025-02-18T13:45:12</time>
      </trkpt>
      <trkpt lat="45.15984" lon="5.63683">
        <ele>1509.2</ele>
        <time>2025-02-18T13:45:13</time>
      </trkpt>
      <trkpt lat="45.15984" lon="5.63683">
        <ele>1509.2</ele>
        <time>2025-02-18T13:45:13</time>
      </trkpt>
      <trkpt lat="45.15984" lon="5.63682">
        <ele>1509.2</ele>
        <time>2025-02-18T13:45:14</time>
      </trkpt>
      <trkpt lat="45.15984" lon="5.63683">
        <ele>1509.2</ele>
        <time>2025-02-18T13:45:15</time>
      </trkpt>
      <trkpt lat="45.15984" lon="5.63683">
        <ele>1509.2</ele>
        <time>2025-02-18T13:45:15</time>
      </trkpt>
      <trkpt lat="45.15984" lon="5.63683">
        <ele>1509.1</ele>
        <time>2025-02-18T13:45:16</time>
      </trkpt>
      <trkpt lat="45.15984" lon="5.63683">
        <ele>1509.1</ele>
        <time>2025-02-18T13:45:18</time>
      </trkpt>
      <trkpt lat="45.15984" lon="5.63683">
        <ele>1509.1</ele>
        <time>2025-02-18T13:45:46</time>
      </trkpt>
      <trkpt lat="45.15984" lon="5.63683">
        <ele>1509.1</ele>
        <time>2025-02-18T13:45:47</time>
      </trkpt>
      <trkpt lat="45.15984" lon="5.63683">
        <ele>1509.1</ele>
        <time>2025-02-18T13:45:48</time>
      </trkpt>
      <trkpt lat="45.15985" lon="5.63684">
        <ele>1509.1</ele>
        <time>2025-02-18T13:45:49</time>
      </trkpt>
      <trkpt lat="45.15987" lon="5.63689">
        <ele>1509.1</ele>
        <time>2025-02-18T13:45:54</time>
      </trkpt>
      <trkpt lat="45.15988" lon="5.63691">
        <ele>1509.1</ele>
        <time>2025-02-18T13:45:55</time>
      </trkpt>
      <trkpt lat="45.15989" lon="5.63698">
        <ele>1509.1</ele>
        <time>2025-02-18T13:46:00</time>
      </trkpt>
      <trkpt lat="45.15991" lon="5.63702">
        <ele>1509.0333</ele>
        <time>2025-02-18T13:46:04</time>
      </trkpt>
      <trkpt lat="45.15991" lon="5.63706">
        <ele>1509.0333</ele>
        <time>2025-02-18T13:46:07</time>
      </trkpt>
      <trkpt lat="45.1599" lon="5.6371">
        <ele>1509.7</ele>
        <time>2025-02-18T13:46:10</time>
      </trkpt>
      <trkpt lat="45.15989" lon="5.63714">
        <ele>1509.7</ele>
        <time>2025-02-18T13:46:12</time>
      </trkpt>
      <trkpt lat="45.15989" lon="5.63715">
        <ele>1509.7</ele>
        <time>2025-02-18T13:46:13</time>
      </trkpt>
      <trkpt lat="45.15988" lon="5.63715">
        <ele>1509.7</ele>
        <time>2025-02-18T13:46:14</time>
      </trkpt>
      <trkpt lat="45.15986" lon="5.63718">
        <ele>1510.8334</ele>
        <time>2025-02-18T13:46:17</time>
      </trkpt>
      <trkpt lat="45.15983" lon="5.63722">
        <ele>1510.8334</ele>
        <time>2025-02-18T13:46:20</time>
      </trkpt>
      <trkpt lat="45.15977" lon="5.63726">
        <ele>1511.2</ele>
        <time>2025-02-18T13:46:25</time>
      </trkpt>
      <trkpt lat="45.15973" lon="5.63726">
        <ele>1511.2</ele>
        <time>2025-02-18T13:46:28</time>
      </trkpt>
      <trkpt lat="45.15971" lon="5.63725">
        <ele>1511.2</ele>
        <time>2025-02-18T13:46:30</time>
      </trkpt>
      <trkpt lat="45.15968" lon="5.63724">
        <ele>1511.2</ele>
        <time>2025-02-18T13:46:33</time>
      </trkpt>
      <trkpt lat="45.15965" lon="5.63724">
        <ele>1511.2</ele>
        <time>2025-02-18T13:46:35</time>
      </trkpt>
      <trkpt lat="45.15959" lon="5.63723">
        <ele>1511.3</ele>
        <time>2025-02-18T13:46:41</time>
      </trkpt>
      <trkpt lat="45.15956" lon="5.63722">
        <ele>1511.3</ele>
        <time>2025-02-18T13:46:43</time>
      </trkpt>
      <trkpt lat="45.15954" lon="5.63722">
        <ele>1510.2</ele>
        <time>2025-02-18T13:46:45</time>
      </trkpt>
      <trkpt lat="45.15935" lon="5.63719">
        <ele>1510.9</ele>
        <time>2025-02-18T13:47:04</time>
      </trkpt>
      <trkpt lat="45.15931" lon="5.63717">
        <ele>1510.9</ele>
        <time>2025-02-18T13:47:08</time>
      </trkpt>
      <trkpt lat="45.15927" lon="5.63716">
        <ele>1511.3</ele>
        <time>2025-02-18T13:47:11</time>
      </trkpt>
      <trkpt lat="45.15922" lon="5.63714">
        <ele>1511.3</ele>
        <time>2025-02-18T13:47:16</time>
      </trkpt>
      <trkpt lat="45.15915" lon="5.63713">
        <ele>1514.1</ele>
        <time>2025-02-18T13:47:25</time>
      </trkpt>
      <trkpt lat="45.15914" lon="5.63712">
        <ele>1514.1</ele>
        <time>2025-02-18T13:47:26</time>
      </trkpt>
      <trkpt lat="45.1591" lon="5.63713">
        <ele>1514.1</ele>
        <time>2025-02-18T13:47:29</time>
      </trkpt>
      <trkpt lat="45.15902" lon="5.63714">
        <ele>1515.2667</ele>
        <time>2025-02-18T13:47:38</time>
      </trkpt>
      <trkpt lat="45.15902" lon="5.63715">
        <ele>1515.2667</ele>
        <time>2025-02-18T13:47:39</time>
      </trkpt>
      <trkpt lat="45.15902" lon="5.63716">
        <ele>1515.2667</ele>
        <time>2025-02-18T13:47:40</time>
      </trkpt>
      <trkpt lat="45.15901" lon="5.63716">
        <ele>1515.2667</ele>
        <time>2025-02-18T13:47:40</time>
      </trkpt>
      <trkpt lat="45.15901" lon="5.63716">
        <ele>1515.2667</ele>
        <time>2025-02-18T13:47:41</time>
      </trkpt>
      <trkpt lat="45.15901" lon="5.63716">
        <ele>1515.2667</ele>
        <time>2025-02-18T13:47:42</time>
      </trkpt>
      <trkpt lat="45.159" lon="5.63715">
        <ele>1515.2667</ele>
        <time>2025-02-18T13:47:43</time>
      </trkpt>
      <trkpt lat="45.159" lon="5.63715">
        <ele>1515.2667</ele>
        <time>2025-02-18T13:47:45</time>
      </trkpt>
      <trkpt lat="45.159" lon="5.63715">
        <ele>1517.5667</ele>
        <time>2025-02-18T13:47:47</time>
      </trkpt>
      <trkpt lat="45.159" lon="5.63715">
        <ele>1517.5667</ele>
        <time>2025-02-18T13:47:48</time>
      </trkpt>
      <trkpt lat="45.159" lon="5.63714">
        <ele>1518.1</ele>
        <time>2025-02-18T13:47:56</time>
      </trkpt>
      <trkpt lat="45.15897" lon="5.63712">
        <ele>1518.1</ele>
        <time>2025-02-18T13:48:00</time>
      </trkpt>
      <trkpt lat="45.15896" lon="5.63712">
        <ele>1518.1</ele>
        <time>2025-02-18T13:48:00</time>
      </trkpt>
      <trkpt lat="45.15896" lon="5.63712">
        <ele>1518.1</ele>
        <time>2025-02-18T13:48:01</time>
      </trkpt>
      <trkpt lat="45.15893" lon="5.63712">
        <ele>1518.7</ele>
        <time>2025-02-18T13:48:04</time>
      </trkpt>
      <trkpt lat="45.15892" lon="5.63712">
        <ele>1518.7</ele>
        <time>2025-02-18T13:48:06</time>
      </trkpt>
      <trkpt lat="45.15891" lon="5.63712">
        <ele>1518.7</ele>
        <time>2025-02-18T13:48:08</time>
      </trkpt>
      <trkpt lat="45.15886" lon="5.63712">
        <ele>1518.8</ele>
        <time>2025-02-18T13:48:13</time>
      </trkpt>
      <trkpt lat="45.15875" lon="5.63708">
        <ele>1520.1</ele>
        <time>2025-02-18T13:48:28</time>
      </trkpt>
      <trkpt lat="45.15875" lon="5.63708">
        <ele>1520.1</ele>
        <time>2025-02-18T13:48:29</time>
      </trkpt>
      <trkpt lat="45.15874" lon="5.63706">
        <ele>1522.8</ele>
        <time>2025-02-18T13:48:31</time>
      </trkpt>
      <trkpt lat="45.15872" lon="5.63705">
        <ele>1522.8</ele>
        <time>2025-02-18T13:48:33</time>
      </trkpt>
      <trkpt lat="45.15871" lon="5.63704">
        <ele>1522.8</ele>
        <time>2025-02-18T13:48:35</time>
      </trkpt>
      <trkpt lat="45.1587" lon="5.63703">
        <ele>1522.8</ele>
        <time>2025-02-18T13:48:35</time>
      </trkpt>
      <trkpt lat="45.1587" lon="5.63703">
        <ele>1522.8</ele>
        <time>2025-02-18T13:48:36</time>
      </trkpt>
      <trkpt lat="45.15869" lon="5.63703">
        <ele>1522.8</ele>
        <time>2025-02-18T13:48:37</time>
      </trkpt>
      <trkpt lat="45.15869" lon="5.63702">
        <ele>1522.8</ele>
        <time>2025-02-18T13:48:37</time>
      </trkpt>
      <trkpt lat="45.15868" lon="5.63701">
        <ele>1523.1</ele>
        <time>2025-02-18T13:48:39</time>
      </trkpt>
      <trkpt lat="45.15868" lon="5.63701">
        <ele>1523.1</ele>
        <time>2025-02-18T13:48:39</time>
      </trkpt>
      <trkpt lat="45.15867" lon="5.63701">
        <ele>1523.1</ele>
        <time>2025-02-18T13:48:40</time>
      </trkpt>
      <trkpt lat="45.15866" lon="5.63701">
        <ele>1523.1</ele>
        <time>2025-02-18T13:48:41</time>
      </trkpt>
      <trkpt lat="45.15865" lon="5.637">
        <ele>1523.1</ele>
        <time>2025-02-18T13:48:41</time>
      </trkpt>
      <trkpt lat="45.15865" lon="5.637">
        <ele>1523.1</ele>
        <time>2025-02-18T13:48:42</time>
      </trkpt>
      <trkpt lat="45.15864" lon="5.637">
        <ele>1523.1</ele>
        <time>2025-02-18T13:48:42</time>
      </trkpt>
      <trkpt lat="45.15864" lon="5.637">
        <ele>1523.1</ele>
        <time>2025-02-18T13:48:43</time>
      </trkpt>
      <trkpt lat="45.15861" lon="5.63701">
        <ele>1523.2</ele>
        <time>2025-02-18T13:48:46</time>
      </trkpt>
      <trkpt lat="45.15861" lon="5.63701">
        <ele>1523.2</ele>
        <time>2025-02-18T13:48:47</time>
      </trkpt>
      <trkpt lat="45.1586" lon="5.637">
        <ele>1523.2</ele>
        <time>2025-02-18T13:48:48</time>
      </trkpt>
      <trkpt lat="45.15859" lon="5.63698">
        <ele>1523.2</ele>
        <time>2025-02-18T13:48:50</time>
      </trkpt>
      <trkpt lat="45.15859" lon="5.63698">
        <ele>1523.2</ele>
        <time>2025-02-18T13:48:51</time>
      </trkpt>
      <trkpt lat="45.15857" lon="5.63699">
        <ele>1524.8</ele>
        <time>2025-02-18T13:48:52</time>
      </trkpt>
      <trkpt lat="45.15857" lon="5.63698">
        <ele>1524.8</ele>
        <time>2025-02-18T13:48:53</time>
      </trkpt>
      <trkpt lat="45.15857" lon="5.63698">
        <ele>1524.8</ele>
        <time>2025-02-18T13:48:53</time>
      </trkpt>
      <trkpt lat="45.15856" lon="5.63698">
        <ele>1524.8</ele>
        <time>2025-02-18T13:48:54</time>
      </trkpt>
      <trkpt lat="45.15855" lon="5.63699">
        <ele>1524.8</ele>
        <time>2025-02-18T13:48:55</time>
      </trkpt>
      <trkpt lat="45.15855" lon="5.63699">
        <ele>1524.8</ele>
        <time>2025-02-18T13:48:56</time>
      </trkpt>
      <trkpt lat="45.15853" lon="5.637">
        <ele>1524.8</ele>
        <time>2025-02-18T13:48:58</time>
      </trkpt>
      <trkpt lat="45.15851" lon="5.637">
        <ele>1525.4</ele>
        <time>2025-02-18T13:49:00</time>
      </trkpt>
      <trkpt lat="45.1585" lon="5.637">
        <ele>1525.4</ele>
        <time>2025-02-18T13:49:02</time>
      </trkpt>
      <trkpt lat="45.1585" lon="5.63699">
        <ele>1525.4</ele>
        <time>2025-02-18T13:49:03</time>
      </trkpt>
      <trkpt lat="45.15848" lon="5.63698">
        <ele>1525.4</ele>
        <time>2025-02-18T13:49:05</time>
      </trkpt>
      <trkpt lat="45.15845" lon="5.63698">
        <ele>1528</ele>
        <time>2025-02-18T13:49:07</time>
      </trkpt>
      <trkpt lat="45.15844" lon="5.63699">
        <ele>1528</ele>
        <time>2025-02-18T13:49:09</time>
      </trkpt>
      <trkpt lat="45.1584" lon="5.637">
        <ele>1529.5</ele>
        <time>2025-02-18T13:49:13</time>
      </trkpt>
      <trkpt lat="45.15838" lon="5.637">
        <ele>1529.5</ele>
        <time>2025-02-18T13:49:15</time>
      </trkpt>
      <trkpt lat="45.15838" lon="5.63699">
        <ele>1529.5</ele>
        <time>2025-02-18T13:49:15</time>
      </trkpt>
      <trkpt lat="45.15838" lon="5.63698">
        <ele>1529.5</ele>
        <time>2025-02-18T13:49:16</time>
      </trkpt>
      <trkpt lat="45.15838" lon="5.63698">
        <ele>1529.5</ele>
        <time>2025-02-18T13:49:17</time>
      </trkpt>
      <trkpt lat="45.15839" lon="5.63697">
        <ele>1529.5</ele>
        <time>2025-02-18T13:49:18</time>
      </trkpt>
      <trkpt lat="45.15838" lon="5.63696">
        <ele>1530.8667</ele>
        <time>2025-02-18T13:49:25</time>
      </trkpt>
      <trkpt lat="45.15838" lon="5.63695">
        <ele>1532.3</ele>
        <time>2025-02-18T13:49:31</time>
      </trkpt>
      <trkpt lat="45.15838" lon="5.63695">
        <ele>1532.3</ele>
        <time>2025-02-18T13:49:32</time>
      </trkpt>
      <trkpt lat="45.15838" lon="5.63695">
        <ele>1532.3</ele>
        <time>2025-02-18T13:49:35</time>
      </trkpt>
      <trkpt lat="45.15838" lon="5.63695">
        <ele>1532.3</ele>
        <time>2025-02-18T13:49:37</time>
      </trkpt>
      <trkpt lat="45.15838" lon="5.63695">
        <ele>1532.3</ele>
        <time>2025-02-18T13:49:45</time>
      </trkpt>
      <trkpt lat="45.15838" lon="5.63695">
        <ele>1532.3</ele>
        <time>2025-02-18T13:49:47</time>
      </trkpt>
      <trkpt lat="45.15838" lon="5.63695">
        <ele>1532.3</ele>
        <time>2025-02-18T13:49:48</time>
      </trkpt>
      <trkpt lat="45.15837" lon="5.63696">
        <ele>1532.3</ele>
        <time>2025-02-18T13:49:49</time>
      </trkpt>
      <trkpt lat="45.15837" lon="5.63696">
        <ele>1533.1</ele>
        <time>2025-02-18T13:49:50</time>
      </trkpt>
      <trkpt lat="45.15837" lon="5.63696">
        <ele>1533.1</ele>
        <time>2025-02-18T13:49:50</time>
      </trkpt>
      <trkpt lat="45.15836" lon="5.63696">
        <ele>1533.1</ele>
        <time>2025-02-18T13:49:52</time>
      </trkpt>
      <trkpt lat="45.15835" lon="5.63697">
        <ele>1533.1</ele>
        <time>2025-02-18T13:49:53</time>
      </trkpt>
      <trkpt lat="45.15835" lon="5.63697">
        <ele>1533.1</ele>
        <time>2025-02-18T13:49:54</time>
      </trkpt>
      <trkpt lat="45.15834" lon="5.63697">
        <ele>1533.1</ele>
        <time>2025-02-18T13:49:56</time>
      </trkpt>
      <trkpt lat="45.15834" lon="5.63697">
        <ele>1533.2</ele>
        <time>2025-02-18T13:49:57</time>
      </trkpt>
      <trkpt lat="45.15833" lon="5.63698">
        <ele>1533.2</ele>
        <time>2025-02-18T13:49:58</time>
      </trkpt>
      <trkpt lat="45.15831" lon="5.63699">
        <ele>1533.2</ele>
        <time>2025-02-18T13:49:59</time>
      </trkpt>
      <trkpt lat="45.1583" lon="5.637">
        <ele>1533.2</ele>
        <time>2025-02-18T13:50:02</time>
      </trkpt>
      <trkpt lat="45.15828" lon="5.63701">
        <ele>1534.8</ele>
        <time>2025-02-18T13:50:04</time>
      </trkpt>
      <trkpt lat="45.15827" lon="5.637">
        <ele>1534.8</ele>
        <time>2025-02-18T13:50:04</time>
      </trkpt>
      <trkpt lat="45.15821" lon="5.637">
        <ele>1535.9</ele>
        <time>2025-02-18T13:50:13</time>
      </trkpt>
      <trkpt lat="45.1582" lon="5.637">
        <ele>1535.9</ele>
        <time>2025-02-18T13:50:15</time>
      </trkpt>
      <trkpt lat="45.15819" lon="5.637">
        <ele>1535.9</ele>
        <time>2025-02-18T13:50:16</time>
      </trkpt>
      <trkpt lat="45.15819" lon="5.637">
        <ele>1535.9</ele>
        <time>2025-02-18T13:50:17</time>
      </trkpt>
      <trkpt lat="45.15812" lon="5.63701">
        <ele>1539.4</ele>
        <time>2025-02-18T13:50:28</time>
      </trkpt>
      <trkpt lat="45.1581" lon="5.63701">
        <ele>1539.4</ele>
        <time>2025-02-18T13:50:31</time>
      </trkpt>
      <trkpt lat="45.15809" lon="5.63701">
        <ele>1539.4</ele>
        <time>2025-02-18T13:50:34</time>
      </trkpt>
      <trkpt lat="45.15808" lon="5.63701">
        <ele>1541.1</ele>
        <time>2025-02-18T13:50:36</time>
      </trkpt>
      <trkpt lat="45.15807" lon="5.637">
        <ele>1541.1</ele>
        <time>2025-02-18T13:50:38</time>
      </trkpt>
      <trkpt lat="45.15807" lon="5.637">
        <ele>1541.1</ele>
        <time>2025-02-18T13:50:39</time>
      </trkpt>
      <trkpt lat="45.15807" lon="5.637">
        <ele>1541.1</ele>
        <time>2025-02-18T13:50:40</time>
      </trkpt>
      <trkpt lat="45.15807" lon="5.637">
        <ele>1541.1</ele>
        <time>2025-02-18T13:50:40</time>
      </trkpt>
      <trkpt lat="45.15806" lon="5.63701">
        <ele>1540.7</ele>
        <time>2025-02-18T13:50:42</time>
      </trkpt>
      <trkpt lat="45.15806" lon="5.63701">
        <ele>1540.7</ele>
        <time>2025-02-18T13:50:43</time>
      </trkpt>
      <trkpt lat="45.15806" lon="5.63701">
        <ele>1540.7</ele>
        <time>2025-02-18T13:50:44</time>
      </trkpt>
      <trkpt lat="45.15806" lon="5.637">
        <ele>1540.7</ele>
        <time>2025-02-18T13:50:45</time>
      </trkpt>
      <trkpt lat="45.15806" lon="5.637">
        <ele>1540.7</ele>
        <time>2025-02-18T13:50:46</time>
      </trkpt>
      <trkpt lat="45.15806" lon="5.63701">
        <ele>1540.7</ele>
        <time>2025-02-18T13:50:47</time>
      </trkpt>
      <trkpt lat="45.15805" lon="5.63701">
        <ele>1540.7</ele>
        <time>2025-02-18T13:50:48</time>
      </trkpt>
      <trkpt lat="45.15805" lon="5.63701">
        <ele>1540.7</ele>
        <time>2025-02-18T13:50:49</time>
      </trkpt>
      <trkpt lat="45.15805" lon="5.63701">
        <ele>1540.7</ele>
        <time>2025-02-18T13:50:49</time>
      </trkpt>
      <trkpt lat="45.15804" lon="5.63701">
        <ele>1540.7</ele>
        <time>2025-02-18T13:50:50</time>
      </trkpt>
      <trkpt lat="45.15798" lon="5.63703">
        <ele>1539.8</ele>
        <time>2025-02-18T13:50:57</time>
      </trkpt>
      <trkpt lat="45.15796" lon="5.63702">
        <ele>1540.7333</ele>
        <time>2025-02-18T13:50:59</time>
      </trkpt>
      <trkpt lat="45.15794" lon="5.637">
        <ele>1540.7333</ele>
        <time>2025-02-18T13:51:03</time>
      </trkpt>
      <trkpt lat="45.15793" lon="5.637">
        <ele>1540.7333</ele>
        <time>2025-02-18T13:51:05</time>
      </trkpt>
      <trkpt lat="45.15793" lon="5.637">
        <ele>1542.7333</ele>
        <time>2025-02-18T13:51:06</time>
      </trkpt>
      <trkpt lat="45.15792" lon="5.63699">
        <ele>1542.7333</ele>
        <time>2025-02-18T13:51:06</time>
      </trkpt>
      <trkpt lat="45.15792" lon="5.63698">
        <ele>1542.7333</ele>
        <time>2025-02-18T13:51:07</time>
      </trkpt>
      <trkpt lat="45.15792" lon="5.63698">
        <ele>1542.7333</ele>
        <time>2025-02-18T13:51:08</time>
      </trkpt>
      <trkpt lat="45.15788" lon="5.63698">
        <ele>1542.8</ele>
        <time>2025-02-18T13:51:14</time>
      </trkpt>
      <trkpt lat="45.15787" lon="5.63697">
        <ele>1542.8</ele>
        <time>2025-02-18T13:51:15</time>
      </trkpt>
      <trkpt lat="45.15785" lon="5.63697">
        <ele>1542.8</ele>
        <time>2025-02-18T13:51:17</time>
      </trkpt>
      <trkpt lat="45.15783" lon="5.63696">
        <ele>1542.8</ele>
        <time>2025-02-18T13:51:20</time>
      </trkpt>
      <trkpt lat="45.15783" lon="5.63695">
        <ele>1544.2333</ele>
        <time>2025-02-18T13:51:20</time>
      </trkpt>
      <trkpt lat="45.15783" lon="5.63695">
        <ele>1544.2333</ele>
        <time>2025-02-18T13:51:21</time>
      </trkpt>
      <trkpt lat="45.15783" lon="5.63694">
        <ele>1544.2333</ele>
        <time>2025-02-18T13:51:22</time>
      </trkpt>
      <trkpt lat="45.15782" lon="5.63694">
        <ele>1544.2333</ele>
        <time>2025-02-18T13:51:22</time>
      </trkpt>
      <trkpt lat="45.15779" lon="5.63694">
        <ele>1544.2333</ele>
        <time>2025-02-18T13:51:26</time>
      </trkpt>
      <trkpt lat="45.15776" lon="5.63693">
        <ele>1543.7</ele>
        <time>2025-02-18T13:51:29</time>
      </trkpt>
      <trkpt lat="45.1576" lon="5.63687">
        <ele>1542.2333</ele>
        <time>2025-02-18T13:51:46</time>
      </trkpt>
      <trkpt lat="45.15759" lon="5.63687">
        <ele>1542.2333</ele>
        <time>2025-02-18T13:51:48</time>
      </trkpt>
      <trkpt lat="45.15756" lon="5.63688">
        <ele>1542.2333</ele>
        <time>2025-02-18T13:51:51</time>
      </trkpt>
      <trkpt lat="45.15752" lon="5.63687">
        <ele>1543.7</ele>
        <time>2025-02-18T13:51:55</time>
      </trkpt>
      <trkpt lat="45.15751" lon="5.63687">
        <ele>1543.7</ele>
        <time>2025-02-18T13:51:56</time>
      </trkpt>
      <trkpt lat="45.15751" lon="5.63687">
        <ele>1543.7</ele>
        <time>2025-02-18T13:51:57</time>
      </trkpt>
      <trkpt lat="45.1575" lon="5.63687">
        <ele>1543.7</ele>
        <time>2025-02-18T13:51:58</time>
      </trkpt>
      <trkpt lat="45.1575" lon="5.63688">
        <ele>1543.7</ele>
        <time>2025-02-18T13:51:59</time>
      </trkpt>
      <trkpt lat="45.15749" lon="5.63688">
        <ele>1546.6</ele>
        <time>2025-02-18T13:52:00</time>
      </trkpt>
      <trkpt lat="45.15748" lon="5.63688">
        <ele>1546.6</ele>
        <time>2025-02-18T13:52:02</time>
      </trkpt>
      <trkpt lat="45.15747" lon="5.63688">
        <ele>1546.6</ele>
        <time>2025-02-18T13:52:04</time>
      </trkpt>
      <trkpt lat="45.15747" lon="5.63688">
        <ele>1546.6</ele>
        <time>2025-02-18T13:52:04</time>
      </trkpt>
      <trkpt lat="45.15745" lon="5.63687">
        <ele>1548.1</ele>
        <time>2025-02-18T13:52:07</time>
      </trkpt>
      <trkpt lat="45.15743" lon="5.63686">
        <ele>1548.1</ele>
        <time>2025-02-18T13:52:10</time>
      </trkpt>
      <trkpt lat="45.15743" lon="5.63686">
        <ele>1548.1</ele>
        <time>2025-02-18T13:52:11</time>
      </trkpt>
      <trkpt lat="45.15742" lon="5.63686">
        <ele>1548.1</ele>
        <time>2025-02-18T13:52:12</time>
      </trkpt>
      <trkpt lat="45.15739" lon="5.63684">
        <ele>1550.1</ele>
        <time>2025-02-18T13:52:18</time>
      </trkpt>
      <trkpt lat="45.15735" lon="5.63682">
        <ele>1551.3</ele>
        <time>2025-02-18T13:52:24</time>
      </trkpt>
      <trkpt lat="45.15734" lon="5.63682">
        <ele>1551.3</ele>
        <time>2025-02-18T13:52:25</time>
      </trkpt>
      <trkpt lat="45.15732" lon="5.63682">
        <ele>1554.6</ele>
        <time>2025-02-18T13:52:28</time>
      </trkpt>
      <trkpt lat="45.1573" lon="5.63682">
        <ele>1554.6</ele>
        <time>2025-02-18T13:52:32</time>
      </trkpt>
      <trkpt lat="45.15729" lon="5.63682">
        <ele>1554.6</ele>
        <time>2025-02-18T13:52:33</time>
      </trkpt>
      <trkpt lat="45.15728" lon="5.63682">
        <ele>1554.6</ele>
        <time>2025-02-18T13:52:35</time>
      </trkpt>
      <trkpt lat="45.15727" lon="5.63682">
        <ele>1555.7</ele>
        <time>2025-02-18T13:52:38</time>
      </trkpt>
      <trkpt lat="45.15726" lon="5.63682">
        <ele>1555.7</ele>
        <time>2025-02-18T13:52:40</time>
      </trkpt>
      <trkpt lat="45.15725" lon="5.63682">
        <ele>1555.7</ele>
        <time>2025-02-18T13:52:41</time>
      </trkpt>
      <trkpt lat="45.15724" lon="5.63682">
        <ele>1555.7</ele>
        <time>2025-02-18T13:52:42</time>
      </trkpt>
      <trkpt lat="45.15721" lon="5.63682">
        <ele>1557.7</ele>
        <time>2025-02-18T13:52:48</time>
      </trkpt>
      <trkpt lat="45.15719" lon="5.63681">
        <ele>1558.4</ele>
        <time>2025-02-18T13:52:50</time>
      </trkpt>
      <trkpt lat="45.15715" lon="5.6368">
        <ele>1558.4</ele>
        <time>2025-02-18T13:52:55</time>
      </trkpt>
      <trkpt lat="45.15713" lon="5.63678">
        <ele>1558.6</ele>
        <time>2025-02-18T13:52:58</time>
      </trkpt>
      <trkpt lat="45.15712" lon="5.63677">
        <ele>1558.6</ele>
        <time>2025-02-18T13:53:02</time>
      </trkpt>
      <trkpt lat="45.1571" lon="5.63676">
        <ele>1558.6</ele>
        <time>2025-02-18T13:53:04</time>
      </trkpt>
      <trkpt lat="45.1571" lon="5.63676">
        <ele>1559</ele>
        <time>2025-02-18T13:53:05</time>
      </trkpt>
      <trkpt lat="45.15709" lon="5.63676">
        <ele>1559</ele>
        <time>2025-02-18T13:53:07</time>
      </trkpt>
      <trkpt lat="45.15708" lon="5.63675">
        <ele>1559</ele>
        <time>2025-02-18T13:53:08</time>
      </trkpt>
      <trkpt lat="45.15706" lon="5.63674">
        <ele>1559</ele>
        <time>2025-02-18T13:53:12</time>
      </trkpt>
      <trkpt lat="45.15704" lon="5.63672">
        <ele>1559.1333</ele>
        <time>2025-02-18T13:53:16</time>
      </trkpt>
      <trkpt lat="45.15703" lon="5.63672">
        <ele>1559.1333</ele>
        <time>2025-02-18T13:53:17</time>
      </trkpt>
      <trkpt lat="45.15703" lon="5.63671">
        <ele>1559.1333</ele>
        <time>2025-02-18T13:53:18</time>
      </trkpt>
      <trkpt lat="45.15701" lon="5.6367">
        <ele>1559.8</ele>
        <time>2025-02-18T13:53:22</time>
      </trkpt>
      <trkpt lat="45.15699" lon="5.63671">
        <ele>1559.8</ele>
        <time>2025-02-18T13:53:25</time>
      </trkpt>
      <trkpt lat="45.15698" lon="5.6367">
        <ele>1559.8</ele>
        <time>2025-02-18T13:53:25</time>
      </trkpt>
      <trkpt lat="45.15698" lon="5.6367">
        <ele>1559.8</ele>
        <time>2025-02-18T13:53:27</time>
      </trkpt>
      <trkpt lat="45.15697" lon="5.6367">
        <ele>1561</ele>
        <time>2025-02-18T13:53:28</time>
      </trkpt>
      <trkpt lat="45.15697" lon="5.63669">
        <ele>1561</ele>
        <time>2025-02-18T13:53:30</time>
      </trkpt>
      <trkpt lat="45.15696" lon="5.63668">
        <ele>1561</ele>
        <time>2025-02-18T13:53:31</time>
      </trkpt>
      <trkpt lat="45.15695" lon="5.63667">
        <ele>1561</ele>
        <time>2025-02-18T13:53:33</time>
      </trkpt>
      <trkpt lat="45.15692" lon="5.63662">
        <ele>1559.6333</ele>
        <time>2025-02-18T13:53:38</time>
      </trkpt>
      <trkpt lat="45.15689" lon="5.63656">
        <ele>1562.5</ele>
        <time>2025-02-18T13:53:45</time>
      </trkpt>
      <trkpt lat="45.15689" lon="5.63654">
        <ele>1562.5</ele>
        <time>2025-02-18T13:53:47</time>
      </trkpt>
      <trkpt lat="45.15689" lon="5.63653">
        <ele>1562.5</ele>
        <time>2025-02-18T13:53:48</time>
      </trkpt>
      <trkpt lat="45.15689" lon="5.63653">
        <ele>1562.5</ele>
        <time>2025-02-18T13:53:49</time>
      </trkpt>
      <trkpt lat="45.1569" lon="5.63652">
        <ele>1562.5</ele>
        <time>2025-02-18T13:53:50</time>
      </trkpt>
      <trkpt lat="45.15689" lon="5.63651">
        <ele>1562.5</ele>
        <time>2025-02-18T13:53:50</time>
      </trkpt>
      <trkpt lat="45.15689" lon="5.63651">
        <ele>1562.5</ele>
        <time>2025-02-18T13:53:51</time>
      </trkpt>
      <trkpt lat="45.15689" lon="5.6365">
        <ele>1562.4</ele>
        <time>2025-02-18T13:53:52</time>
      </trkpt>
      <trkpt lat="45.15687" lon="5.63648">
        <ele>1562.4</ele>
        <time>2025-02-18T13:53:54</time>
      </trkpt>
      <trkpt lat="45.15687" lon="5.63647">
        <ele>1562.4</ele>
        <time>2025-02-18T13:53:55</time>
      </trkpt>
      <trkpt lat="45.15686" lon="5.63647">
        <ele>1562.4</ele>
        <time>2025-02-18T13:53:56</time>
      </trkpt>
      <trkpt lat="45.15685" lon="5.63646">
        <ele>1562.4</ele>
        <time>2025-02-18T13:53:57</time>
      </trkpt>
      <trkpt lat="45.15684" lon="5.63645">
        <ele>1561.9333</ele>
        <time>2025-02-18T13:53:59</time>
      </trkpt>
      <trkpt lat="45.15681" lon="5.63644">
        <ele>1561.9333</ele>
        <time>2025-02-18T13:54:03</time>
      </trkpt>
      <trkpt lat="45.15681" lon="5.63644">
        <ele>1561.9333</ele>
        <time>2025-02-18T13:54:04</time>
      </trkpt>
      <trkpt lat="45.15679" lon="5.63644">
        <ele>1561.6</ele>
        <time>2025-02-18T13:54:06</time>
      </trkpt>
      <trkpt lat="45.15678" lon="5.63645">
        <ele>1561.6</ele>
        <time>2025-02-18T13:54:07</time>
      </trkpt>
      <trkpt lat="45.15676" lon="5.63646">
        <ele>1561.6</ele>
        <time>2025-02-18T13:54:11</time>
      </trkpt>
      <trkpt lat="45.15675" lon="5.63646">
        <ele>1561.6</ele>
        <time>2025-02-18T13:54:12</time>
      </trkpt>
      <trkpt lat="45.15675" lon="5.63647">
        <ele>1565.9</ele>
        <time>2025-02-18T13:54:13</time>
      </trkpt>
      <trkpt lat="45.15674" lon="5.63647">
        <ele>1565.9</ele>
        <time>2025-02-18T13:54:14</time>
      </trkpt>
      <trkpt lat="45.15674" lon="5.63647">
        <ele>1565.9</ele>
        <time>2025-02-18T13:54:15</time>
      </trkpt>
      <trkpt lat="45.15673" lon="5.63646">
        <ele>1565.9</ele>
        <time>2025-02-18T13:54:16</time>
      </trkpt>
      <trkpt lat="45.15673" lon="5.63645">
        <ele>1565.9</ele>
        <time>2025-02-18T13:54:17</time>
      </trkpt>
      <trkpt lat="45.15673" lon="5.63645">
        <ele>1565.9</ele>
        <time>2025-02-18T13:54:18</time>
      </trkpt>
      <trkpt lat="45.15673" lon="5.63645">
        <ele>1565.9</ele>
        <time>2025-02-18T13:54:19</time>
      </trkpt>
      <trkpt lat="45.15672" lon="5.63645">
        <ele>1565.9</ele>
        <time>2025-02-18T13:54:20</time>
      </trkpt>
      <trkpt lat="45.15672" lon="5.63645">
        <ele>1569.0333</ele>
        <time>2025-02-18T13:54:21</time>
      </trkpt>
      <trkpt lat="45.15671" lon="5.63645">
        <ele>1569.0333</ele>
        <time>2025-02-18T13:54:22</time>
      </trkpt>
      <trkpt lat="45.15671" lon="5.63645">
        <ele>1569.0333</ele>
        <time>2025-02-18T13:54:22</time>
      </trkpt>
      <trkpt lat="45.1567" lon="5.63645">
        <ele>1569.0333</ele>
        <time>2025-02-18T13:54:23</time>
      </trkpt>
      <trkpt lat="45.1567" lon="5.63644">
        <ele>1569.0333</ele>
        <time>2025-02-18T13:54:24</time>
      </trkpt>
      <trkpt lat="45.1567" lon="5.63644">
        <ele>1569.0333</ele>
        <time>2025-02-18T13:54:25</time>
      </trkpt>
      <trkpt lat="45.15669" lon="5.63645">
        <ele>1569.0333</ele>
        <time>2025-02-18T13:54:25</time>
      </trkpt>
      <trkpt lat="45.15668" lon="5.63645">
        <ele>1569.0333</ele>
        <time>2025-02-18T13:54:27</time>
      </trkpt>
      <trkpt lat="45.15667" lon="5.63644">
        <ele>1569.0333</ele>
        <time>2025-02-18T13:54:28</time>
      </trkpt>
      <trkpt lat="45.15667" lon="5.63645">
        <ele>1569.6</ele>
        <time>2025-02-18T13:54:28</time>
      </trkpt>
      <trkpt lat="45.15666" lon="5.63645">
        <ele>1569.6</ele>
        <time>2025-02-18T13:54:29</time>
      </trkpt>
      <trkpt lat="45.15663" lon="5.63645">
        <ele>1569.6</ele>
        <time>2025-02-18T13:54:35</time>
      </trkpt>
      <trkpt lat="45.15662" lon="5.63644">
        <ele>1573.2</ele>
        <time>2025-02-18T13:54:37</time>
      </trkpt>
      <trkpt lat="45.1566" lon="5.63644">
        <ele>1573.2</ele>
        <time>2025-02-18T13:54:40</time>
      </trkpt>
      <trkpt lat="45.15659" lon="5.63644">
        <ele>1573.2</ele>
        <time>2025-02-18T13:54:43</time>
      </trkpt>
      <trkpt lat="45.15658" lon="5.63644">
        <ele>1574.0667</ele>
        <time>2025-02-18T13:54:45</time>
      </trkpt>
      <trkpt lat="45.15657" lon="5.63645">
        <ele>1574.0667</ele>
        <time>2025-02-18T13:54:47</time>
      </trkpt>
      <trkpt lat="45.15655" lon="5.63645">
        <ele>1574.0667</ele>
        <time>2025-02-18T13:54:51</time>
      </trkpt>
      <trkpt lat="45.15654" lon="5.63646">
        <ele>1575.6</ele>
        <time>2025-02-18T13:54:52</time>
      </trkpt>
      <trkpt lat="45.15653" lon="5.63645">
        <ele>1575.6</ele>
        <time>2025-02-18T13:54:54</time>
      </trkpt>
      <trkpt lat="45.15652" lon="5.63645">
        <ele>1575.6</ele>
        <time>2025-02-18T13:54:56</time>
      </trkpt>
      <trkpt lat="45.15652" lon="5.63646">
        <ele>1575.6</ele>
        <time>2025-02-18T13:54:58</time>
      </trkpt>
      <trkpt lat="45.15651" lon="5.63646">
        <ele>1577.9</ele>
        <time>2025-02-18T13:54:59</time>
      </trkpt>
      <trkpt lat="45.1565" lon="5.63646">
        <ele>1577.9</ele>
        <time>2025-02-18T13:55:01</time>
      </trkpt>
      <trkpt lat="45.1565" lon="5.63647">
        <ele>1577.9</ele>
        <time>2025-02-18T13:55:02</time>
      </trkpt>
      <trkpt lat="45.1565" lon="5.63647">
        <ele>1577.9</ele>
        <time>2025-02-18T13:55:04</time>
      </trkpt>
      <trkpt lat="45.1565" lon="5.63647">
        <ele>1577.9</ele>
        <time>2025-02-18T13:55:05</time>
      </trkpt>
      <trkpt lat="45.1565" lon="5.63646">
        <ele>1577.9</ele>
        <time>2025-02-18T13:55:06</time>
      </trkpt>
      <trkpt lat="45.1565" lon="5.63646">
        <ele>1581.4667</ele>
        <time>2025-02-18T13:55:10</time>
      </trkpt>
      <trkpt lat="45.1565" lon="5.63646">
        <ele>1581.4667</ele>
        <time>2025-02-18T13:55:11</time>
      </trkpt>
      <trkpt lat="45.15649" lon="5.63647">
        <ele>1581.4667</ele>
        <time>2025-02-18T13:55:14</time>
      </trkpt>
      <trkpt lat="45.15647" lon="5.63649">
        <ele>1581.6</ele>
        <time>2025-02-18T13:55:17</time>
      </trkpt>
      <trkpt lat="45.15646" lon="5.6365">
        <ele>1581.6</ele>
        <time>2025-02-18T13:55:19</time>
      </trkpt>
      <trkpt lat="45.15645" lon="5.63651">
        <ele>1581.6</ele>
        <time>2025-02-18T13:55:22</time>
      </trkpt>
      <trkpt lat="45.15645" lon="5.63651">
        <ele>1581.6</ele>
        <time>2025-02-18T13:55:23</time>
      </trkpt>
      <trkpt lat="45.15645" lon="5.63651">
        <ele>1583.4</ele>
        <time>2025-02-18T13:55:24</time>
      </trkpt>
      <trkpt lat="45.15645" lon="5.63651">
        <ele>1583.4</ele>
        <time>2025-02-18T13:55:25</time>
      </trkpt>
      <trkpt lat="45.15644" lon="5.63651">
        <ele>1583.4</ele>
        <time>2025-02-18T13:55:27</time>
      </trkpt>
      <trkpt lat="45.15644" lon="5.63651">
        <ele>1583.4</ele>
        <time>2025-02-18T13:55:29</time>
      </trkpt>
      <trkpt lat="45.15643" lon="5.63652">
        <ele>1583.4</ele>
        <time>2025-02-18T13:55:31</time>
      </trkpt>
      <trkpt lat="45.1564" lon="5.63653">
        <ele>1586.8</ele>
        <time>2025-02-18T13:55:36</time>
      </trkpt>
      <trkpt lat="45.15639" lon="5.63653">
        <ele>1586.8</ele>
        <time>2025-02-18T13:55:39</time>
      </trkpt>
      <trkpt lat="45.15638" lon="5.63653">
        <ele>1587.3</ele>
        <time>2025-02-18T13:55:40</time>
      </trkpt>
      <trkpt lat="45.15637" lon="5.63654">
        <ele>1587.3</ele>
        <time>2025-02-18T13:55:42</time>
      </trkpt>
      <trkpt lat="45.15637" lon="5.63654">
        <ele>1587.3</ele>
        <time>2025-02-18T13:55:43</time>
      </trkpt>
      <trkpt lat="45.15636" lon="5.63654">
        <ele>1587.3</ele>
        <time>2025-02-18T13:55:45</time>
      </trkpt>
      <trkpt lat="45.15636" lon="5.63654">
        <ele>1587.3</ele>
        <time>2025-02-18T13:55:45</time>
      </trkpt>
      <trkpt lat="45.15635" lon="5.63654">
        <ele>1587.3</ele>
        <time>2025-02-18T13:55:46</time>
      </trkpt>
      <trkpt lat="45.15634" lon="5.63655">
        <ele>1587</ele>
        <time>2025-02-18T13:55:48</time>
      </trkpt>
      <trkpt lat="45.15631" lon="5.63655">
        <ele>1587</ele>
        <time>2025-02-18T13:55:52</time>
      </trkpt>
      <trkpt lat="45.15631" lon="5.63655">
        <ele>1587</ele>
        <time>2025-02-18T13:55:53</time>
      </trkpt>
      <trkpt lat="45.15631" lon="5.63655">
        <ele>1587</ele>
        <time>2025-02-18T13:55:54</time>
      </trkpt>
      <trkpt lat="45.1563" lon="5.63655">
        <ele>1587</ele>
        <time>2025-02-18T13:55:55</time>
      </trkpt>
      <trkpt lat="45.1563" lon="5.63655">
        <ele>1587</ele>
        <time>2025-02-18T13:55:56</time>
      </trkpt>
      <trkpt lat="45.15628" lon="5.63656">
        <ele>1588.2</ele>
        <time>2025-02-18T13:55:59</time>
      </trkpt>
      <trkpt lat="45.15628" lon="5.63656">
        <ele>1588.2</ele>
        <time>2025-02-18T13:56:00</time>
      </trkpt>
      <trkpt lat="45.15623" lon="5.63655">
        <ele>1588.5</ele>
        <time>2025-02-18T13:56:08</time>
      </trkpt>
      <trkpt lat="45.15623" lon="5.63655">
        <ele>1588.5</ele>
        <time>2025-02-18T13:56:09</time>
      </trkpt>
      <trkpt lat="45.15621" lon="5.63654">
        <ele>1588.5</ele>
        <time>2025-02-18T13:56:12</time>
      </trkpt>
      <trkpt lat="45.15621" lon="5.63653">
        <ele>1588.5</ele>
        <time>2025-02-18T13:56:13</time>
      </trkpt>
      <trkpt lat="45.1562" lon="5.63653">
        <ele>1587.7</ele>
        <time>2025-02-18T13:56:14</time>
      </trkpt>
      <trkpt lat="45.15619" lon="5.63653">
        <ele>1587.7</ele>
        <time>2025-02-18T13:56:15</time>
      </trkpt>
      <trkpt lat="45.15619" lon="5.63653">
        <ele>1587.7</ele>
        <time>2025-02-18T13:56:16</time>
      </trkpt>
      <trkpt lat="45.15618" lon="5.63652">
        <ele>1587.7</ele>
        <time>2025-02-18T13:56:17</time>
      </trkpt>
      <trkpt lat="45.15617" lon="5.63652">
        <ele>1587.7</ele>
        <time>2025-02-18T13:56:18</time>
      </trkpt>
      <trkpt lat="45.15617" lon="5.63652">
        <ele>1587.7</ele>
        <time>2025-02-18T13:56:19</time>
      </trkpt>
      <trkpt lat="45.15616" lon="5.63653">
        <ele>1587.7</ele>
        <time>2025-02-18T13:56:20</time>
      </trkpt>
      <trkpt lat="45.15616" lon="5.63653">
        <ele>1587.7</ele>
        <time>2025-02-18T13:56:21</time>
      </trkpt>
      <trkpt lat="45.15615" lon="5.63652">
        <ele>1593.2</ele>
        <time>2025-02-18T13:56:22</time>
      </trkpt>
      <trkpt lat="45.15615" lon="5.63651">
        <ele>1593.2</ele>
        <time>2025-02-18T13:56:23</time>
      </trkpt>
      <trkpt lat="45.15614" lon="5.63649">
        <ele>1593.2</ele>
        <time>2025-02-18T13:56:23</time>
      </trkpt>
      <trkpt lat="45.15614" lon="5.63649">
        <ele>1593.2</ele>
        <time>2025-02-18T13:56:24</time>
      </trkpt>
      <trkpt lat="45.15614" lon="5.63647">
        <ele>1593.2</ele>
        <time>2025-02-18T13:56:25</time>
      </trkpt>
      <trkpt lat="45.15614" lon="5.63648">
        <ele>1593.2</ele>
        <time>2025-02-18T13:56:26</time>
      </trkpt>
      <trkpt lat="45.15614" lon="5.63648">
        <ele>1593.2</ele>
        <time>2025-02-18T13:56:27</time>
      </trkpt>
      <trkpt lat="45.15614" lon="5.63647">
        <ele>1593.2</ele>
        <time>2025-02-18T13:56:28</time>
      </trkpt>
      <trkpt lat="45.15614" lon="5.63646">
        <ele>1593.2</ele>
        <time>2025-02-18T13:56:29</time>
      </trkpt>
      <trkpt lat="45.15614" lon="5.63641">
        <ele>1594.5</ele>
        <time>2025-02-18T13:56:31</time>
      </trkpt>
      <trkpt lat="45.15613" lon="5.63639">
        <ele>1594.5</ele>
        <time>2025-02-18T13:56:32</time>
      </trkpt>
      <trkpt lat="45.15613" lon="5.63638">
        <ele>1594.5</ele>
        <time>2025-02-18T13:56:33</time>
      </trkpt>
      <trkpt lat="45.15612" lon="5.63638">
        <ele>1594.5</ele>
        <time>2025-02-18T13:56:34</time>
      </trkpt>
      <trkpt lat="45.15612" lon="5.63638">
        <ele>1594.5</ele>
        <time>2025-02-18T13:56:35</time>
      </trkpt>
      <trkpt lat="45.15611" lon="5.63639">
        <ele>1594.5</ele>
        <time>2025-02-18T13:56:38</time>
      </trkpt>
      <trkpt lat="45.15614" lon="5.6364">
        <ele>1595.8667</ele>
        <time>2025-02-18T13:56:40</time>
      </trkpt>
      <trkpt lat="45.15614" lon="5.6364">
        <ele>1595.8667</ele>
        <time>2025-02-18T13:56:41</time>
      </trkpt>
      <trkpt lat="45.15614" lon="5.6364">
        <ele>1595.8667</ele>
        <time>2025-02-18T13:56:42</time>
      </trkpt>
      <trkpt lat="45.15613" lon="5.63639">
        <ele>1595.8667</ele>
        <time>2025-02-18T13:56:43</time>
      </trkpt>
      <trkpt lat="45.15613" lon="5.63638">
        <ele>1595.8667</ele>
        <time>2025-02-18T13:56:44</time>
      </trkpt>
      <trkpt lat="45.15612" lon="5.63637">
        <ele>1595.8667</ele>
        <time>2025-02-18T13:56:45</time>
      </trkpt>
      <trkpt lat="45.15612" lon="5.63636">
        <ele>1595.8667</ele>
        <time>2025-02-18T13:56:45</time>
      </trkpt>
      <trkpt lat="45.15612" lon="5.63635">
        <ele>1595.8667</ele>
        <time>2025-02-18T13:56:46</time>
      </trkpt>
      <trkpt lat="45.15611" lon="5.63632">
        <ele>1600.8</ele>
        <time>2025-02-18T13:56:50</time>
      </trkpt>
      <trkpt lat="45.15611" lon="5.63632">
        <ele>1600.8</ele>
        <time>2025-02-18T13:56:51</time>
      </trkpt>
      <trkpt lat="45.15611" lon="5.63631">
        <ele>1600.8</ele>
        <time>2025-02-18T13:56:52</time>
      </trkpt>
      <trkpt lat="45.15611" lon="5.6363">
        <ele>1600.8</ele>
        <time>2025-02-18T13:56:53</time>
      </trkpt>
      <trkpt lat="45.15611" lon="5.63629">
        <ele>1600.8</ele>
        <time>2025-02-18T13:56:54</time>
      </trkpt>
      <trkpt lat="45.1561" lon="5.63626">
        <ele>1596.5</ele>
        <time>2025-02-18T13:56:57</time>
      </trkpt>
      <trkpt lat="45.15609" lon="5.63624">
        <ele>1596.5</ele>
        <time>2025-02-18T13:56:59</time>
      </trkpt>
      <trkpt lat="45.15608" lon="5.63622">
        <ele>1596.5</ele>
        <time>2025-02-18T13:57:00</time>
      </trkpt>
      <trkpt lat="45.15608" lon="5.63621">
        <ele>1596.5</ele>
        <time>2025-02-18T13:57:01</time>
      </trkpt>
      <trkpt lat="45.15605" lon="5.63613">
        <ele>1595.9</ele>
        <time>2025-02-18T13:57:11</time>
      </trkpt>
      <trkpt lat="45.15605" lon="5.63612">
        <ele>1596.6</ele>
        <time>2025-02-18T13:57:13</time>
      </trkpt>
      <trkpt lat="45.15604" lon="5.63609">
        <ele>1596.6</ele>
        <time>2025-02-18T13:57:16</time>
      </trkpt>
      <trkpt lat="45.15604" lon="5.63607">
        <ele>1596.6</ele>
        <time>2025-02-18T13:57:18</time>
      </trkpt>
      <trkpt lat="45.15604" lon="5.63606">
        <ele>1596.6</ele>
        <time>2025-02-18T13:57:19</time>
      </trkpt>
      <trkpt lat="45.15604" lon="5.63606">
        <ele>1597.9</ele>
        <time>2025-02-18T13:57:20</time>
      </trkpt>
      <trkpt lat="45.15604" lon="5.63606">
        <ele>1597.9</ele>
        <time>2025-02-18T13:57:21</time>
      </trkpt>
      <trkpt lat="45.15604" lon="5.63606">
        <ele>1597.9</ele>
        <time>2025-02-18T13:57:22</time>
      </trkpt>
      <trkpt lat="45.15603" lon="5.63607">
        <ele>1597.9</ele>
        <time>2025-02-18T13:57:23</time>
      </trkpt>
      <trkpt lat="45.15603" lon="5.63607">
        <ele>1597.9</ele>
        <time>2025-02-18T13:57:24</time>
      </trkpt>
      <trkpt lat="45.15603" lon="5.63606">
        <ele>1597.9</ele>
        <time>2025-02-18T13:57:25</time>
      </trkpt>
      <trkpt lat="45.15603" lon="5.636">
        <ele>1599.7667</ele>
        <time>2025-02-18T13:57:28</time>
      </trkpt>
      <trkpt lat="45.15602" lon="5.63595">
        <ele>1599.7667</ele>
        <time>2025-02-18T13:57:31</time>
      </trkpt>
      <trkpt lat="45.15602" lon="5.63593">
        <ele>1599.7667</ele>
        <time>2025-02-18T13:57:33</time>
      </trkpt>
      <trkpt lat="45.15602" lon="5.63592">
        <ele>1598.7667</ele>
        <time>2025-02-18T13:57:36</time>
      </trkpt>
      <trkpt lat="45.15599" lon="5.63582">
        <ele>1599.4</ele>
        <time>2025-02-18T13:57:45</time>
      </trkpt>
      <trkpt lat="45.15599" lon="5.63578">
        <ele>1599.4</ele>
        <time>2025-02-18T13:57:49</time>
      </trkpt>
      <trkpt lat="45.156" lon="5.63574">
        <ele>1599.6333</ele>
        <time>2025-02-18T13:57:52</time>
      </trkpt>
      <trkpt lat="45.156" lon="5.6356">
        <ele>1600.9</ele>
        <time>2025-02-18T13:58:03</time>
      </trkpt>
      <trkpt lat="45.15599" lon="5.63555">
        <ele>1600.7</ele>
        <time>2025-02-18T13:58:06</time>
      </trkpt>
      <trkpt lat="45.15598" lon="5.63555">
        <ele>1600.7</ele>
        <time>2025-02-18T13:58:07</time>
      </trkpt>
      <trkpt lat="45.15598" lon="5.63554">
        <ele>1600.7</ele>
        <time>2025-02-18T13:58:08</time>
      </trkpt>
      <trkpt lat="45.15596" lon="5.63551">
        <ele>1600.7</ele>
        <time>2025-02-18T13:58:10</time>
      </trkpt>
      <trkpt lat="45.1559" lon="5.63543">
        <ele>1600</ele>
        <time>2025-02-18T13:58:20</time>
      </trkpt>
      <trkpt lat="45.15587" lon="5.6354">
        <ele>1600</ele>
        <time>2025-02-18T13:58:26</time>
      </trkpt>
      <trkpt lat="45.15583" lon="5.63532">
        <ele>1600.7</ele>
        <time>2025-02-18T13:58:34</time>
      </trkpt>
      <trkpt lat="45.15581" lon="5.63531">
        <ele>1600.7</ele>
        <time>2025-02-18T13:58:37</time>
      </trkpt>
      <trkpt lat="45.15579" lon="5.6353">
        <ele>1600.7</ele>
        <time>2025-02-18T13:58:40</time>
      </trkpt>
      <trkpt lat="45.15576" lon="5.63528">
        <ele>1601.1</ele>
        <time>2025-02-18T13:58:45</time>
      </trkpt>
      <trkpt lat="45.15576" lon="5.63527">
        <ele>1601.1</ele>
        <time>2025-02-18T13:58:46</time>
      </trkpt>
      <trkpt lat="45.15574" lon="5.63524">
        <ele>1602.2333</ele>
        <time>2025-02-18T13:58:52</time>
      </trkpt>
      <trkpt lat="45.15573" lon="5.63523">
        <ele>1602.2333</ele>
        <time>2025-02-18T13:58:54</time>
      </trkpt>
      <trkpt lat="45.15572" lon="5.63518">
        <ele>1605.6666</ele>
        <time>2025-02-18T13:59:00</time>
      </trkpt>
      <trkpt lat="45.15572" lon="5.63518">
        <ele>1605.6666</ele>
        <time>2025-02-18T13:59:01</time>
      </trkpt>
      <trkpt lat="45.15572" lon="5.63515">
        <ele>1605.6666</ele>
        <time>2025-02-18T13:59:04</time>
      </trkpt>
      <trkpt lat="45.15572" lon="5.63514">
        <ele>1607.8</ele>
        <time>2025-02-18T13:59:06</time>
      </trkpt>
      <trkpt lat="45.15571" lon="5.63514">
        <ele>1607.8</ele>
        <time>2025-02-18T13:59:07</time>
      </trkpt>
      <trkpt lat="45.15571" lon="5.63512">
        <ele>1607.8</ele>
        <time>2025-02-18T13:59:09</time>
      </trkpt>
      <trkpt lat="45.15573" lon="5.63508">
        <ele>1609.3</ele>
        <time>2025-02-18T13:59:13</time>
      </trkpt>
      <trkpt lat="45.15573" lon="5.63507">
        <ele>1609.3</ele>
        <time>2025-02-18T13:59:15</time>
      </trkpt>
      <trkpt lat="45.15575" lon="5.63504">
        <ele>1609.3</ele>
        <time>2025-02-18T13:59:18</time>
      </trkpt>
      <trkpt lat="45.15577" lon="5.635">
        <ele>1610.6</ele>
        <time>2025-02-18T13:59:22</time>
      </trkpt>
      <trkpt lat="45.15578" lon="5.63497">
        <ele>1610.6</ele>
        <time>2025-02-18T13:59:25</time>
      </trkpt>
      <trkpt lat="45.15579" lon="5.63494">
        <ele>1610.6</ele>
        <time>2025-02-18T13:59:27</time>
      </trkpt>
      <trkpt lat="45.15581" lon="5.6349">
        <ele>1612.5</ele>
        <time>2025-02-18T13:59:31</time>
      </trkpt>
      <trkpt lat="45.15582" lon="5.6349">
        <ele>1612.5</ele>
        <time>2025-02-18T13:59:33</time>
      </trkpt>
      <trkpt lat="45.15583" lon="5.63489">
        <ele>1613.5</ele>
        <time>2025-02-18T13:59:36</time>
      </trkpt>
      <trkpt lat="45.15585" lon="5.63488">
        <ele>1613.5</ele>
        <time>2025-02-18T13:59:38</time>
      </trkpt>
      <trkpt lat="45.15587" lon="5.63487">
        <ele>1613.5</ele>
        <time>2025-02-18T13:59:39</time>
      </trkpt>
      <trkpt lat="45.15592" lon="5.63486">
        <ele>1613.5</ele>
        <time>2025-02-18T13:59:43</time>
      </trkpt>
      <trkpt lat="45.15595" lon="5.63485">
        <ele>1613.9</ele>
        <time>2025-02-18T13:59:45</time>
      </trkpt>
      <trkpt lat="45.15596" lon="5.63485">
        <ele>1613.9</ele>
        <time>2025-02-18T13:59:46</time>
      </trkpt>
      <trkpt lat="45.15597" lon="5.63485">
        <ele>1613.9</ele>
        <time>2025-02-18T13:59:47</time>
      </trkpt>
      <trkpt lat="45.156" lon="5.63487">
        <ele>1613.9</ele>
        <time>2025-02-18T13:59:50</time>
      </trkpt>
      <trkpt lat="45.15602" lon="5.63489">
        <ele>1617.2</ele>
        <time>2025-02-18T13:59:56</time>
      </trkpt>
      <trkpt lat="45.15604" lon="5.63491">
        <ele>1618.9</ele>
        <time>2025-02-18T14:00:00</time>
      </trkpt>
      <trkpt lat="45.15605" lon="5.63491">
        <ele>1618.9</ele>
        <time>2025-02-18T14:00:01</time>
      </trkpt>
      <trkpt lat="45.15606" lon="5.63492">
        <ele>1618.9</ele>
        <time>2025-02-18T14:00:02</time>
      </trkpt>
      <trkpt lat="45.15607" lon="5.63493">
        <ele>1618.9</ele>
        <time>2025-02-18T14:00:04</time>
      </trkpt>
      <trkpt lat="45.15611" lon="5.63496">
        <ele>1622.4</ele>
        <time>2025-02-18T14:00:09</time>
      </trkpt>
      <trkpt lat="45.15614" lon="5.63497">
        <ele>1625.8</ele>
        <time>2025-02-18T14:00:14</time>
      </trkpt>
      <trkpt lat="45.15615" lon="5.63497">
        <ele>1625.8</ele>
        <time>2025-02-18T14:00:16</time>
      </trkpt>
      <trkpt lat="45.15619" lon="5.63498">
        <ele>1629</ele>
        <time>2025-02-18T14:00:22</time>
      </trkpt>
      <trkpt lat="45.1562" lon="5.63499">
        <ele>1629</ele>
        <time>2025-02-18T14:00:25</time>
      </trkpt>
      <trkpt lat="45.15624" lon="5.63502">
        <ele>1630.9333</ele>
        <time>2025-02-18T14:00:30</time>
      </trkpt>
      <trkpt lat="45.15625" lon="5.63502">
        <ele>1630.9333</ele>
        <time>2025-02-18T14:00:33</time>
      </trkpt>
      <trkpt lat="45.15628" lon="5.63502">
        <ele>1632.2</ele>
        <time>2025-02-18T14:00:39</time>
      </trkpt>
      <trkpt lat="45.15629" lon="5.63502">
        <ele>1632.2</ele>
        <time>2025-02-18T14:00:41</time>
      </trkpt>
      <trkpt lat="45.15629" lon="5.63502">
        <ele>1632.2</ele>
        <time>2025-02-18T14:00:42</time>
      </trkpt>
      <trkpt lat="45.15632" lon="5.63502">
        <ele>1632.7</ele>
        <time>2025-02-18T14:00:45</time>
      </trkpt>
      <trkpt lat="45.15632" lon="5.63502">
        <ele>1632.7</ele>
        <time>2025-02-18T14:00:46</time>
      </trkpt>
      <trkpt lat="45.15633" lon="5.63502">
        <ele>1632.7</ele>
        <time>2025-02-18T14:00:47</time>
      </trkpt>
      <trkpt lat="45.15634" lon="5.63501">
        <ele>1632.7</ele>
        <time>2025-02-18T14:00:48</time>
      </trkpt>
      <trkpt lat="45.15634" lon="5.63501">
        <ele>1632.7</ele>
        <time>2025-02-18T14:00:48</time>
      </trkpt>
      <trkpt lat="45.15634" lon="5.635">
        <ele>1632.7</ele>
        <time>2025-02-18T14:00:49</time>
      </trkpt>
      <trkpt lat="45.15634" lon="5.63499">
        <ele>1632.3</ele>
        <time>2025-02-18T14:00:51</time>
      </trkpt>
      <trkpt lat="45.15635" lon="5.63498">
        <ele>1632.3</ele>
        <time>2025-02-18T14:00:52</time>
      </trkpt>
      <trkpt lat="45.15635" lon="5.63497">
        <ele>1632.3</ele>
        <time>2025-02-18T14:00:55</time>
      </trkpt>
      <trkpt lat="45.15635" lon="5.63496">
        <ele>1632.3</ele>
        <time>2025-02-18T14:00:56</time>
      </trkpt>
      <trkpt lat="45.15635" lon="5.63495">
        <ele>1632.3</ele>
        <time>2025-02-18T14:00:58</time>
      </trkpt>
      <trkpt lat="45.15637" lon="5.63493">
        <ele>1631.5</ele>
        <time>2025-02-18T14:01:02</time>
      </trkpt>
      <trkpt lat="45.15638" lon="5.63493">
        <ele>1631.5</ele>
        <time>2025-02-18T14:01:03</time>
      </trkpt>
      <trkpt lat="45.15638" lon="5.63493">
        <ele>1631.5</ele>
        <time>2025-02-18T14:01:04</time>
      </trkpt>
      <trkpt lat="45.15638" lon="5.63493">
        <ele>1631.5</ele>
        <time>2025-02-18T14:01:05</time>
      </trkpt>
      <trkpt lat="45.15638" lon="5.63493">
        <ele>1631</ele>
        <time>2025-02-18T14:01:08</time>
      </trkpt>
      <trkpt lat="45.15638" lon="5.63492">
        <ele>1631</ele>
        <time>2025-02-18T14:01:09</time>
      </trkpt>
      <trkpt lat="45.15638" lon="5.63492">
        <ele>1631</ele>
        <time>2025-02-18T14:01:11</time>
      </trkpt>
      <trkpt lat="45.15638" lon="5.63492">
        <ele>1631</ele>
        <time>2025-02-18T14:01:12</time>
      </trkpt>
      <trkpt lat="45.15637" lon="5.63489">
        <ele>1631</ele>
        <time>2025-02-18T14:01:15</time>
      </trkpt>
      <trkpt lat="45.15637" lon="5.63488">
        <ele>1630.6</ele>
        <time>2025-02-18T14:01:16</time>
      </trkpt>
      <trkpt lat="45.15635" lon="5.63483">
        <ele>1630.6</ele>
        <time>2025-02-18T14:01:21</time>
      </trkpt>
      <trkpt lat="45.15634" lon="5.63481">
        <ele>1629</ele>
        <time>2025-02-18T14:01:24</time>
      </trkpt>
      <trkpt lat="45.15632" lon="5.63478">
        <ele>1629</ele>
        <time>2025-02-18T14:01:27</time>
      </trkpt>
      <trkpt lat="45.15626" lon="5.63474">
        <ele>1630</ele>
        <time>2025-02-18T14:01:34</time>
      </trkpt>
      <trkpt lat="45.15622" lon="5.63472">
        <ele>1631.4</ele>
        <time>2025-02-18T14:01:39</time>
      </trkpt>
      <trkpt lat="45.15618" lon="5.6347">
        <ele>1633.8</ele>
        <time>2025-02-18T14:01:43</time>
      </trkpt>
      <trkpt lat="45.15613" lon="5.63466">
        <ele>1633.8</ele>
        <time>2025-02-18T14:01:49</time>
      </trkpt>
      <trkpt lat="45.15599" lon="5.63461">
        <ele>1639.1333</ele>
        <time>2025-02-18T14:02:07</time>
      </trkpt>
      <trkpt lat="45.15595" lon="5.6346">
        <ele>1638.4</ele>
        <time>2025-02-18T14:02:12</time>
      </trkpt>
      <trkpt lat="45.15594" lon="5.63459">
        <ele>1638.4</ele>
        <time>2025-02-18T14:02:13</time>
      </trkpt>
      <trkpt lat="45.15585" lon="5.63458">
        <ele>1640.3667</ele>
        <time>2025-02-18T14:02:23</time>
      </trkpt>
      <trkpt lat="45.15576" lon="5.63458">
        <ele>1643.1</ele>
        <time>2025-02-18T14:02:34</time>
      </trkpt>
      <trkpt lat="45.15572" lon="5.63459">
        <ele>1643.4</ele>
        <time>2025-02-18T14:02:40</time>
      </trkpt>
      <trkpt lat="45.15566" lon="5.63461">
        <ele>1644.5</ele>
        <time>2025-02-18T14:02:50</time>
      </trkpt>
      <trkpt lat="45.15564" lon="5.63461">
        <ele>1644.5</ele>
        <time>2025-02-18T14:02:53</time>
      </trkpt>
      <trkpt lat="45.15563" lon="5.63461">
        <ele>1645.4</ele>
        <time>2025-02-18T14:02:55</time>
      </trkpt>
      <trkpt lat="45.15562" lon="5.63461">
        <ele>1645.4</ele>
        <time>2025-02-18T14:02:56</time>
      </trkpt>
      <trkpt lat="45.15562" lon="5.63461">
        <ele>1645.4</ele>
        <time>2025-02-18T14:02:58</time>
      </trkpt>
      <trkpt lat="45.15559" lon="5.63463">
        <ele>1647.4</ele>
        <time>2025-02-18T14:03:02</time>
      </trkpt>
      <trkpt lat="45.15558" lon="5.63464">
        <ele>1647.4</ele>
        <time>2025-02-18T14:03:04</time>
      </trkpt>
      <trkpt lat="45.15557" lon="5.63464">
        <ele>1647.4</ele>
        <time>2025-02-18T14:03:06</time>
      </trkpt>
      <trkpt lat="45.15555" lon="5.63464">
        <ele>1648.5</ele>
        <time>2025-02-18T14:03:09</time>
      </trkpt>
      <trkpt lat="45.15552" lon="5.63464">
        <ele>1648.5</ele>
        <time>2025-02-18T14:03:13</time>
      </trkpt>
      <trkpt lat="45.15547" lon="5.63461">
        <ele>1646.7333</ele>
        <time>2025-02-18T14:03:20</time>
      </trkpt>
      <trkpt lat="45.15541" lon="5.63459">
        <ele>1646.8</ele>
        <time>2025-02-18T14:03:28</time>
      </trkpt>
      <trkpt lat="45.15534" lon="5.6346">
        <ele>1648</ele>
        <time>2025-02-18T14:03:37</time>
      </trkpt>
      <trkpt lat="45.1553" lon="5.63461">
        <ele>1649.6</ele>
        <time>2025-02-18T14:03:42</time>
      </trkpt>
      <trkpt lat="45.1552" lon="5.6346">
        <ele>1652.6</ele>
        <time>2025-02-18T14:03:53</time>
      </trkpt>
      <trkpt lat="45.15515" lon="5.63461">
        <ele>1652.6</ele>
        <time>2025-02-18T14:03:58</time>
      </trkpt>
      <trkpt lat="45.15511" lon="5.63461">
        <ele>1654.8667</ele>
        <time>2025-02-18T14:04:02</time>
      </trkpt>
      <trkpt lat="45.15511" lon="5.63462">
        <ele>1654.8667</ele>
        <time>2025-02-18T14:04:02</time>
      </trkpt>
      <trkpt lat="45.1551" lon="5.63462">
        <ele>1654.8667</ele>
        <time>2025-02-18T14:04:04</time>
      </trkpt>
      <trkpt lat="45.15505" lon="5.63462">
        <ele>1656.8</ele>
        <time>2025-02-18T14:04:11</time>
      </trkpt>
      <trkpt lat="45.15504" lon="5.63462">
        <ele>1656.7</ele>
        <time>2025-02-18T14:04:14</time>
      </trkpt>
      <trkpt lat="45.15499" lon="5.63461">
        <ele>1657.1</ele>
        <time>2025-02-18T14:04:21</time>
      </trkpt>
      <trkpt lat="45.15494" lon="5.63462">
        <ele>1657.1</ele>
        <time>2025-02-18T14:04:27</time>
      </trkpt>
      <trkpt lat="45.1549" lon="5.63462">
        <ele>1656.6</ele>
        <time>2025-02-18T14:04:33</time>
      </trkpt>
      <trkpt lat="45.15489" lon="5.63461">
        <ele>1657.3</ele>
        <time>2025-02-18T14:04:35</time>
      </trkpt>
      <trkpt lat="45.15488" lon="5.63461">
        <ele>1657.3</ele>
        <time>2025-02-18T14:04:37</time>
      </trkpt>
      <trkpt lat="45.15486" lon="5.63461">
        <ele>1657.3</ele>
        <time>2025-02-18T14:04:41</time>
      </trkpt>
      <trkpt lat="45.15485" lon="5.63461">
        <ele>1657.3</ele>
        <time>2025-02-18T14:04:42</time>
      </trkpt>
      <trkpt lat="45.15484" lon="5.63461">
        <ele>1659.2</ele>
        <time>2025-02-18T14:04:43</time>
      </trkpt>
      <trkpt lat="45.15481" lon="5.63462">
        <ele>1659.2</ele>
        <time>2025-02-18T14:04:50</time>
      </trkpt>
      <trkpt lat="45.15477" lon="5.63464">
        <ele>1661.1</ele>
        <time>2025-02-18T14:04:57</time>
      </trkpt>
      <trkpt lat="45.15476" lon="5.63465">
        <ele>1662.2</ele>
        <time>2025-02-18T14:04:59</time>
      </trkpt>
      <trkpt lat="45.15475" lon="5.63465">
        <ele>1662.2</ele>
        <time>2025-02-18T14:05:00</time>
      </trkpt>
      <trkpt lat="45.15474" lon="5.63465">
        <ele>1662.2</ele>
        <time>2025-02-18T14:05:03</time>
      </trkpt>
      <trkpt lat="45.15469" lon="5.63466">
        <ele>1664</ele>
        <time>2025-02-18T14:05:09</time>
      </trkpt>
      <trkpt lat="45.15466" lon="5.63467">
        <ele>1664</ele>
        <time>2025-02-18T14:05:13</time>
      </trkpt>
      <trkpt lat="45.15465" lon="5.63467">
        <ele>1665.6</ele>
        <time>2025-02-18T14:05:14</time>
      </trkpt>
      <trkpt lat="45.15465" lon="5.63467">
        <ele>1665.6</ele>
        <time>2025-02-18T14:05:15</time>
      </trkpt>
      <trkpt lat="45.15463" lon="5.63469">
        <ele>1665.6</ele>
        <time>2025-02-18T14:05:19</time>
      </trkpt>
      <trkpt lat="45.15462" lon="5.63468">
        <ele>1665.6</ele>
        <time>2025-02-18T14:05:22</time>
      </trkpt>
      <trkpt lat="45.15463" lon="5.63469">
        <ele>1668.3667</ele>
        <time>2025-02-18T14:05:24</time>
      </trkpt>
      <trkpt lat="45.15462" lon="5.63469">
        <ele>1668.3667</ele>
        <time>2025-02-18T14:05:26</time>
      </trkpt>
      <trkpt lat="45.15462" lon="5.63469">
        <ele>1668.3667</ele>
        <time>2025-02-18T14:05:27</time>
      </trkpt>
      <trkpt lat="45.15462" lon="5.63469">
        <ele>1668.3667</ele>
        <time>2025-02-18T14:05:28</time>
      </trkpt>
      <trkpt lat="45.15462" lon="5.63469">
        <ele>1668.3667</ele>
        <time>2025-02-18T14:05:29</time>
      </trkpt>
      <trkpt lat="45.15462" lon="5.63469">
        <ele>1668.3667</ele>
        <time>2025-02-18T14:05:29</time>
      </trkpt>
      <trkpt lat="45.15461" lon="5.63469">
        <ele>1668.3667</ele>
        <time>2025-02-18T14:05:31</time>
      </trkpt>
      <trkpt lat="45.15461" lon="5.63469">
        <ele>1667.9</ele>
        <time>2025-02-18T14:05:31</time>
      </trkpt>
      <trkpt lat="45.1546" lon="5.6347">
        <ele>1667.9</ele>
        <time>2025-02-18T14:05:32</time>
      </trkpt>
      <trkpt lat="45.15459" lon="5.6347">
        <ele>1667.9</ele>
        <time>2025-02-18T14:05:33</time>
      </trkpt>
      <trkpt lat="45.15457" lon="5.6347">
        <ele>1667.9</ele>
        <time>2025-02-18T14:05:35</time>
      </trkpt>
      <trkpt lat="45.15456" lon="5.6347">
        <ele>1667.9</ele>
        <time>2025-02-18T14:05:36</time>
      </trkpt>
      <trkpt lat="45.15455" lon="5.63471">
        <ele>1667.9</ele>
        <time>2025-02-18T14:05:37</time>
      </trkpt>
      <trkpt lat="45.15454" lon="5.63471">
        <ele>1666.9</ele>
        <time>2025-02-18T14:05:38</time>
      </trkpt>
      <trkpt lat="45.15454" lon="5.63472">
        <ele>1666.9</ele>
        <time>2025-02-18T14:05:39</time>
      </trkpt>
      <trkpt lat="45.15453" lon="5.63472">
        <ele>1666.9</ele>
        <time>2025-02-18T14:05:40</time>
      </trkpt>
      <trkpt lat="45.15453" lon="5.63473">
        <ele>1666.9</ele>
        <time>2025-02-18T14:05:41</time>
      </trkpt>
      <trkpt lat="45.15453" lon="5.63473">
        <ele>1666.9</ele>
        <time>2025-02-18T14:05:41</time>
      </trkpt>
      <trkpt lat="45.15449" lon="5.63477">
        <ele>1668.5</ele>
        <time>2025-02-18T14:05:48</time>
      </trkpt>
      <trkpt lat="45.15445" lon="5.63481">
        <ele>1668.7333</ele>
        <time>2025-02-18T14:05:54</time>
      </trkpt>
      <trkpt lat="45.15444" lon="5.6348">
        <ele>1668.7333</ele>
        <time>2025-02-18T14:05:55</time>
      </trkpt>
      <trkpt lat="45.15444" lon="5.6348">
        <ele>1668.7333</ele>
        <time>2025-02-18T14:05:56</time>
      </trkpt>
      <trkpt lat="45.15443" lon="5.6348">
        <ele>1668.7333</ele>
        <time>2025-02-18T14:05:56</time>
      </trkpt>
      <trkpt lat="45.15443" lon="5.63481">
        <ele>1668.7333</ele>
        <time>2025-02-18T14:05:57</time>
      </trkpt>
      <trkpt lat="45.15442" lon="5.63482">
        <ele>1668.7333</ele>
        <time>2025-02-18T14:05:58</time>
      </trkpt>
      <trkpt lat="45.15434" lon="5.63488">
        <ele>1671.4</ele>
        <time>2025-02-18T14:06:09</time>
      </trkpt>
      <trkpt lat="45.15432" lon="5.63489">
        <ele>1671.4</ele>
        <time>2025-02-18T14:06:11</time>
      </trkpt>
      <trkpt lat="45.15431" lon="5.63489">
        <ele>1671.4</ele>
        <time>2025-02-18T14:06:12</time>
      </trkpt>
      <trkpt lat="45.15431" lon="5.63488">
        <ele>1671.4</ele>
        <time>2025-02-18T14:06:12</time>
      </trkpt>
      <trkpt lat="45.15431" lon="5.63488">
        <ele>1671.4</ele>
        <time>2025-02-18T14:06:13</time>
      </trkpt>
      <trkpt lat="45.15431" lon="5.63488">
        <ele>1671.1</ele>
        <time>2025-02-18T14:06:14</time>
      </trkpt>
      <trkpt lat="45.15429" lon="5.6349">
        <ele>1671.1</ele>
        <time>2025-02-18T14:06:16</time>
      </trkpt>
      <trkpt lat="45.15428" lon="5.63491">
        <ele>1671.1</ele>
        <time>2025-02-18T14:06:19</time>
      </trkpt>
      <trkpt lat="45.15429" lon="5.63492">
        <ele>1671.9</ele>
        <time>2025-02-18T14:06:25</time>
      </trkpt>
      <trkpt lat="45.15429" lon="5.63492">
        <ele>1671.9</ele>
        <time>2025-02-18T14:06:27</time>
      </trkpt>
      <trkpt lat="45.15429" lon="5.63492">
        <ele>1671.9</ele>
        <time>2025-02-18T14:06:28</time>
      </trkpt>
      <trkpt lat="45.15429" lon="5.63492">
        <ele>1671.9</ele>
        <time>2025-02-18T14:06:29</time>
      </trkpt>
      <trkpt lat="45.15429" lon="5.63492">
        <ele>1671.9</ele>
        <time>2025-02-18T14:06:39</time>
      </trkpt>
      <trkpt lat="45.15429" lon="5.63492">
        <ele>1671.9</ele>
        <time>2025-02-18T14:06:47</time>
      </trkpt>
      <trkpt lat="45.15429" lon="5.63492">
        <ele>1671.9</ele>
        <time>2025-02-18T14:06:55</time>
      </trkpt>
      <trkpt lat="45.15428" lon="5.63492">
        <ele>1671.9</ele>
        <time>2025-02-18T14:06:56</time>
      </trkpt>
      <trkpt lat="45.15427" lon="5.63493">
        <ele>1671.9</ele>
        <time>2025-02-18T14:06:57</time>
      </trkpt>
      <trkpt lat="45.15421" lon="5.63498">
        <ele>1671.9333</ele>
        <time>2025-02-18T14:07:02</time>
      </trkpt>
      <trkpt lat="45.15418" lon="5.63499">
        <ele>1671.9333</ele>
        <time>2025-02-18T14:07:07</time>
      </trkpt>
      <trkpt lat="45.15415" lon="5.63499">
        <ele>1673.7</ele>
        <time>2025-02-18T14:07:10</time>
      </trkpt>
      <trkpt lat="45.15413" lon="5.63499">
        <ele>1673.7</ele>
        <time>2025-02-18T14:07:13</time>
      </trkpt>
      <trkpt lat="45.15412" lon="5.63499">
        <ele>1674.5</ele>
        <time>2025-02-18T14:07:14</time>
      </trkpt>
      <trkpt lat="45.15407" lon="5.635">
        <ele>1674.5</ele>
        <time>2025-02-18T14:07:20</time>
      </trkpt>
      <trkpt lat="45.15404" lon="5.63499">
        <ele>1675.2</ele>
        <time>2025-02-18T14:07:24</time>
      </trkpt>
      <trkpt lat="45.15404" lon="5.63499">
        <ele>1675.2</ele>
        <time>2025-02-18T14:07:25</time>
      </trkpt>
      <trkpt lat="45.15404" lon="5.63498">
        <ele>1675.2</ele>
        <time>2025-02-18T14:07:26</time>
      </trkpt>
      <trkpt lat="45.15403" lon="5.63497">
        <ele>1675.2</ele>
        <time>2025-02-18T14:07:26</time>
      </trkpt>
      <trkpt lat="45.15403" lon="5.63497">
        <ele>1675.2</ele>
        <time>2025-02-18T14:07:27</time>
      </trkpt>
      <trkpt lat="45.15402" lon="5.63497">
        <ele>1675.2</ele>
        <time>2025-02-18T14:07:28</time>
      </trkpt>
      <trkpt lat="45.15402" lon="5.63498">
        <ele>1674.7</ele>
        <time>2025-02-18T14:07:29</time>
      </trkpt>
      <trkpt lat="45.15401" lon="5.63498">
        <ele>1674.7</ele>
        <time>2025-02-18T14:07:29</time>
      </trkpt>
      <trkpt lat="45.154" lon="5.63499">
        <ele>1674.7</ele>
        <time>2025-02-18T14:07:31</time>
      </trkpt>
      <trkpt lat="45.15399" lon="5.635">
        <ele>1674.7</ele>
        <time>2025-02-18T14:07:33</time>
      </trkpt>
      <trkpt lat="45.15399" lon="5.635">
        <ele>1674.7</ele>
        <time>2025-02-18T14:07:34</time>
      </trkpt>
      <trkpt lat="45.15398" lon="5.63501">
        <ele>1674.7</ele>
        <time>2025-02-18T14:07:34</time>
      </trkpt>
      <trkpt lat="45.15397" lon="5.63501">
        <ele>1674.8667</ele>
        <time>2025-02-18T14:07:36</time>
      </trkpt>
      <trkpt lat="45.15396" lon="5.63501">
        <ele>1674.8667</ele>
        <time>2025-02-18T14:07:37</time>
      </trkpt>
      <trkpt lat="45.15393" lon="5.63502">
        <ele>1674.8667</ele>
        <time>2025-02-18T14:07:41</time>
      </trkpt>
      <trkpt lat="45.15392" lon="5.63503">
        <ele>1674.8667</ele>
        <time>2025-02-18T14:07:42</time>
      </trkpt>
      <trkpt lat="45.15391" lon="5.63503">
        <ele>1676.3334</ele>
        <time>2025-02-18T14:07:43</time>
      </trkpt>
      <trkpt lat="45.15391" lon="5.63503">
        <ele>1676.3334</ele>
        <time>2025-02-18T14:07:43</time>
      </trkpt>
      <trkpt lat="45.1539" lon="5.63503">
        <ele>1676.3334</ele>
        <time>2025-02-18T14:07:44</time>
      </trkpt>
      <trkpt lat="45.1539" lon="5.63504">
        <ele>1676.3334</ele>
        <time>2025-02-18T14:07:45</time>
      </trkpt>
      <trkpt lat="45.15388" lon="5.63506">
        <ele>1676.3334</ele>
        <time>2025-02-18T14:07:48</time>
      </trkpt>
      <trkpt lat="45.15387" lon="5.63507">
        <ele>1676.3334</ele>
        <time>2025-02-18T14:07:49</time>
      </trkpt>
      <trkpt lat="45.15387" lon="5.63507">
        <ele>1677</ele>
        <time>2025-02-18T14:07:50</time>
      </trkpt>
      <trkpt lat="45.15386" lon="5.63508">
        <ele>1677</ele>
        <time>2025-02-18T14:07:51</time>
      </trkpt>
      <trkpt lat="45.15377" lon="5.63514">
        <ele>1676.9</ele>
        <time>2025-02-18T14:08:04</time>
      </trkpt>
      <trkpt lat="45.15376" lon="5.63514">
        <ele>1677.3</ele>
        <time>2025-02-18T14:08:06</time>
      </trkpt>
      <trkpt lat="45.15375" lon="5.63514">
        <ele>1677.3</ele>
        <time>2025-02-18T14:08:08</time>
      </trkpt>
      <trkpt lat="45.15375" lon="5.63514">
        <ele>1677.3</ele>
        <time>2025-02-18T14:08:09</time>
      </trkpt>
      <trkpt lat="45.15372" lon="5.63518">
        <ele>1677.1</ele>
        <time>2025-02-18T14:08:14</time>
      </trkpt>
      <trkpt lat="45.15371" lon="5.63519">
        <ele>1677.1</ele>
        <time>2025-02-18T14:08:15</time>
      </trkpt>
      <trkpt lat="45.15369" lon="5.63521">
        <ele>1677.1</ele>
        <time>2025-02-18T14:08:20</time>
      </trkpt>
      <trkpt lat="45.15368" lon="5.63522">
        <ele>1678.7</ele>
        <time>2025-02-18T14:08:22</time>
      </trkpt>
      <trkpt lat="45.15364" lon="5.63526">
        <ele>1682.1</ele>
        <time>2025-02-18T14:08:30</time>
      </trkpt>
      <trkpt lat="45.15362" lon="5.63528">
        <ele>1682.1</ele>
        <time>2025-02-18T14:08:33</time>
      </trkpt>
      <trkpt lat="45.15359" lon="5.6353">
        <ele>1685.1</ele>
        <time>2025-02-18T14:08:39</time>
      </trkpt>
      <trkpt lat="45.15357" lon="5.63531">
        <ele>1685.1</ele>
        <time>2025-02-18T14:08:42</time>
      </trkpt>
      <trkpt lat="45.15354" lon="5.63532">
        <ele>1687.7333</ele>
        <time>2025-02-18T14:08:45</time>
      </trkpt>
      <trkpt lat="45.15354" lon="5.63533">
        <ele>1687.7333</ele>
        <time>2025-02-18T14:08:47</time>
      </trkpt>
      <trkpt lat="45.15351" lon="5.63537">
        <ele>1687.8334</ele>
        <time>2025-02-18T14:08:53</time>
      </trkpt>
      <trkpt lat="45.15348" lon="5.63539">
        <ele>1687.8334</ele>
        <time>2025-02-18T14:08:57</time>
      </trkpt>
      <trkpt lat="45.15347" lon="5.6354">
        <ele>1687.8334</ele>
        <time>2025-02-18T14:08:59</time>
      </trkpt>
      <trkpt lat="45.15345" lon="5.6354">
        <ele>1687.7</ele>
        <time>2025-02-18T14:09:02</time>
      </trkpt>
      <trkpt lat="45.15343" lon="5.63541">
        <ele>1687.7</ele>
        <time>2025-02-18T14:09:06</time>
      </trkpt>
      <trkpt lat="45.15342" lon="5.63541">
        <ele>1687.7</ele>
        <time>2025-02-18T14:09:07</time>
      </trkpt>
      <trkpt lat="45.15339" lon="5.63543">
        <ele>1687.3</ele>
        <time>2025-02-18T14:09:11</time>
      </trkpt>
      <trkpt lat="45.15337" lon="5.63543">
        <ele>1687.3</ele>
        <time>2025-02-18T14:09:16</time>
      </trkpt>
      <trkpt lat="45.15335" lon="5.63543">
        <ele>1688.8</ele>
        <time>2025-02-18T14:09:19</time>
      </trkpt>
      <trkpt lat="45.15332" lon="5.63543">
        <ele>1688.8</ele>
        <time>2025-02-18T14:09:23</time>
      </trkpt>
      <trkpt lat="45.15331" lon="5.63543">
        <ele>1688.8</ele>
        <time>2025-02-18T14:09:24</time>
      </trkpt>
      <trkpt lat="45.1533" lon="5.63542">
        <ele>1688.8</ele>
        <time>2025-02-18T14:09:25</time>
      </trkpt>
      <trkpt lat="45.1533" lon="5.63542">
        <ele>1690.3</ele>
        <time>2025-02-18T14:09:26</time>
      </trkpt>
      <trkpt lat="45.15329" lon="5.63543">
        <ele>1690.3</ele>
        <time>2025-02-18T14:09:28</time>
      </trkpt>
      <trkpt lat="45.15328" lon="5.63544">
        <ele>1690.3</ele>
        <time>2025-02-18T14:09:31</time>
      </trkpt>
      <trkpt lat="45.15326" lon="5.63545">
        <ele>1691.4</ele>
        <time>2025-02-18T14:09:35</time>
      </trkpt>
      <trkpt lat="45.15324" lon="5.63545">
        <ele>1691.4</ele>
        <time>2025-02-18T14:09:38</time>
      </trkpt>
      <trkpt lat="45.15324" lon="5.63545">
        <ele>1691.4</ele>
        <time>2025-02-18T14:09:39</time>
      </trkpt>
      <trkpt lat="45.15319" lon="5.63546">
        <ele>1690.9</ele>
        <time>2025-02-18T14:09:45</time>
      </trkpt>
      <trkpt lat="45.15317" lon="5.63546">
        <ele>1690.9</ele>
        <time>2025-02-18T14:09:49</time>
      </trkpt>
      <trkpt lat="45.15315" lon="5.63547">
        <ele>1692.4</ele>
        <time>2025-02-18T14:09:53</time>
      </trkpt>
      <trkpt lat="45.15311" lon="5.63545">
        <ele>1694.5</ele>
        <time>2025-02-18T14:10:00</time>
      </trkpt>
      <trkpt lat="45.15309" lon="5.63544">
        <ele>1694.5</ele>
        <time>2025-02-18T14:10:04</time>
      </trkpt>
      <trkpt lat="45.15307" lon="5.63543">
        <ele>1694.5</ele>
        <time>2025-02-18T14:10:07</time>
      </trkpt>
      <trkpt lat="45.15307" lon="5.63543">
        <ele>1697.6333</ele>
        <time>2025-02-18T14:10:08</time>
      </trkpt>
      <trkpt lat="45.15303" lon="5.63542">
        <ele>1698</ele>
        <time>2025-02-18T14:10:16</time>
      </trkpt>
      <trkpt lat="45.15303" lon="5.63543">
        <ele>1698</ele>
        <time>2025-02-18T14:10:17</time>
      </trkpt>
      <trkpt lat="45.15302" lon="5.63542">
        <ele>1698</ele>
        <time>2025-02-18T14:10:19</time>
      </trkpt>
      <trkpt lat="45.15302" lon="5.63543">
        <ele>1698</ele>
        <time>2025-02-18T14:10:21</time>
      </trkpt>
      <trkpt lat="45.15301" lon="5.63543">
        <ele>1698</ele>
        <time>2025-02-18T14:10:21</time>
      </trkpt>
      <trkpt lat="45.15301" lon="5.63543">
        <ele>1698</ele>
        <time>2025-02-18T14:10:22</time>
      </trkpt>
      <trkpt lat="45.15301" lon="5.63542">
        <ele>1698.4</ele>
        <time>2025-02-18T14:10:24</time>
      </trkpt>
      <trkpt lat="45.15299" lon="5.63542">
        <ele>1698.4</ele>
        <time>2025-02-18T14:10:27</time>
      </trkpt>
      <trkpt lat="45.15297" lon="5.6354">
        <ele>1699</ele>
        <time>2025-02-18T14:10:32</time>
      </trkpt>
      <trkpt lat="45.15296" lon="5.63539">
        <ele>1699</ele>
        <time>2025-02-18T14:10:34</time>
      </trkpt>
      <trkpt lat="45.15295" lon="5.63539">
        <ele>1699</ele>
        <time>2025-02-18T14:10:35</time>
      </trkpt>
      <trkpt lat="45.15294" lon="5.63539">
        <ele>1699</ele>
        <time>2025-02-18T14:10:37</time>
      </trkpt>
      <trkpt lat="45.15293" lon="5.63538">
        <ele>1699</ele>
        <time>2025-02-18T14:10:38</time>
      </trkpt>
      <trkpt lat="45.15293" lon="5.63538">
        <ele>1699</ele>
        <time>2025-02-18T14:10:39</time>
      </trkpt>
      <trkpt lat="45.15292" lon="5.63538">
        <ele>1700.9333</ele>
        <time>2025-02-18T14:10:40</time>
      </trkpt>
      <trkpt lat="45.15293" lon="5.63537">
        <ele>1700.9333</ele>
        <time>2025-02-18T14:10:41</time>
      </trkpt>
      <trkpt lat="45.15293" lon="5.63536">
        <ele>1700.9333</ele>
        <time>2025-02-18T14:10:44</time>
      </trkpt>
      <trkpt lat="45.15293" lon="5.63536">
        <ele>1700.9333</ele>
        <time>2025-02-18T14:10:47</time>
      </trkpt>
      <trkpt lat="45.15293" lon="5.63536">
        <ele>1700.9333</ele>
        <time>2025-02-18T14:10:48</time>
      </trkpt>
      <trkpt lat="45.15292" lon="5.63536">
        <ele>1703.9</ele>
        <time>2025-02-18T14:10:50</time>
      </trkpt>
      <trkpt lat="45.15292" lon="5.63535">
        <ele>1703.9</ele>
        <time>2025-02-18T14:10:51</time>
      </trkpt>
      <trkpt lat="45.15291" lon="5.63534">
        <ele>1703.9</ele>
        <time>2025-02-18T14:10:52</time>
      </trkpt>
      <trkpt lat="45.1529" lon="5.63534">
        <ele>1703.9</ele>
        <time>2025-02-18T14:10:53</time>
      </trkpt>
      <trkpt lat="45.1529" lon="5.63534">
        <ele>1703.9</ele>
        <time>2025-02-18T14:10:53</time>
      </trkpt>
      <trkpt lat="45.15288" lon="5.63535">
        <ele>1703.9</ele>
        <time>2025-02-18T14:10:56</time>
      </trkpt>
      <trkpt lat="45.15287" lon="5.63536">
        <ele>1703.9</ele>
        <time>2025-02-18T14:10:58</time>
      </trkpt>
      <trkpt lat="45.15287" lon="5.63536">
        <ele>1703.9</ele>
        <time>2025-02-18T14:10:59</time>
      </trkpt>
      <trkpt lat="45.15287" lon="5.63536">
        <ele>1703.9</ele>
        <time>2025-02-18T14:10:59</time>
      </trkpt>
      <trkpt lat="45.15286" lon="5.63536">
        <ele>1703.9</ele>
        <time>2025-02-18T14:11:00</time>
      </trkpt>
      <trkpt lat="45.15286" lon="5.63537">
        <ele>1703.9</ele>
        <time>2025-02-18T14:11:01</time>
      </trkpt>
      <trkpt lat="45.15284" lon="5.63537">
        <ele>1703.9</ele>
        <time>2025-02-18T14:11:04</time>
      </trkpt>
      <trkpt lat="45.15284" lon="5.63538">
        <ele>1703.9</ele>
        <time>2025-02-18T14:11:05</time>
      </trkpt>
      <trkpt lat="45.15283" lon="5.63537">
        <ele>1705.1</ele>
        <time>2025-02-18T14:11:06</time>
      </trkpt>
      <trkpt lat="45.15283" lon="5.63537">
        <ele>1705.1</ele>
        <time>2025-02-18T14:11:07</time>
      </trkpt>
      <trkpt lat="45.15282" lon="5.63537">
        <ele>1705.1</ele>
        <time>2025-02-18T14:11:08</time>
      </trkpt>
      <trkpt lat="45.15282" lon="5.63536">
        <ele>1705.1</ele>
        <time>2025-02-18T14:11:09</time>
      </trkpt>
      <trkpt lat="45.15282" lon="5.63536">
        <ele>1705.1</ele>
        <time>2025-02-18T14:11:10</time>
      </trkpt>
      <trkpt lat="45.15282" lon="5.63536">
        <ele>1705.1</ele>
        <time>2025-02-18T14:11:12</time>
      </trkpt>
      <trkpt lat="45.15282" lon="5.63537">
        <ele>1705.1</ele>
        <time>2025-02-18T14:11:14</time>
      </trkpt>
      <trkpt lat="45.15281" lon="5.63537">
        <ele>1705.9</ele>
        <time>2025-02-18T14:11:15</time>
      </trkpt>
      <trkpt lat="45.15281" lon="5.63537">
        <ele>1705.9</ele>
        <time>2025-02-18T14:11:16</time>
      </trkpt>
      <trkpt lat="45.15281" lon="5.63537">
        <ele>1705.9</ele>
        <time>2025-02-18T14:11:17</time>
      </trkpt>
      <trkpt lat="45.1528" lon="5.63536">
        <ele>1705.9</ele>
        <time>2025-02-18T14:11:18</time>
      </trkpt>
      <trkpt lat="45.15276" lon="5.63534">
        <ele>1706.4</ele>
        <time>2025-02-18T14:11:22</time>
      </trkpt>
      <trkpt lat="45.15274" lon="5.63534">
        <ele>1706.4</ele>
        <time>2025-02-18T14:11:24</time>
      </trkpt>
      <trkpt lat="45.15272" lon="5.63532">
        <ele>1706.4</ele>
        <time>2025-02-18T14:11:27</time>
      </trkpt>
      <trkpt lat="45.15266" lon="5.63525">
        <ele>1706.8</ele>
        <time>2025-02-18T14:11:35</time>
      </trkpt>
      <trkpt lat="45.15264" lon="5.63524">
        <ele>1707.4</ele>
        <time>2025-02-18T14:11:37</time>
      </trkpt>
      <trkpt lat="45.15245" lon="5.63508">
        <ele>1710.5</ele>
        <time>2025-02-18T14:11:57</time>
      </trkpt>
      <trkpt lat="45.15241" lon="5.63502">
        <ele>1710.3</ele>
        <time>2025-02-18T14:12:03</time>
      </trkpt>
      <trkpt lat="45.15236" lon="5.63497">
        <ele>1711.8</ele>
        <time>2025-02-18T14:12:11</time>
      </trkpt>
      <trkpt lat="45.15224" lon="5.63493">
        <ele>1714.7</ele>
        <time>2025-02-18T14:12:24</time>
      </trkpt>
      <trkpt lat="45.15223" lon="5.63493">
        <ele>1714.7</ele>
        <time>2025-02-18T14:12:26</time>
      </trkpt>
      <trkpt lat="45.15221" lon="5.63494">
        <ele>1714.7</ele>
        <time>2025-02-18T14:12:28</time>
      </trkpt>
      <trkpt lat="45.15219" lon="5.63493">
        <ele>1714.5</ele>
        <time>2025-02-18T14:12:30</time>
      </trkpt>
      <trkpt lat="45.15209" lon="5.6349">
        <ele>1714.3</ele>
        <time>2025-02-18T14:12:41</time>
      </trkpt>
      <trkpt lat="45.15206" lon="5.63489">
        <ele>1713.8</ele>
        <time>2025-02-18T14:12:45</time>
      </trkpt>
      <trkpt lat="45.15205" lon="5.63488">
        <ele>1713.8</ele>
        <time>2025-02-18T14:12:46</time>
      </trkpt>
      <trkpt lat="45.15202" lon="5.63487">
        <ele>1713.8</ele>
        <time>2025-02-18T14:12:50</time>
      </trkpt>
      <trkpt lat="45.15195" lon="5.63482">
        <ele>1713.7</ele>
        <time>2025-02-18T14:12:57</time>
      </trkpt>
      <trkpt lat="45.15194" lon="5.63481">
        <ele>1714.5</ele>
        <time>2025-02-18T14:12:58</time>
      </trkpt>
      <trkpt lat="45.15192" lon="5.6348">
        <ele>1714.5</ele>
        <time>2025-02-18T14:13:00</time>
      </trkpt>
      <trkpt lat="45.15191" lon="5.6348">
        <ele>1714.5</ele>
        <time>2025-02-18T14:13:01</time>
      </trkpt>
      <trkpt lat="45.15191" lon="5.6348">
        <ele>1714.5</ele>
        <time>2025-02-18T14:13:02</time>
      </trkpt>
      <trkpt lat="45.1519" lon="5.63481">
        <ele>1714.5</ele>
        <time>2025-02-18T14:13:03</time>
      </trkpt>
      <trkpt lat="45.15189" lon="5.63481">
        <ele>1716.7</ele>
        <time>2025-02-18T14:13:05</time>
      </trkpt>
      <trkpt lat="45.15188" lon="5.63481">
        <ele>1716.7</ele>
        <time>2025-02-18T14:13:05</time>
      </trkpt>
      <trkpt lat="45.15188" lon="5.6348">
        <ele>1716.7</ele>
        <time>2025-02-18T14:13:06</time>
      </trkpt>
      <trkpt lat="45.15188" lon="5.6348">
        <ele>1716.7</ele>
        <time>2025-02-18T14:13:07</time>
      </trkpt>
      <trkpt lat="45.15187" lon="5.6348">
        <ele>1716.7</ele>
        <time>2025-02-18T14:13:07</time>
      </trkpt>
      <trkpt lat="45.15186" lon="5.6348">
        <ele>1716.7</ele>
        <time>2025-02-18T14:13:09</time>
      </trkpt>
      <trkpt lat="45.15176" lon="5.6348">
        <ele>1720.5</ele>
        <time>2025-02-18T14:13:18</time>
      </trkpt>
      <trkpt lat="45.15173" lon="5.63479">
        <ele>1720.5</ele>
        <time>2025-02-18T14:13:20</time>
      </trkpt>
      <trkpt lat="45.15169" lon="5.63479">
        <ele>1720.5</ele>
        <time>2025-02-18T14:13:24</time>
      </trkpt>
      <trkpt lat="45.15168" lon="5.63479">
        <ele>1720.5</ele>
        <time>2025-02-18T14:13:25</time>
      </trkpt>
      <trkpt lat="45.15167" lon="5.63478">
        <ele>1720.5</ele>
        <time>2025-02-18T14:13:25</time>
      </trkpt>
      <trkpt lat="45.15167" lon="5.63478">
        <ele>1720.5</ele>
        <time>2025-02-18T14:13:26</time>
      </trkpt>
      <trkpt lat="45.15166" lon="5.63478">
        <ele>1720.5</ele>
        <time>2025-02-18T14:13:27</time>
      </trkpt>
      <trkpt lat="45.15165" lon="5.63478">
        <ele>1720.5</ele>
        <time>2025-02-18T14:13:28</time>
      </trkpt>
      <trkpt lat="45.15159" lon="5.63479">
        <ele>1720</ele>
        <time>2025-02-18T14:13:35</time>
      </trkpt>
      <trkpt lat="45.15158" lon="5.63479">
        <ele>1720</ele>
        <time>2025-02-18T14:13:37</time>
      </trkpt>
      <trkpt lat="45.15156" lon="5.63479">
        <ele>1721.1</ele>
        <time>2025-02-18T14:13:40</time>
      </trkpt>
      <trkpt lat="45.15155" lon="5.63479">
        <ele>1721.1</ele>
        <time>2025-02-18T14:13:41</time>
      </trkpt>
      <trkpt lat="45.15154" lon="5.63479">
        <ele>1721.1</ele>
        <time>2025-02-18T14:13:42</time>
      </trkpt>
      <trkpt lat="45.15153" lon="5.6348">
        <ele>1721.1</ele>
        <time>2025-02-18T14:13:44</time>
      </trkpt>
      <trkpt lat="45.15151" lon="5.6348">
        <ele>1721.1</ele>
        <time>2025-02-18T14:13:45</time>
      </trkpt>
      <trkpt lat="45.15151" lon="5.63481">
        <ele>1723.3</ele>
        <time>2025-02-18T14:13:46</time>
      </trkpt>
      <trkpt lat="45.1515" lon="5.63481">
        <ele>1723.3</ele>
        <time>2025-02-18T14:13:47</time>
      </trkpt>
      <trkpt lat="45.15149" lon="5.63481">
        <ele>1723.3</ele>
        <time>2025-02-18T14:13:48</time>
      </trkpt>
      <trkpt lat="45.15148" lon="5.63481">
        <ele>1723.3</ele>
        <time>2025-02-18T14:13:49</time>
      </trkpt>
      <trkpt lat="45.15147" lon="5.63481">
        <ele>1723.3</ele>
        <time>2025-02-18T14:13:52</time>
      </trkpt>
      <trkpt lat="45.15141" lon="5.63481">
        <ele>1723.5667</ele>
        <time>2025-02-18T14:14:00</time>
      </trkpt>
      <trkpt lat="45.1514" lon="5.6348">
        <ele>1723.5667</ele>
        <time>2025-02-18T14:14:01</time>
      </trkpt>
      <trkpt lat="45.15138" lon="5.63481">
        <ele>1723.5667</ele>
        <time>2025-02-18T14:14:02</time>
      </trkpt>
      <trkpt lat="45.15137" lon="5.63481">
        <ele>1723.5667</ele>
        <time>2025-02-18T14:14:05</time>
      </trkpt>
      <trkpt lat="45.15135" lon="5.63482">
        <ele>1724</ele>
        <time>2025-02-18T14:14:07</time>
      </trkpt>
      <trkpt lat="45.15134" lon="5.63483">
        <ele>1724</ele>
        <time>2025-02-18T14:14:08</time>
      </trkpt>
      <trkpt lat="45.15133" lon="5.63485">
        <ele>1724</ele>
        <time>2025-02-18T14:14:11</time>
      </trkpt>
      <trkpt lat="45.15132" lon="5.63485">
        <ele>1724</ele>
        <time>2025-02-18T14:14:13</time>
      </trkpt>
      <trkpt lat="45.1513" lon="5.63486">
        <ele>1725.4</ele>
        <time>2025-02-18T14:14:15</time>
      </trkpt>
      <trkpt lat="45.15129" lon="5.63487">
        <ele>1725.4</ele>
        <time>2025-02-18T14:14:17</time>
      </trkpt>
      <trkpt lat="45.15121" lon="5.6349">
        <ele>1725.4</ele>
        <time>2025-02-18T14:14:27</time>
      </trkpt>
      <trkpt lat="45.15116" lon="5.63493">
        <ele>1725.0333</ele>
        <time>2025-02-18T14:14:34</time>
      </trkpt>
      <trkpt lat="45.15115" lon="5.63493">
        <ele>1725.0333</ele>
        <time>2025-02-18T14:14:35</time>
      </trkpt>
      <trkpt lat="45.15114" lon="5.63493">
        <ele>1725.1666</ele>
        <time>2025-02-18T14:14:36</time>
      </trkpt>
      <trkpt lat="45.15109" lon="5.63494">
        <ele>1725.1666</ele>
        <time>2025-02-18T14:14:43</time>
      </trkpt>
      <trkpt lat="45.1509" lon="5.63496">
        <ele>1725.1</ele>
        <time>2025-02-18T14:15:02</time>
      </trkpt>
      <trkpt lat="45.15086" lon="5.63495">
        <ele>1727.8</ele>
        <time>2025-02-18T14:15:06</time>
      </trkpt>
      <trkpt lat="45.15085" lon="5.63495">
        <ele>1727.8</ele>
        <time>2025-02-18T14:15:08</time>
      </trkpt>
      <trkpt lat="45.15085" lon="5.63495">
        <ele>1727.8</ele>
        <time>2025-02-18T14:15:08</time>
      </trkpt>
      <trkpt lat="45.15083" lon="5.63496">
        <ele>1727.8</ele>
        <time>2025-02-18T14:15:10</time>
      </trkpt>
      <trkpt lat="45.15079" lon="5.63497">
        <ele>1730</ele>
        <time>2025-02-18T14:15:15</time>
      </trkpt>
      <trkpt lat="45.15072" lon="5.635">
        <ele>1731.4</ele>
        <time>2025-02-18T14:15:24</time>
      </trkpt>
      <trkpt lat="45.15071" lon="5.635">
        <ele>1731.4</ele>
        <time>2025-02-18T14:15:26</time>
      </trkpt>
      <trkpt lat="45.15069" lon="5.63501">
        <ele>1732.6</ele>
        <time>2025-02-18T14:15:30</time>
      </trkpt>
      <trkpt lat="45.15067" lon="5.63502">
        <ele>1734.1</ele>
        <time>2025-02-18T14:15:35</time>
      </trkpt>
      <trkpt lat="45.15063" lon="5.63503">
        <ele>1734.1</ele>
        <time>2025-02-18T14:15:41</time>
      </trkpt>
      <trkpt lat="45.15063" lon="5.63503">
        <ele>1735.6</ele>
        <time>2025-02-18T14:15:42</time>
      </trkpt>
      <trkpt lat="45.15061" lon="5.63503">
        <ele>1735.6</ele>
        <time>2025-02-18T14:15:43</time>
      </trkpt>
      <trkpt lat="45.15061" lon="5.63504">
        <ele>1735.6</ele>
        <time>2025-02-18T14:15:45</time>
      </trkpt>
      <trkpt lat="45.15058" lon="5.63506">
        <ele>1737.1</ele>
        <time>2025-02-18T14:15:50</time>
      </trkpt>
      <trkpt lat="45.15056" lon="5.63508">
        <ele>1737.1</ele>
        <time>2025-02-18T14:15:53</time>
      </trkpt>
      <trkpt lat="45.15055" lon="5.63509">
        <ele>1737.1</ele>
        <time>2025-02-18T14:15:55</time>
      </trkpt>
      <trkpt lat="45.15053" lon="5.6351">
        <ele>1737.7667</ele>
        <time>2025-02-18T14:15:57</time>
      </trkpt>
      <trkpt lat="45.1505" lon="5.63511">
        <ele>1737.7667</ele>
        <time>2025-02-18T14:16:02</time>
      </trkpt>
      <trkpt lat="45.15049" lon="5.63511">
        <ele>1737.7667</ele>
        <time>2025-02-18T14:16:03</time>
      </trkpt>
      <trkpt lat="45.15048" lon="5.63511">
        <ele>1738.4</ele>
        <time>2025-02-18T14:16:05</time>
      </trkpt>
      <trkpt lat="45.15042" lon="5.63514">
        <ele>1740.2</ele>
        <time>2025-02-18T14:16:16</time>
      </trkpt>
      <trkpt lat="45.1504" lon="5.63515">
        <ele>1741.7</ele>
        <time>2025-02-18T14:16:21</time>
      </trkpt>
      <trkpt lat="45.15037" lon="5.63517">
        <ele>1741.7</ele>
        <time>2025-02-18T14:16:26</time>
      </trkpt>
      <trkpt lat="45.15037" lon="5.63517">
        <ele>1741.7</ele>
        <time>2025-02-18T14:16:27</time>
      </trkpt>
      <trkpt lat="45.15037" lon="5.63517">
        <ele>1741.7</ele>
        <time>2025-02-18T14:16:28</time>
      </trkpt>
      <trkpt lat="45.15037" lon="5.63516">
        <ele>1744</ele>
        <time>2025-02-18T14:16:31</time>
      </trkpt>
      <trkpt lat="45.15037" lon="5.63516">
        <ele>1744</ele>
        <time>2025-02-18T14:16:32</time>
      </trkpt>
      <trkpt lat="45.15037" lon="5.63516">
        <ele>1744</ele>
        <time>2025-02-18T14:16:32</time>
      </trkpt>
      <trkpt lat="45.15036" lon="5.63517">
        <ele>1744</ele>
        <time>2025-02-18T14:16:34</time>
      </trkpt>
      <trkpt lat="45.15035" lon="5.63517">
        <ele>1744</ele>
        <time>2025-02-18T14:16:34</time>
      </trkpt>
      <trkpt lat="45.15033" lon="5.63517">
        <ele>1745.7</ele>
        <time>2025-02-18T14:16:37</time>
      </trkpt>
      <trkpt lat="45.15032" lon="5.63518">
        <ele>1745.7</ele>
        <time>2025-02-18T14:16:39</time>
      </trkpt>
      <trkpt lat="45.1503" lon="5.63518">
        <ele>1745.7</ele>
        <time>2025-02-18T14:16:41</time>
      </trkpt>
      <trkpt lat="45.15029" lon="5.63519">
        <ele>1748.9</ele>
        <time>2025-02-18T14:16:43</time>
      </trkpt>
      <trkpt lat="45.15028" lon="5.63519">
        <ele>1748.9</ele>
        <time>2025-02-18T14:16:45</time>
      </trkpt>
      <trkpt lat="45.15028" lon="5.6352">
        <ele>1748.9</ele>
        <time>2025-02-18T14:16:46</time>
      </trkpt>
      <trkpt lat="45.15028" lon="5.63521">
        <ele>1748.9</ele>
        <time>2025-02-18T14:16:48</time>
      </trkpt>
      <trkpt lat="45.15027" lon="5.63522">
        <ele>1748.9</ele>
        <time>2025-02-18T14:16:50</time>
      </trkpt>
      <trkpt lat="45.15026" lon="5.63522">
        <ele>1751.3</ele>
        <time>2025-02-18T14:16:51</time>
      </trkpt>
      <trkpt lat="45.15026" lon="5.63522">
        <ele>1751.3</ele>
        <time>2025-02-18T14:16:52</time>
      </trkpt>
      <trkpt lat="45.15024" lon="5.63523">
        <ele>1751.3</ele>
        <time>2025-02-18T14:16:55</time>
      </trkpt>
      <trkpt lat="45.15024" lon="5.63523">
        <ele>1751.3</ele>
        <time>2025-02-18T14:16:55</time>
      </trkpt>
      <trkpt lat="45.15023" lon="5.63522">
        <ele>1751.3</ele>
        <time>2025-02-18T14:16:58</time>
      </trkpt>
      <trkpt lat="45.15022" lon="5.63522">
        <ele>1753</ele>
        <time>2025-02-18T14:17:00</time>
      </trkpt>
      <trkpt lat="45.15023" lon="5.63522">
        <ele>1753</ele>
        <time>2025-02-18T14:17:01</time>
      </trkpt>
      <trkpt lat="45.15023" lon="5.63522">
        <ele>1753</ele>
        <time>2025-02-18T14:17:03</time>
      </trkpt>
      <trkpt lat="45.15023" lon="5.63522">
        <ele>1753</ele>
        <time>2025-02-18T14:17:04</time>
      </trkpt>
      <trkpt lat="45.15024" lon="5.63522">
        <ele>1753</ele>
        <time>2025-02-18T14:17:05</time>
      </trkpt>
      <trkpt lat="45.15024" lon="5.63522">
        <ele>1753</ele>
        <time>2025-02-18T14:17:06</time>
      </trkpt>
      <trkpt lat="45.15023" lon="5.63522">
        <ele>1753.1</ele>
        <time>2025-02-18T14:17:08</time>
      </trkpt>
      <trkpt lat="45.15022" lon="5.63522">
        <ele>1753.1</ele>
        <time>2025-02-18T14:17:08</time>
      </trkpt>
      <trkpt lat="45.1502" lon="5.63522">
        <ele>1753.1</ele>
        <time>2025-02-18T14:17:12</time>
      </trkpt>
      <trkpt lat="45.15019" lon="5.63522">
        <ele>1753.1</ele>
        <time>2025-02-18T14:17:12</time>
      </trkpt>
      <trkpt lat="45.15018" lon="5.63522">
        <ele>1752.2333</ele>
        <time>2025-02-18T14:17:15</time>
      </trkpt>
      <trkpt lat="45.15018" lon="5.63522">
        <ele>1752.2333</ele>
        <time>2025-02-18T14:17:15</time>
      </trkpt>
      <trkpt lat="45.15017" lon="5.63521">
        <ele>1752.2333</ele>
        <time>2025-02-18T14:17:17</time>
      </trkpt>
      <trkpt lat="45.15016" lon="5.63522">
        <ele>1752.2333</ele>
        <time>2025-02-18T14:17:19</time>
      </trkpt>
      <trkpt lat="45.15016" lon="5.63522">
        <ele>1752.2333</ele>
        <time>2025-02-18T14:17:19</time>
      </trkpt>
      <trkpt lat="45.15016" lon="5.63523">
        <ele>1752.2333</ele>
        <time>2025-02-18T14:17:20</time>
      </trkpt>
      <trkpt lat="45.15016" lon="5.63524">
        <ele>1752.2333</ele>
        <time>2025-02-18T14:17:21</time>
      </trkpt>
      <trkpt lat="45.15016" lon="5.63524">
        <ele>1751.7</ele>
        <time>2025-02-18T14:17:22</time>
      </trkpt>
      <trkpt lat="45.15016" lon="5.63524">
        <ele>1751.7</ele>
        <time>2025-02-18T14:17:23</time>
      </trkpt>
      <trkpt lat="45.15015" lon="5.63524">
        <ele>1751.7</ele>
        <time>2025-02-18T14:17:26</time>
      </trkpt>
      <trkpt lat="45.15015" lon="5.63525">
        <ele>1751.7</ele>
        <time>2025-02-18T14:17:27</time>
      </trkpt>
      <trkpt lat="45.15014" lon="5.63525">
        <ele>1751.7</ele>
        <time>2025-02-18T14:17:28</time>
      </trkpt>
      <trkpt lat="45.15013" lon="5.63526">
        <ele>1751.7</ele>
        <time>2025-02-18T14:17:29</time>
      </trkpt>
      <trkpt lat="45.15012" lon="5.63526">
        <ele>1751.1</ele>
        <time>2025-02-18T14:17:29</time>
      </trkpt>
      <trkpt lat="45.15009" lon="5.63526">
        <ele>1751.1</ele>
        <time>2025-02-18T14:17:31</time>
      </trkpt>
      <trkpt lat="45.15008" lon="5.63526">
        <ele>1751.1</ele>
        <time>2025-02-18T14:17:32</time>
      </trkpt>
      <trkpt lat="45.15008" lon="5.63527">
        <ele>1751.1</ele>
        <time>2025-02-18T14:17:32</time>
      </trkpt>
      <trkpt lat="45.15004" lon="5.63531">
        <ele>1750.7667</ele>
        <time>2025-02-18T14:17:37</time>
      </trkpt>
      <trkpt lat="45.15004" lon="5.63531">
        <ele>1750.7667</ele>
        <time>2025-02-18T14:17:38</time>
      </trkpt>
      <trkpt lat="45.15002" lon="5.63531">
        <ele>1750.7667</ele>
        <time>2025-02-18T14:17:43</time>
      </trkpt>
      <trkpt lat="45.15001" lon="5.63531">
        <ele>1750.7667</ele>
        <time>2025-02-18T14:17:44</time>
      </trkpt>
      <trkpt lat="45.15001" lon="5.6353">
        <ele>1750.7667</ele>
        <time>2025-02-18T14:17:45</time>
      </trkpt>
      <trkpt lat="45.15001" lon="5.63531">
        <ele>1752.2</ele>
        <time>2025-02-18T14:17:46</time>
      </trkpt>
      <trkpt lat="45.15" lon="5.63531">
        <ele>1752.2</ele>
        <time>2025-02-18T14:17:47</time>
      </trkpt>
      <trkpt lat="45.14998" lon="5.63531">
        <ele>1752.2</ele>
        <time>2025-02-18T14:17:50</time>
      </trkpt>
      <trkpt lat="45.14998" lon="5.63531">
        <ele>1752.2</ele>
        <time>2025-02-18T14:17:51</time>
      </trkpt>
      <trkpt lat="45.14997" lon="5.6353">
        <ele>1752.2</ele>
        <time>2025-02-18T14:17:52</time>
      </trkpt>
      <trkpt lat="45.14997" lon="5.63531">
        <ele>1752.2</ele>
        <time>2025-02-18T14:17:53</time>
      </trkpt>
      <trkpt lat="45.14996" lon="5.63532">
        <ele>1752.8</ele>
        <time>2025-02-18T14:17:54</time>
      </trkpt>
      <trkpt lat="45.14996" lon="5.63532">
        <ele>1752.8</ele>
        <time>2025-02-18T14:17:55</time>
      </trkpt>
      <trkpt lat="45.14995" lon="5.63532">
        <ele>1752.8</ele>
        <time>2025-02-18T14:17:56</time>
      </trkpt>
      <trkpt lat="45.14992" lon="5.63533">
        <ele>1752.8</ele>
        <time>2025-02-18T14:17:59</time>
      </trkpt>
      <trkpt lat="45.14989" lon="5.63533">
        <ele>1754.5</ele>
        <time>2025-02-18T14:18:03</time>
      </trkpt>
      <trkpt lat="45.14988" lon="5.63533">
        <ele>1754.5</ele>
        <time>2025-02-18T14:18:04</time>
      </trkpt>
      <trkpt lat="45.14986" lon="5.63532">
        <ele>1754.5</ele>
        <time>2025-02-18T14:18:07</time>
      </trkpt>
      <trkpt lat="45.14985" lon="5.63533">
        <ele>1757.4</ele>
        <time>2025-02-18T14:18:08</time>
      </trkpt>
      <trkpt lat="45.14984" lon="5.63535">
        <ele>1757.4</ele>
        <time>2025-02-18T14:18:10</time>
      </trkpt>
      <trkpt lat="45.14983" lon="5.63536">
        <ele>1757.4</ele>
        <time>2025-02-18T14:18:11</time>
      </trkpt>
      <trkpt lat="45.14977" lon="5.6354">
        <ele>1757.3</ele>
        <time>2025-02-18T14:18:16</time>
      </trkpt>
      <trkpt lat="45.14977" lon="5.6354">
        <ele>1757.3</ele>
        <time>2025-02-18T14:18:17</time>
      </trkpt>
      <trkpt lat="45.14974" lon="5.6354">
        <ele>1757.3</ele>
        <time>2025-02-18T14:18:21</time>
      </trkpt>
      <trkpt lat="45.14974" lon="5.6354">
        <ele>1759.1</ele>
        <time>2025-02-18T14:18:22</time>
      </trkpt>
      <trkpt lat="45.14973" lon="5.63539">
        <ele>1759.1</ele>
        <time>2025-02-18T14:18:23</time>
      </trkpt>
      <trkpt lat="45.14973" lon="5.63539">
        <ele>1759.1</ele>
        <time>2025-02-18T14:18:23</time>
      </trkpt>
      <trkpt lat="45.14972" lon="5.63539">
        <ele>1759.1</ele>
        <time>2025-02-18T14:18:24</time>
      </trkpt>
      <trkpt lat="45.14971" lon="5.6354">
        <ele>1759.1</ele>
        <time>2025-02-18T14:18:27</time>
      </trkpt>
      <trkpt lat="45.1497" lon="5.6354">
        <ele>1759.1</ele>
        <time>2025-02-18T14:18:28</time>
      </trkpt>
      <trkpt lat="45.1497" lon="5.6354">
        <ele>1759.1</ele>
        <time>2025-02-18T14:18:29</time>
      </trkpt>
      <trkpt lat="45.14969" lon="5.6354">
        <ele>1759.7</ele>
        <time>2025-02-18T14:18:30</time>
      </trkpt>
      <trkpt lat="45.14969" lon="5.6354">
        <ele>1759.7</ele>
        <time>2025-02-18T14:18:32</time>
      </trkpt>
      <trkpt lat="45.14968" lon="5.6354">
        <ele>1759.7</ele>
        <time>2025-02-18T14:18:33</time>
      </trkpt>
      <trkpt lat="45.14968" lon="5.63541">
        <ele>1759.7</ele>
        <time>2025-02-18T14:18:34</time>
      </trkpt>
      <trkpt lat="45.14968" lon="5.63541">
        <ele>1759.7</ele>
        <time>2025-02-18T14:18:35</time>
      </trkpt>
      <trkpt lat="45.14967" lon="5.63542">
        <ele>1759.7</ele>
        <time>2025-02-18T14:18:35</time>
      </trkpt>
      <trkpt lat="45.14967" lon="5.63544">
        <ele>1762.6</ele>
        <time>2025-02-18T14:18:38</time>
      </trkpt>
      <trkpt lat="45.14966" lon="5.63545">
        <ele>1762.6</ele>
        <time>2025-02-18T14:18:39</time>
      </trkpt>
      <trkpt lat="45.14966" lon="5.63546">
        <ele>1762.6</ele>
        <time>2025-02-18T14:18:41</time>
      </trkpt>
      <trkpt lat="45.14965" lon="5.63547">
        <ele>1762.6</ele>
        <time>2025-02-18T14:18:42</time>
      </trkpt>
      <trkpt lat="45.14965" lon="5.63548">
        <ele>1762.6</ele>
        <time>2025-02-18T14:18:43</time>
      </trkpt>
      <trkpt lat="45.14964" lon="5.63553">
        <ele>1763.8</ele>
        <time>2025-02-18T14:18:48</time>
      </trkpt>
      <trkpt lat="45.14964" lon="5.63553">
        <ele>1763.8</ele>
        <time>2025-02-18T14:18:49</time>
      </trkpt>
      <trkpt lat="45.14963" lon="5.63554">
        <ele>1763.8</ele>
        <time>2025-02-18T14:18:50</time>
      </trkpt>
      <trkpt lat="45.14963" lon="5.63554">
        <ele>1763.8</ele>
        <time>2025-02-18T14:18:50</time>
      </trkpt>
      <trkpt lat="45.14963" lon="5.63555">
        <ele>1763.8</ele>
        <time>2025-02-18T14:18:51</time>
      </trkpt>
      <trkpt lat="45.14963" lon="5.63556">
        <ele>1763.3</ele>
        <time>2025-02-18T14:18:53</time>
      </trkpt>
      <trkpt lat="45.1496" lon="5.63562">
        <ele>1764.9</ele>
        <time>2025-02-18T14:19:00</time>
      </trkpt>
      <trkpt lat="45.14959" lon="5.63562">
        <ele>1764.9</ele>
        <time>2025-02-18T14:19:01</time>
      </trkpt>
      <trkpt lat="45.14959" lon="5.63563">
        <ele>1764.9</ele>
        <time>2025-02-18T14:19:02</time>
      </trkpt>
      <trkpt lat="45.14959" lon="5.63565">
        <ele>1764.9</ele>
        <time>2025-02-18T14:19:04</time>
      </trkpt>
      <trkpt lat="45.14958" lon="5.63565">
        <ele>1764.9</ele>
        <time>2025-02-18T14:19:05</time>
      </trkpt>
      <trkpt lat="45.14957" lon="5.63564">
        <ele>1766.6</ele>
        <time>2025-02-18T14:19:09</time>
      </trkpt>
      <trkpt lat="45.14956" lon="5.63564">
        <ele>1766.6</ele>
        <time>2025-02-18T14:19:10</time>
      </trkpt>
      <trkpt lat="45.14956" lon="5.63564">
        <ele>1766.6</ele>
        <time>2025-02-18T14:19:11</time>
      </trkpt>
      <trkpt lat="45.14956" lon="5.63566">
        <ele>1766.6</ele>
        <time>2025-02-18T14:19:15</time>
      </trkpt>
      <trkpt lat="45.14955" lon="5.63568">
        <ele>1767.7</ele>
        <time>2025-02-18T14:19:17</time>
      </trkpt>
      <trkpt lat="45.14954" lon="5.6357">
        <ele>1767.7</ele>
        <time>2025-02-18T14:19:20</time>
      </trkpt>
      <trkpt lat="45.14953" lon="5.63571">
        <ele>1767.7</ele>
        <time>2025-02-18T14:19:22</time>
      </trkpt>
      <trkpt lat="45.14952" lon="5.63574">
        <ele>1769.3</ele>
        <time>2025-02-18T14:19:26</time>
      </trkpt>
      <trkpt lat="45.14952" lon="5.63575">
        <ele>1769.3</ele>
        <time>2025-02-18T14:19:27</time>
      </trkpt>
      <trkpt lat="45.14952" lon="5.63576">
        <ele>1769.3</ele>
        <time>2025-02-18T14:19:27</time>
      </trkpt>
      <trkpt lat="45.14951" lon="5.63576">
        <ele>1769.3</ele>
        <time>2025-02-18T14:19:28</time>
      </trkpt>
      <trkpt lat="45.14951" lon="5.63577">
        <ele>1769.3</ele>
        <time>2025-02-18T14:19:29</time>
      </trkpt>
      <trkpt lat="45.14951" lon="5.63577">
        <ele>1769.3</ele>
        <time>2025-02-18T14:19:30</time>
      </trkpt>
      <trkpt lat="45.14951" lon="5.63578">
        <ele>1769.3</ele>
        <time>2025-02-18T14:19:31</time>
      </trkpt>
      <trkpt lat="45.14951" lon="5.63579">
        <ele>1762.2</ele>
        <time>2025-02-18T14:19:31</time>
      </trkpt>
      <trkpt lat="45.1495" lon="5.6358">
        <ele>1762.2</ele>
        <time>2025-02-18T14:19:32</time>
      </trkpt>
      <trkpt lat="45.1495" lon="5.6358">
        <ele>1762.2</ele>
        <time>2025-02-18T14:19:33</time>
      </trkpt>
      <trkpt lat="45.14949" lon="5.63581">
        <ele>1762.2</ele>
        <time>2025-02-18T14:19:35</time>
      </trkpt>
      <trkpt lat="45.14949" lon="5.63581">
        <ele>1762.2</ele>
        <time>2025-02-18T14:19:36</time>
      </trkpt>
      <trkpt lat="45.14949" lon="5.63581">
        <ele>1762.2</ele>
        <time>2025-02-18T14:19:37</time>
      </trkpt>
      <trkpt lat="45.14949" lon="5.63581">
        <ele>1762.2</ele>
        <time>2025-02-18T14:19:38</time>
      </trkpt>
      <trkpt lat="45.14949" lon="5.63581">
        <ele>1762.2</ele>
        <time>2025-02-18T14:19:39</time>
      </trkpt>
      <trkpt lat="45.1495" lon="5.63582">
        <ele>1757.3</ele>
        <time>2025-02-18T14:19:42</time>
      </trkpt>
      <trkpt lat="45.1495" lon="5.63582">
        <ele>1757.3</ele>
        <time>2025-02-18T14:19:45</time>
      </trkpt>
      <trkpt lat="45.1495" lon="5.63582">
        <ele>1757.3</ele>
        <time>2025-02-18T14:19:46</time>
      </trkpt>
      <trkpt lat="45.1495" lon="5.63582">
        <ele>1757.3</ele>
        <time>2025-02-18T14:19:46</time>
      </trkpt>
      <trkpt lat="45.14949" lon="5.63583">
        <ele>1757.3</ele>
        <time>2025-02-18T14:19:47</time>
      </trkpt>
      <trkpt lat="45.14949" lon="5.63584">
        <ele>1757.3</ele>
        <time>2025-02-18T14:19:48</time>
      </trkpt>
      <trkpt lat="45.14948" lon="5.63584">
        <ele>1757.3</ele>
        <time>2025-02-18T14:19:49</time>
      </trkpt>
      <trkpt lat="45.14944" lon="5.6359">
        <ele>1756.9</ele>
        <time>2025-02-18T14:19:57</time>
      </trkpt>
      <trkpt lat="45.14942" lon="5.63592">
        <ele>1756.9</ele>
        <time>2025-02-18T14:20:01</time>
      </trkpt>
      <trkpt lat="45.14941" lon="5.63593">
        <ele>1756.9</ele>
        <time>2025-02-18T14:20:03</time>
      </trkpt>
      <trkpt lat="45.14941" lon="5.63593">
        <ele>1760.9</ele>
        <time>2025-02-18T14:20:04</time>
      </trkpt>
      <trkpt lat="45.1494" lon="5.63593">
        <ele>1760.9</ele>
        <time>2025-02-18T14:20:05</time>
      </trkpt>
      <trkpt lat="45.14939" lon="5.63594">
        <ele>1760.9</ele>
        <time>2025-02-18T14:20:07</time>
      </trkpt>
      <trkpt lat="45.14939" lon="5.63594">
        <ele>1760.9</ele>
        <time>2025-02-18T14:20:10</time>
      </trkpt>
      <trkpt lat="45.14938" lon="5.63595">
        <ele>1760.9</ele>
        <time>2025-02-18T14:20:11</time>
      </trkpt>
      <trkpt lat="45.14938" lon="5.63595">
        <ele>1771.0667</ele>
        <time>2025-02-18T14:20:13</time>
      </trkpt>
      <trkpt lat="45.14937" lon="5.63595">
        <ele>1771.0667</ele>
        <time>2025-02-18T14:20:14</time>
      </trkpt>
      <trkpt lat="45.14937" lon="5.63596">
        <ele>1771.0667</ele>
        <time>2025-02-18T14:20:15</time>
      </trkpt>
      <trkpt lat="45.14936" lon="5.63596">
        <ele>1771.0667</ele>
        <time>2025-02-18T14:20:16</time>
      </trkpt>
      <trkpt lat="45.14936" lon="5.63596">
        <ele>1771.0667</ele>
        <time>2025-02-18T14:20:17</time>
      </trkpt>
      <trkpt lat="45.14935" lon="5.63598">
        <ele>1775.5</ele>
        <time>2025-02-18T14:20:21</time>
      </trkpt>
      <trkpt lat="45.14935" lon="5.63599">
        <ele>1775.5</ele>
        <time>2025-02-18T14:20:23</time>
      </trkpt>
      <trkpt lat="45.14934" lon="5.636">
        <ele>1775.5</ele>
        <time>2025-02-18T14:20:25</time>
      </trkpt>
      <trkpt lat="45.14934" lon="5.63601">
        <ele>1775.5</ele>
        <time>2025-02-18T14:20:27</time>
      </trkpt>
      <trkpt lat="45.14934" lon="5.63601">
        <ele>1778.7</ele>
        <time>2025-02-18T14:20:28</time>
      </trkpt>
      <trkpt lat="45.14934" lon="5.63601">
        <ele>1778.7</ele>
        <time>2025-02-18T14:20:31</time>
      </trkpt>
      <trkpt lat="45.14934" lon="5.63601">
        <ele>1778.7</ele>
        <time>2025-02-18T14:20:32</time>
      </trkpt>
      <trkpt lat="45.14934" lon="5.63601">
        <ele>1778.7</ele>
        <time>2025-02-18T14:20:33</time>
      </trkpt>
      <trkpt lat="45.14934" lon="5.63601">
        <ele>1778.7</ele>
        <time>2025-02-18T14:20:34</time>
      </trkpt>
      <trkpt lat="45.14934" lon="5.63601">
        <ele>1778.7</ele>
        <time>2025-02-18T14:20:35</time>
      </trkpt>
      <trkpt lat="45.14934" lon="5.63601">
        <ele>1778.7</ele>
        <time>2025-02-18T14:20:36</time>
      </trkpt>
      <trkpt lat="45.14933" lon="5.63601">
        <ele>1778.7</ele>
        <time>2025-02-18T14:20:37</time>
      </trkpt>
      <trkpt lat="45.14928" lon="5.63608">
        <ele>1782.1</ele>
        <time>2025-02-18T14:20:46</time>
      </trkpt>
      <trkpt lat="45.14926" lon="5.63609">
        <ele>1782.1</ele>
        <time>2025-02-18T14:20:49</time>
      </trkpt>
      <trkpt lat="45.14925" lon="5.6361">
        <ele>1782.1</ele>
        <time>2025-02-18T14:20:51</time>
      </trkpt>
      <trkpt lat="45.14925" lon="5.63611">
        <ele>1782.1</ele>
        <time>2025-02-18T14:20:53</time>
      </trkpt>
      <trkpt lat="45.14924" lon="5.63612">
        <ele>1783.5</ele>
        <time>2025-02-18T14:20:54</time>
      </trkpt>
      <trkpt lat="45.14924" lon="5.63614">
        <ele>1783.5</ele>
        <time>2025-02-18T14:20:57</time>
      </trkpt>
      <trkpt lat="45.14921" lon="5.63616">
        <ele>1786.2</ele>
        <time>2025-02-18T14:21:04</time>
      </trkpt>
      <trkpt lat="45.1492" lon="5.63617">
        <ele>1786.2</ele>
        <time>2025-02-18T14:21:04</time>
      </trkpt>
      <trkpt lat="45.1492" lon="5.63617">
        <ele>1786.2</ele>
        <time>2025-02-18T14:21:05</time>
      </trkpt>
      <trkpt lat="45.1492" lon="5.63616">
        <ele>1786.2</ele>
        <time>2025-02-18T14:21:06</time>
      </trkpt>
      <trkpt lat="45.1492" lon="5.63616">
        <ele>1786.2</ele>
        <time>2025-02-18T14:21:07</time>
      </trkpt>
      <trkpt lat="45.14919" lon="5.63616">
        <ele>1786.2</ele>
        <time>2025-02-18T14:21:08</time>
      </trkpt>
      <trkpt lat="45.14919" lon="5.63616">
        <ele>1786.2</ele>
        <time>2025-02-18T14:21:09</time>
      </trkpt>
      <trkpt lat="45.14919" lon="5.63617">
        <ele>1787.2</ele>
        <time>2025-02-18T14:21:09</time>
      </trkpt>
      <trkpt lat="45.14919" lon="5.63617">
        <ele>1787.2</ele>
        <time>2025-02-18T14:21:10</time>
      </trkpt>
      <trkpt lat="45.14917" lon="5.6362">
        <ele>1787.2</ele>
        <time>2025-02-18T14:21:14</time>
      </trkpt>
      <trkpt lat="45.14916" lon="5.63621">
        <ele>1787.2</ele>
        <time>2025-02-18T14:21:16</time>
      </trkpt>
      <trkpt lat="45.14915" lon="5.63621">
        <ele>1787.2</ele>
        <time>2025-02-18T14:21:17</time>
      </trkpt>
      <trkpt lat="45.14913" lon="5.63624">
        <ele>1787.4</ele>
        <time>2025-02-18T14:21:20</time>
      </trkpt>
      <trkpt lat="45.14913" lon="5.63625">
        <ele>1787.4</ele>
        <time>2025-02-18T14:21:22</time>
      </trkpt>
      <trkpt lat="45.14912" lon="5.63625">
        <ele>1787.4</ele>
        <time>2025-02-18T14:21:23</time>
      </trkpt>
      <trkpt lat="45.14912" lon="5.63625">
        <ele>1787.4</ele>
        <time>2025-02-18T14:21:23</time>
      </trkpt>
      <trkpt lat="45.14911" lon="5.63625">
        <ele>1788.2</ele>
        <time>2025-02-18T14:21:25</time>
      </trkpt>
      <trkpt lat="45.14911" lon="5.63625">
        <ele>1788.2</ele>
        <time>2025-02-18T14:21:26</time>
      </trkpt>
      <trkpt lat="45.14911" lon="5.63625">
        <ele>1788.2</ele>
        <time>2025-02-18T14:21:26</time>
      </trkpt>
      <trkpt lat="45.14911" lon="5.63626">
        <ele>1788.2</ele>
        <time>2025-02-18T14:21:27</time>
      </trkpt>
      <trkpt lat="45.1491" lon="5.63627">
        <ele>1788.2</ele>
        <time>2025-02-18T14:21:28</time>
      </trkpt>
      <trkpt lat="45.14908" lon="5.63628">
        <ele>1788.2</ele>
        <time>2025-02-18T14:21:31</time>
      </trkpt>
      <trkpt lat="45.14901" lon="5.63629">
        <ele>1788.8667</ele>
        <time>2025-02-18T14:21:39</time>
      </trkpt>
      <trkpt lat="45.149" lon="5.63632">
        <ele>1790.6666</ele>
        <time>2025-02-18T14:21:42</time>
      </trkpt>
      <trkpt lat="45.14899" lon="5.63634">
        <ele>1790.6666</ele>
        <time>2025-02-18T14:21:45</time>
      </trkpt>
      <trkpt lat="45.14898" lon="5.63635">
        <ele>1790.6666</ele>
        <time>2025-02-18T14:21:46</time>
      </trkpt>
      <trkpt lat="45.14897" lon="5.63635">
        <ele>1790.6666</ele>
        <time>2025-02-18T14:21:47</time>
      </trkpt>
      <trkpt lat="45.14895" lon="5.63635">
        <ele>1791.3</ele>
        <time>2025-02-18T14:21:49</time>
      </trkpt>
      <trkpt lat="45.14894" lon="5.63634">
        <ele>1791.3</ele>
        <time>2025-02-18T14:21:51</time>
      </trkpt>
      <trkpt lat="45.14892" lon="5.63634">
        <ele>1791.3</ele>
        <time>2025-02-18T14:21:54</time>
      </trkpt>
      <trkpt lat="45.14892" lon="5.63633">
        <ele>1791.3</ele>
        <time>2025-02-18T14:21:55</time>
      </trkpt>
      <trkpt lat="45.14892" lon="5.63633">
        <ele>1791.5</ele>
        <time>2025-02-18T14:21:57</time>
      </trkpt>
      <trkpt lat="45.14892" lon="5.63633">
        <ele>1791.5</ele>
        <time>2025-02-18T14:21:58</time>
      </trkpt>
      <trkpt lat="45.14892" lon="5.63633">
        <ele>1791.5</ele>
        <time>2025-02-18T14:22:01</time>
      </trkpt>
      <trkpt lat="45.14892" lon="5.63633">
        <ele>1791.5</ele>
        <time>2025-02-18T14:22:01</time>
      </trkpt>
      <trkpt lat="45.14891" lon="5.63633">
        <ele>1791.5</ele>
        <time>2025-02-18T14:22:02</time>
      </trkpt>
      <trkpt lat="45.14891" lon="5.63634">
        <ele>1791.5</ele>
        <time>2025-02-18T14:22:03</time>
      </trkpt>
      <trkpt lat="45.1489" lon="5.63635">
        <ele>1791.3</ele>
        <time>2025-02-18T14:22:05</time>
      </trkpt>
      <trkpt lat="45.14889" lon="5.63635">
        <ele>1791.3</ele>
        <time>2025-02-18T14:22:06</time>
      </trkpt>
      <trkpt lat="45.14889" lon="5.63634">
        <ele>1791.3</ele>
        <time>2025-02-18T14:22:07</time>
      </trkpt>
      <trkpt lat="45.14889" lon="5.63634">
        <ele>1791.3</ele>
        <time>2025-02-18T14:22:08</time>
      </trkpt>
      <trkpt lat="45.14888" lon="5.63634">
        <ele>1791.3</ele>
        <time>2025-02-18T14:22:09</time>
      </trkpt>
      <trkpt lat="45.14888" lon="5.63634">
        <ele>1791.3</ele>
        <time>2025-02-18T14:22:09</time>
      </trkpt>
      <trkpt lat="45.14886" lon="5.63636">
        <ele>1791.3</ele>
        <time>2025-02-18T14:22:11</time>
      </trkpt>
      <trkpt lat="45.14886" lon="5.63636">
        <ele>1791.3</ele>
        <time>2025-02-18T14:22:12</time>
      </trkpt>
      <trkpt lat="45.14886" lon="5.63636">
        <ele>1791.3</ele>
        <time>2025-02-18T14:22:12</time>
      </trkpt>
      <trkpt lat="45.14885" lon="5.63636">
        <ele>1793.3</ele>
        <time>2025-02-18T14:22:13</time>
      </trkpt>
      <trkpt lat="45.14884" lon="5.63637">
        <ele>1793.3</ele>
        <time>2025-02-18T14:22:14</time>
      </trkpt>
      <trkpt lat="45.14882" lon="5.63638">
        <ele>1793.3</ele>
        <time>2025-02-18T14:22:16</time>
      </trkpt>
      <trkpt lat="45.14881" lon="5.63639">
        <ele>1793.3</ele>
        <time>2025-02-18T14:22:17</time>
      </trkpt>
      <trkpt lat="45.14881" lon="5.6364">
        <ele>1793.3</ele>
        <time>2025-02-18T14:22:18</time>
      </trkpt>
      <trkpt lat="45.1488" lon="5.6364">
        <ele>1794.8334</ele>
        <time>2025-02-18T14:22:19</time>
      </trkpt>
      <trkpt lat="45.14879" lon="5.63642">
        <ele>1794.8334</ele>
        <time>2025-02-18T14:22:21</time>
      </trkpt>
      <trkpt lat="45.14878" lon="5.63642">
        <ele>1794.8334</ele>
        <time>2025-02-18T14:22:22</time>
      </trkpt>
      <trkpt lat="45.14873" lon="5.63644">
        <ele>1795.2667</ele>
        <time>2025-02-18T14:22:28</time>
      </trkpt>
      <trkpt lat="45.14867" lon="5.63646">
        <ele>1795.2667</ele>
        <time>2025-02-18T14:22:33</time>
      </trkpt>
      <trkpt lat="45.14867" lon="5.63646">
        <ele>1796</ele>
        <time>2025-02-18T14:22:34</time>
      </trkpt>
      <trkpt lat="45.14866" lon="5.63646">
        <ele>1796</ele>
        <time>2025-02-18T14:22:35</time>
      </trkpt>
      <trkpt lat="45.14863" lon="5.63646">
        <ele>1796</ele>
        <time>2025-02-18T14:22:40</time>
      </trkpt>
      <trkpt lat="45.14863" lon="5.63646">
        <ele>1796</ele>
        <time>2025-02-18T14:22:40</time>
      </trkpt>
      <trkpt lat="45.14863" lon="5.63646">
        <ele>1796</ele>
        <time>2025-02-18T14:22:41</time>
      </trkpt>
      <trkpt lat="45.14863" lon="5.63646">
        <ele>1795.4</ele>
        <time>2025-02-18T14:22:42</time>
      </trkpt>
      <trkpt lat="45.14862" lon="5.63646">
        <ele>1795.4</ele>
        <time>2025-02-18T14:22:43</time>
      </trkpt>
      <trkpt lat="45.14862" lon="5.63647">
        <ele>1795.4</ele>
        <time>2025-02-18T14:22:44</time>
      </trkpt>
      <trkpt lat="45.14862" lon="5.63648">
        <ele>1795.4</ele>
        <time>2025-02-18T14:22:45</time>
      </trkpt>
      <trkpt lat="45.14862" lon="5.63648">
        <ele>1795.4</ele>
        <time>2025-02-18T14:22:45</time>
      </trkpt>
      <trkpt lat="45.14861" lon="5.63649">
        <ele>1795.4</ele>
        <time>2025-02-18T14:22:46</time>
      </trkpt>
      <trkpt lat="45.14859" lon="5.63649">
        <ele>1795.4</ele>
        <time>2025-02-18T14:22:47</time>
      </trkpt>
      <trkpt lat="45.14857" lon="5.6365">
        <ele>1795.4</ele>
        <time>2025-02-18T14:22:49</time>
      </trkpt>
      <trkpt lat="45.14853" lon="5.63653">
        <ele>1796.4</ele>
        <time>2025-02-18T14:22:53</time>
      </trkpt>
      <trkpt lat="45.14853" lon="5.63653">
        <ele>1796.4</ele>
        <time>2025-02-18T14:22:53</time>
      </trkpt>
      <trkpt lat="45.14851" lon="5.63656">
        <ele>1798.3</ele>
        <time>2025-02-18T14:22:57</time>
      </trkpt>
      <trkpt lat="45.14851" lon="5.63656">
        <ele>1798.3</ele>
        <time>2025-02-18T14:22:57</time>
      </trkpt>
      <trkpt lat="45.14851" lon="5.63655">
        <ele>1798.3</ele>
        <time>2025-02-18T14:22:58</time>
      </trkpt>
      <trkpt lat="45.14851" lon="5.63655">
        <ele>1798.3</ele>
        <time>2025-02-18T14:22:59</time>
      </trkpt>
      <trkpt lat="45.1485" lon="5.63655">
        <ele>1798.3</ele>
        <time>2025-02-18T14:22:59</time>
      </trkpt>
      <trkpt lat="45.1485" lon="5.63656">
        <ele>1798.3</ele>
        <time>2025-02-18T14:23:00</time>
      </trkpt>
      <trkpt lat="45.14849" lon="5.63657">
        <ele>1798.3</ele>
        <time>2025-02-18T14:23:01</time>
      </trkpt>
      <trkpt lat="45.14849" lon="5.63657">
        <ele>1798.3</ele>
        <time>2025-02-18T14:23:01</time>
      </trkpt>
      <trkpt lat="45.14847" lon="5.63659">
        <ele>1798.3</ele>
        <time>2025-02-18T14:23:03</time>
      </trkpt>
      <trkpt lat="45.14847" lon="5.6366">
        <ele>1799</ele>
        <time>2025-02-18T14:23:04</time>
      </trkpt>
      <trkpt lat="45.14846" lon="5.6366">
        <ele>1799</ele>
        <time>2025-02-18T14:23:06</time>
      </trkpt>
      <trkpt lat="45.14845" lon="5.63661">
        <ele>1799</ele>
        <time>2025-02-18T14:23:06</time>
      </trkpt>
      <trkpt lat="45.14845" lon="5.63662">
        <ele>1799</ele>
        <time>2025-02-18T14:23:07</time>
      </trkpt>
      <trkpt lat="45.14845" lon="5.63663">
        <ele>1799</ele>
        <time>2025-02-18T14:23:08</time>
      </trkpt>
      <trkpt lat="45.14844" lon="5.63663">
        <ele>1799</ele>
        <time>2025-02-18T14:23:09</time>
      </trkpt>
      <trkpt lat="45.14843" lon="5.63664">
        <ele>1799</ele>
        <time>2025-02-18T14:23:10</time>
      </trkpt>
      <trkpt lat="45.14843" lon="5.63663">
        <ele>1799</ele>
        <time>2025-02-18T14:23:10</time>
      </trkpt>
      <trkpt lat="45.14843" lon="5.63663">
        <ele>1801.5</ele>
        <time>2025-02-18T14:23:11</time>
      </trkpt>
      <trkpt lat="45.14842" lon="5.63662">
        <ele>1801.5</ele>
        <time>2025-02-18T14:23:12</time>
      </trkpt>
      <trkpt lat="45.14842" lon="5.63663">
        <ele>1801.5</ele>
        <time>2025-02-18T14:23:12</time>
      </trkpt>
      <trkpt lat="45.14842" lon="5.63663">
        <ele>1801.5</ele>
        <time>2025-02-18T14:23:13</time>
      </trkpt>
      <trkpt lat="45.14841" lon="5.63664">
        <ele>1801.5</ele>
        <time>2025-02-18T14:23:13</time>
      </trkpt>
      <trkpt lat="45.14841" lon="5.63666">
        <ele>1801.5</ele>
        <time>2025-02-18T14:23:15</time>
      </trkpt>
      <trkpt lat="45.1484" lon="5.63668">
        <ele>1801.5</ele>
        <time>2025-02-18T14:23:17</time>
      </trkpt>
      <trkpt lat="45.1484" lon="5.63668">
        <ele>1801.6333</ele>
        <time>2025-02-18T14:23:18</time>
      </trkpt>
      <trkpt lat="45.14837" lon="5.6367">
        <ele>1801.6333</ele>
        <time>2025-02-18T14:23:21</time>
      </trkpt>
      <trkpt lat="45.14835" lon="5.63671">
        <ele>1801.6333</ele>
        <time>2025-02-18T14:23:23</time>
      </trkpt>
      <trkpt lat="45.14835" lon="5.63672">
        <ele>1801.6333</ele>
        <time>2025-02-18T14:23:24</time>
      </trkpt>
      <trkpt lat="45.14834" lon="5.63671">
        <ele>1801.4</ele>
        <time>2025-02-18T14:23:25</time>
      </trkpt>
      <trkpt lat="45.14833" lon="5.63671">
        <ele>1801.4</ele>
        <time>2025-02-18T14:23:25</time>
      </trkpt>
      <trkpt lat="45.14832" lon="5.63671">
        <ele>1801.4</ele>
        <time>2025-02-18T14:23:26</time>
      </trkpt>
      <trkpt lat="45.14832" lon="5.63671">
        <ele>1801.4</ele>
        <time>2025-02-18T14:23:27</time>
      </trkpt>
      <trkpt lat="45.14832" lon="5.63671">
        <ele>1801.4</ele>
        <time>2025-02-18T14:23:27</time>
      </trkpt>
      <trkpt lat="45.14826" lon="5.63676">
        <ele>1803.5</ele>
        <time>2025-02-18T14:23:36</time>
      </trkpt>
      <trkpt lat="45.14826" lon="5.63677">
        <ele>1803.5</ele>
        <time>2025-02-18T14:23:36</time>
      </trkpt>
      <trkpt lat="45.14826" lon="5.63678">
        <ele>1803.5</ele>
        <time>2025-02-18T14:23:38</time>
      </trkpt>
      <trkpt lat="45.14825" lon="5.63679">
        <ele>1804</ele>
        <time>2025-02-18T14:23:40</time>
      </trkpt>
      <trkpt lat="45.14824" lon="5.6368">
        <ele>1804</ele>
        <time>2025-02-18T14:23:41</time>
      </trkpt>
      <trkpt lat="45.14824" lon="5.6368">
        <ele>1804</ele>
        <time>2025-02-18T14:23:42</time>
      </trkpt>
      <trkpt lat="45.14824" lon="5.6368">
        <ele>1804</ele>
        <time>2025-02-18T14:23:43</time>
      </trkpt>
      <trkpt lat="45.14823" lon="5.63681">
        <ele>1804</ele>
        <time>2025-02-18T14:23:44</time>
      </trkpt>
      <trkpt lat="45.14822" lon="5.63682">
        <ele>1804</ele>
        <time>2025-02-18T14:23:45</time>
      </trkpt>
      <trkpt lat="45.14822" lon="5.63682">
        <ele>1804</ele>
        <time>2025-02-18T14:23:46</time>
      </trkpt>
      <trkpt lat="45.14822" lon="5.63683">
        <ele>1804.6666</ele>
        <time>2025-02-18T14:23:47</time>
      </trkpt>
      <trkpt lat="45.14822" lon="5.63683">
        <ele>1804.6666</ele>
        <time>2025-02-18T14:23:48</time>
      </trkpt>
      <trkpt lat="45.14821" lon="5.63684">
        <ele>1804.6666</ele>
        <time>2025-02-18T14:23:49</time>
      </trkpt>
      <trkpt lat="45.14817" lon="5.63687">
        <ele>1805</ele>
        <time>2025-02-18T14:23:55</time>
      </trkpt>
      <trkpt lat="45.14817" lon="5.63688">
        <ele>1805</ele>
        <time>2025-02-18T14:23:56</time>
      </trkpt>
      <trkpt lat="45.14817" lon="5.63689">
        <ele>1805</ele>
        <time>2025-02-18T14:23:57</time>
      </trkpt>
      <trkpt lat="45.14816" lon="5.6369">
        <ele>1805</ele>
        <time>2025-02-18T14:23:59</time>
      </trkpt>
      <trkpt lat="45.14815" lon="5.63691">
        <ele>1805</ele>
        <time>2025-02-18T14:24:00</time>
      </trkpt>
      <trkpt lat="45.14814" lon="5.63693">
        <ele>1805.4</ele>
        <time>2025-02-18T14:24:04</time>
      </trkpt>
      <trkpt lat="45.14814" lon="5.63694">
        <ele>1805.4</ele>
        <time>2025-02-18T14:24:04</time>
      </trkpt>
      <trkpt lat="45.14814" lon="5.63695">
        <ele>1805.4</ele>
        <time>2025-02-18T14:24:05</time>
      </trkpt>
      <trkpt lat="45.14814" lon="5.63696">
        <ele>1805.4</ele>
        <time>2025-02-18T14:24:07</time>
      </trkpt>
      <trkpt lat="45.14814" lon="5.63696">
        <ele>1805.4</ele>
        <time>2025-02-18T14:24:07</time>
      </trkpt>
      <trkpt lat="45.14815" lon="5.63696">
        <ele>1805.4</ele>
        <time>2025-02-18T14:24:08</time>
      </trkpt>
      <trkpt lat="45.14814" lon="5.63697">
        <ele>1809.2667</ele>
        <time>2025-02-18T14:24:09</time>
      </trkpt>
      <trkpt lat="45.14814" lon="5.63698">
        <ele>1809.2667</ele>
        <time>2025-02-18T14:24:10</time>
      </trkpt>
      <trkpt lat="45.14813" lon="5.63699">
        <ele>1809.2667</ele>
        <time>2025-02-18T14:24:12</time>
      </trkpt>
      <trkpt lat="45.14812" lon="5.637">
        <ele>1809.2667</ele>
        <time>2025-02-18T14:24:12</time>
      </trkpt>
      <trkpt lat="45.14812" lon="5.63699">
        <ele>1809.2667</ele>
        <time>2025-02-18T14:24:13</time>
      </trkpt>
      <trkpt lat="45.14811" lon="5.63699">
        <ele>1809.2667</ele>
        <time>2025-02-18T14:24:14</time>
      </trkpt>
      <trkpt lat="45.14811" lon="5.637">
        <ele>1809.2667</ele>
        <time>2025-02-18T14:24:15</time>
      </trkpt>
      <trkpt lat="45.14811" lon="5.63701">
        <ele>1809.2667</ele>
        <time>2025-02-18T14:24:16</time>
      </trkpt>
      <trkpt lat="45.14811" lon="5.63702">
        <ele>1809.2667</ele>
        <time>2025-02-18T14:24:16</time>
      </trkpt>
      <trkpt lat="45.14811" lon="5.63703">
        <ele>1807.6</ele>
        <time>2025-02-18T14:24:17</time>
      </trkpt>
      <trkpt lat="45.14811" lon="5.63704">
        <ele>1807.6</ele>
        <time>2025-02-18T14:24:19</time>
      </trkpt>
      <trkpt lat="45.14811" lon="5.63705">
        <ele>1807.6</ele>
        <time>2025-02-18T14:24:20</time>
      </trkpt>
      <trkpt lat="45.1481" lon="5.63708">
        <ele>1807.6</ele>
        <time>2025-02-18T14:24:23</time>
      </trkpt>
      <trkpt lat="45.1481" lon="5.63707">
        <ele>1804.3334</ele>
        <time>2025-02-18T14:24:28</time>
      </trkpt>
      <trkpt lat="45.1481" lon="5.63708">
        <ele>1804.3334</ele>
        <time>2025-02-18T14:24:33</time>
      </trkpt>
      <trkpt lat="45.14809" lon="5.63715">
        <ele>1800.0333</ele>
        <time>2025-02-18T14:24:37</time>
      </trkpt>
      <trkpt lat="45.14809" lon="5.63717">
        <ele>1800.0333</ele>
        <time>2025-02-18T14:24:38</time>
      </trkpt>
      <trkpt lat="45.14808" lon="5.63718">
        <ele>1800.0333</ele>
        <time>2025-02-18T14:24:39</time>
      </trkpt>
      <trkpt lat="45.14809" lon="5.63718">
        <ele>1800.0333</ele>
        <time>2025-02-18T14:24:40</time>
      </trkpt>
      <trkpt lat="45.14809" lon="5.63719">
        <ele>1800.0333</ele>
        <time>2025-02-18T14:24:41</time>
      </trkpt>
      <trkpt lat="45.14809" lon="5.63719">
        <ele>1800.0333</ele>
        <time>2025-02-18T14:24:41</time>
      </trkpt>
      <trkpt lat="45.14808" lon="5.63719">
        <ele>1800.0333</ele>
        <time>2025-02-18T14:24:42</time>
      </trkpt>
      <trkpt lat="45.14808" lon="5.6372">
        <ele>1797.6</ele>
        <time>2025-02-18T14:24:43</time>
      </trkpt>
      <trkpt lat="45.14807" lon="5.63723">
        <ele>1797.6</ele>
        <time>2025-02-18T14:24:45</time>
      </trkpt>
      <trkpt lat="45.14807" lon="5.63725">
        <ele>1797.6</ele>
        <time>2025-02-18T14:24:47</time>
      </trkpt>
      <trkpt lat="45.14807" lon="5.63726">
        <ele>1797.6</ele>
        <time>2025-02-18T14:24:48</time>
      </trkpt>
      <trkpt lat="45.14808" lon="5.63727">
        <ele>1797.6</ele>
        <time>2025-02-18T14:24:49</time>
      </trkpt>
      <trkpt lat="45.14809" lon="5.63728">
        <ele>1801.0333</ele>
        <time>2025-02-18T14:24:50</time>
      </trkpt>
      <trkpt lat="45.1481" lon="5.63728">
        <ele>1801.0333</ele>
        <time>2025-02-18T14:24:51</time>
      </trkpt>
      <trkpt lat="45.14813" lon="5.63729">
        <ele>1801.0333</ele>
        <time>2025-02-18T14:24:55</time>
      </trkpt>
      <trkpt lat="45.14813" lon="5.63728">
        <ele>1801.0333</ele>
        <time>2025-02-18T14:24:56</time>
      </trkpt>
      <trkpt lat="45.14813" lon="5.63728">
        <ele>1801.0333</ele>
        <time>2025-02-18T14:24:57</time>
      </trkpt>
      <trkpt lat="45.14813" lon="5.63728">
        <ele>1801.0333</ele>
        <time>2025-02-18T14:24:58</time>
      </trkpt>
      <trkpt lat="45.14813" lon="5.63729">
        <ele>1811.7333</ele>
        <time>2025-02-18T14:24:59</time>
      </trkpt>
      <trkpt lat="45.14813" lon="5.6373">
        <ele>1811.7333</ele>
        <time>2025-02-18T14:25:00</time>
      </trkpt>
      <trkpt lat="45.14814" lon="5.63731">
        <ele>1811.7333</ele>
        <time>2025-02-18T14:25:01</time>
      </trkpt>
      <trkpt lat="45.14815" lon="5.63731">
        <ele>1811.7333</ele>
        <time>2025-02-18T14:25:03</time>
      </trkpt>
      <trkpt lat="45.14815" lon="5.63731">
        <ele>1811.7333</ele>
        <time>2025-02-18T14:25:03</time>
      </trkpt>
      <trkpt lat="45.14815" lon="5.63731">
        <ele>1811.7333</ele>
        <time>2025-02-18T14:25:04</time>
      </trkpt>
      <trkpt lat="45.14817" lon="5.63734">
        <ele>1816.4</ele>
        <time>2025-02-18T14:25:08</time>
      </trkpt>
      <trkpt lat="45.1482" lon="5.63736">
        <ele>1816.4</ele>
        <time>2025-02-18T14:25:12</time>
      </trkpt>
      <trkpt lat="45.1483" lon="5.63742">
        <ele>1818.8</ele>
        <time>2025-02-18T14:25:23</time>
      </trkpt>
      <trkpt lat="45.14833" lon="5.63742">
        <ele>1818.8</ele>
        <time>2025-02-18T14:25:25</time>
      </trkpt>
      <trkpt lat="45.14835" lon="5.63742">
        <ele>1819.4</ele>
        <time>2025-02-18T14:25:28</time>
      </trkpt>
      <trkpt lat="45.14836" lon="5.63741">
        <ele>1819.4</ele>
        <time>2025-02-18T14:25:29</time>
      </trkpt>
      <trkpt lat="45.14836" lon="5.6374">
        <ele>1819.4</ele>
        <time>2025-02-18T14:25:30</time>
      </trkpt>
      <trkpt lat="45.14836" lon="5.6374">
        <ele>1819.4</ele>
        <time>2025-02-18T14:25:31</time>
      </trkpt>
      <trkpt lat="45.14836" lon="5.63739">
        <ele>1819.4</ele>
        <time>2025-02-18T14:25:32</time>
      </trkpt>
      <trkpt lat="45.14836" lon="5.6374">
        <ele>1819.4</ele>
        <time>2025-02-18T14:25:32</time>
      </trkpt>
      <trkpt lat="45.14837" lon="5.6374">
        <ele>1819.4</ele>
        <time>2025-02-18T14:25:33</time>
      </trkpt>
      <trkpt lat="45.14837" lon="5.6374">
        <ele>1819.4</ele>
        <time>2025-02-18T14:25:34</time>
      </trkpt>
      <trkpt lat="45.1484" lon="5.63742">
        <ele>1819.8</ele>
        <time>2025-02-18T14:25:38</time>
      </trkpt>
      <trkpt lat="45.14842" lon="5.63743">
        <ele>1819.8</ele>
        <time>2025-02-18T14:25:41</time>
      </trkpt>
      <trkpt lat="45.14842" lon="5.63744">
        <ele>1819.8</ele>
        <time>2025-02-18T14:25:41</time>
      </trkpt>
      <trkpt lat="45.14844" lon="5.63746">
        <ele>1821.8</ele>
        <time>2025-02-18T14:25:45</time>
      </trkpt>
      <trkpt lat="45.14845" lon="5.63747">
        <ele>1821.8</ele>
        <time>2025-02-18T14:25:47</time>
      </trkpt>
      <trkpt lat="45.14845" lon="5.63748">
        <ele>1821.8</ele>
        <time>2025-02-18T14:25:48</time>
      </trkpt>
      <trkpt lat="45.14848" lon="5.63752">
        <ele>1822.9</ele>
        <time>2025-02-18T14:25:55</time>
      </trkpt>
      <trkpt lat="45.1485" lon="5.63754">
        <ele>1822.9</ele>
        <time>2025-02-18T14:25:57</time>
      </trkpt>
      <trkpt lat="45.1485" lon="5.63755">
        <ele>1822.9</ele>
        <time>2025-02-18T14:25:58</time>
      </trkpt>
      <trkpt lat="45.14851" lon="5.63758">
        <ele>1824.9</ele>
        <time>2025-02-18T14:26:01</time>
      </trkpt>
      <trkpt lat="45.14852" lon="5.63758">
        <ele>1824.9</ele>
        <time>2025-02-18T14:26:01</time>
      </trkpt>
      <trkpt lat="45.14854" lon="5.6376">
        <ele>1824.9</ele>
        <time>2025-02-18T14:26:04</time>
      </trkpt>
      <trkpt lat="45.14855" lon="5.63762">
        <ele>1825.8</ele>
        <time>2025-02-18T14:26:07</time>
      </trkpt>
      <trkpt lat="45.14856" lon="5.63763">
        <ele>1825.8</ele>
        <time>2025-02-18T14:26:08</time>
      </trkpt>
      <trkpt lat="45.14858" lon="5.63764">
        <ele>1825.8</ele>
        <time>2025-02-18T14:26:10</time>
      </trkpt>
      <trkpt lat="45.14859" lon="5.63765">
        <ele>1825.8</ele>
        <time>2025-02-18T14:26:12</time>
      </trkpt>
      <trkpt lat="45.1486" lon="5.63766">
        <ele>1825.9</ele>
        <time>2025-02-18T14:26:14</time>
      </trkpt>
      <trkpt lat="45.14863" lon="5.6377">
        <ele>1825.9</ele>
        <time>2025-02-18T14:26:20</time>
      </trkpt>
      <trkpt lat="45.14867" lon="5.63774">
        <ele>1826.7</ele>
        <time>2025-02-18T14:26:26</time>
      </trkpt>
      <trkpt lat="45.14868" lon="5.63774">
        <ele>1826.7</ele>
        <time>2025-02-18T14:26:27</time>
      </trkpt>
      <trkpt lat="45.14868" lon="5.63774">
        <ele>1826.7</ele>
        <time>2025-02-18T14:26:27</time>
      </trkpt>
      <trkpt lat="45.14869" lon="5.63773">
        <ele>1826.7</ele>
        <time>2025-02-18T14:26:28</time>
      </trkpt>
      <trkpt lat="45.1487" lon="5.63773">
        <ele>1828.1</ele>
        <time>2025-02-18T14:26:29</time>
      </trkpt>
      <trkpt lat="45.1487" lon="5.63774">
        <ele>1828.1</ele>
        <time>2025-02-18T14:26:30</time>
      </trkpt>
      <trkpt lat="45.14872" lon="5.63778">
        <ele>1828.1</ele>
        <time>2025-02-18T14:26:35</time>
      </trkpt>
      <trkpt lat="45.14872" lon="5.63777">
        <ele>1828.1</ele>
        <time>2025-02-18T14:26:35</time>
      </trkpt>
      <trkpt lat="45.14873" lon="5.63777">
        <ele>1828.5</ele>
        <time>2025-02-18T14:26:36</time>
      </trkpt>
      <trkpt lat="45.14872" lon="5.63777">
        <ele>1828.5</ele>
        <time>2025-02-18T14:26:40</time>
      </trkpt>
      <trkpt lat="45.14872" lon="5.63777">
        <ele>1828.5</ele>
        <time>2025-02-18T14:26:43</time>
      </trkpt>
      <trkpt lat="45.14873" lon="5.63778">
        <ele>1831</ele>
        <time>2025-02-18T14:26:45</time>
      </trkpt>
      <trkpt lat="45.14874" lon="5.63779">
        <ele>1831</ele>
        <time>2025-02-18T14:26:47</time>
      </trkpt>
      <trkpt lat="45.14874" lon="5.6378">
        <ele>1831</ele>
        <time>2025-02-18T14:26:48</time>
      </trkpt>
      <trkpt lat="45.14875" lon="5.6378">
        <ele>1831</ele>
        <time>2025-02-18T14:26:49</time>
      </trkpt>
      <trkpt lat="45.14875" lon="5.6378">
        <ele>1831</ele>
        <time>2025-02-18T14:26:50</time>
      </trkpt>
      <trkpt lat="45.14876" lon="5.63779">
        <ele>1831</ele>
        <time>2025-02-18T14:26:51</time>
      </trkpt>
      <trkpt lat="45.14876" lon="5.63778">
        <ele>1831</ele>
        <time>2025-02-18T14:26:53</time>
      </trkpt>
      <trkpt lat="45.14876" lon="5.63779">
        <ele>1832.2</ele>
        <time>2025-02-18T14:26:54</time>
      </trkpt>
      <trkpt lat="45.14876" lon="5.63779">
        <ele>1832.9</ele>
        <time>2025-02-18T14:27:33</time>
      </trkpt>
      <trkpt lat="45.14877" lon="5.63779">
        <ele>1832.9</ele>
        <time>2025-02-18T14:27:35</time>
      </trkpt>
      <trkpt lat="45.14879" lon="5.63777">
        <ele>1832.9</ele>
        <time>2025-02-18T14:27:37</time>
      </trkpt>
      <trkpt lat="45.14883" lon="5.63773">
        <ele>1832.9</ele>
        <time>2025-02-18T14:27:40</time>
      </trkpt>
      <trkpt lat="45.14884" lon="5.63772">
        <ele>1832.9667</ele>
        <time>2025-02-18T14:27:42</time>
      </trkpt>
      <trkpt lat="45.14892" lon="5.63769">
        <ele>1834.1</ele>
        <time>2025-02-18T14:27:50</time>
      </trkpt>
      <trkpt lat="45.14896" lon="5.63768">
        <ele>1834.1</ele>
        <time>2025-02-18T14:27:53</time>
      </trkpt>
      <trkpt lat="45.149" lon="5.63768">
        <ele>1835.9</ele>
        <time>2025-02-18T14:27:57</time>
      </trkpt>
      <trkpt lat="45.14904" lon="5.63769">
        <ele>1837.1</ele>
        <time>2025-02-18T14:28:01</time>
      </trkpt>
      <trkpt lat="45.14906" lon="5.63771">
        <ele>1837.1</ele>
        <time>2025-02-18T14:28:05</time>
      </trkpt>
      <trkpt lat="45.14906" lon="5.63771">
        <ele>1837.1</ele>
        <time>2025-02-18T14:28:05</time>
      </trkpt>
      <trkpt lat="45.14907" lon="5.63772">
        <ele>1837.5</ele>
        <time>2025-02-18T14:28:06</time>
      </trkpt>
      <trkpt lat="45.14907" lon="5.63772">
        <ele>1837.5</ele>
        <time>2025-02-18T14:28:07</time>
      </trkpt>
      <trkpt lat="45.14908" lon="5.63773">
        <ele>1837.5</ele>
        <time>2025-02-18T14:28:07</time>
      </trkpt>
      <trkpt lat="45.14908" lon="5.63772">
        <ele>1837.5</ele>
        <time>2025-02-18T14:28:08</time>
      </trkpt>
      <trkpt lat="45.14909" lon="5.63772">
        <ele>1837.5</ele>
        <time>2025-02-18T14:28:09</time>
      </trkpt>
      <trkpt lat="45.14911" lon="5.63773">
        <ele>1837.5</ele>
        <time>2025-02-18T14:28:12</time>
      </trkpt>
      <trkpt lat="45.14912" lon="5.63772">
        <ele>1835.8</ele>
        <time>2025-02-18T14:28:13</time>
      </trkpt>
      <trkpt lat="45.14913" lon="5.63772">
        <ele>1835.8</ele>
        <time>2025-02-18T14:28:15</time>
      </trkpt>
      <trkpt lat="45.14914" lon="5.63772">
        <ele>1835.8</ele>
        <time>2025-02-18T14:28:16</time>
      </trkpt>
      <trkpt lat="45.14914" lon="5.63772">
        <ele>1835.8</ele>
        <time>2025-02-18T14:28:17</time>
      </trkpt>
      <trkpt lat="45.14915" lon="5.63772">
        <ele>1835.8</ele>
        <time>2025-02-18T14:28:17</time>
      </trkpt>
      <trkpt lat="45.14915" lon="5.63772">
        <ele>1835.8</ele>
        <time>2025-02-18T14:28:18</time>
      </trkpt>
      <trkpt lat="45.14916" lon="5.63771">
        <ele>1835.8</ele>
        <time>2025-02-18T14:28:20</time>
      </trkpt>
      <trkpt lat="45.14917" lon="5.6377">
        <ele>1835.8</ele>
        <time>2025-02-18T14:28:23</time>
      </trkpt>
      <trkpt lat="45.14919" lon="5.6377">
        <ele>1835.8</ele>
        <time>2025-02-18T14:28:25</time>
      </trkpt>
      <trkpt lat="45.1492" lon="5.6377">
        <ele>1835.8</ele>
        <time>2025-02-18T14:28:27</time>
      </trkpt>
      <trkpt lat="45.1492" lon="5.6377">
        <ele>1835.8</ele>
        <time>2025-02-18T14:28:28</time>
      </trkpt>
      <trkpt lat="45.14921" lon="5.6377">
        <ele>1836.5</ele>
        <time>2025-02-18T14:28:28</time>
      </trkpt>
      <trkpt lat="45.14921" lon="5.63769">
        <ele>1836.5</ele>
        <time>2025-02-18T14:28:29</time>
      </trkpt>
      <trkpt lat="45.14922" lon="5.63769">
        <ele>1836.5</ele>
        <time>2025-02-18T14:28:31</time>
      </trkpt>
      <trkpt lat="45.14923" lon="5.63769">
        <ele>1836.5</ele>
        <time>2025-02-18T14:28:32</time>
      </trkpt>
      <trkpt lat="45.14924" lon="5.63768">
        <ele>1836.5</ele>
        <time>2025-02-18T14:28:33</time>
      </trkpt>
      <trkpt lat="45.14928" lon="5.63766">
        <ele>1838.1</ele>
        <time>2025-02-18T14:28:39</time>
      </trkpt>
      <trkpt lat="45.14929" lon="5.63766">
        <ele>1838.1</ele>
        <time>2025-02-18T14:28:40</time>
      </trkpt>
      <trkpt lat="45.14931" lon="5.63766">
        <ele>1838.1</ele>
        <time>2025-02-18T14:28:42</time>
      </trkpt>
      <trkpt lat="45.14933" lon="5.63765">
        <ele>1841</ele>
        <time>2025-02-18T14:28:44</time>
      </trkpt>
      <trkpt lat="45.14933" lon="5.63765">
        <ele>1841</ele>
        <time>2025-02-18T14:28:44</time>
      </trkpt>
      <trkpt lat="45.14934" lon="5.63765">
        <ele>1841</ele>
        <time>2025-02-18T14:28:45</time>
      </trkpt>
      <trkpt lat="45.14934" lon="5.63765">
        <ele>1841</ele>
        <time>2025-02-18T14:28:46</time>
      </trkpt>
      <trkpt lat="45.14935" lon="5.63765">
        <ele>1841</ele>
        <time>2025-02-18T14:28:47</time>
      </trkpt>
      <trkpt lat="45.14936" lon="5.63765">
        <ele>1841</ele>
        <time>2025-02-18T14:28:47</time>
      </trkpt>
      <trkpt lat="45.14936" lon="5.63766">
        <ele>1841</ele>
        <time>2025-02-18T14:28:48</time>
      </trkpt>
      <trkpt lat="45.14937" lon="5.63767">
        <ele>1841</ele>
        <time>2025-02-18T14:28:49</time>
      </trkpt>
      <trkpt lat="45.14938" lon="5.63768">
        <ele>1841</ele>
        <time>2025-02-18T14:28:50</time>
      </trkpt>
      <trkpt lat="45.14939" lon="5.63768">
        <ele>1841.9</ele>
        <time>2025-02-18T14:28:51</time>
      </trkpt>
      <trkpt lat="45.14939" lon="5.63768">
        <ele>1841.9</ele>
        <time>2025-02-18T14:28:52</time>
      </trkpt>
      <trkpt lat="45.1494" lon="5.63768">
        <ele>1841.9</ele>
        <time>2025-02-18T14:28:53</time>
      </trkpt>
      <trkpt lat="45.14941" lon="5.63768">
        <ele>1841.9</ele>
        <time>2025-02-18T14:28:54</time>
      </trkpt>
      <trkpt lat="45.14943" lon="5.63767">
        <ele>1841.9</ele>
        <time>2025-02-18T14:28:56</time>
      </trkpt>
      <trkpt lat="45.14944" lon="5.63766">
        <ele>1841.9</ele>
        <time>2025-02-18T14:28:57</time>
      </trkpt>
      <trkpt lat="45.14945" lon="5.63766">
        <ele>1841.9</ele>
        <time>2025-02-18T14:28:58</time>
      </trkpt>
      <trkpt lat="45.14946" lon="5.63764">
        <ele>1842.1</ele>
        <time>2025-02-18T14:29:00</time>
      </trkpt>
      <trkpt lat="45.14948" lon="5.63762">
        <ele>1842.1</ele>
        <time>2025-02-18T14:29:02</time>
      </trkpt>
      <trkpt lat="45.14949" lon="5.63762">
        <ele>1842.1</ele>
        <time>2025-02-18T14:29:02</time>
      </trkpt>
      <trkpt lat="45.14951" lon="5.63762">
        <ele>1842.1</ele>
        <time>2025-02-18T14:29:04</time>
      </trkpt>
      <trkpt lat="45.14955" lon="5.63761">
        <ele>1843.3</ele>
        <time>2025-02-18T14:29:08</time>
      </trkpt>
      <trkpt lat="45.14958" lon="5.63762">
        <ele>1843.3</ele>
        <time>2025-02-18T14:29:10</time>
      </trkpt>
      <trkpt lat="45.14961" lon="5.63761">
        <ele>1844.3</ele>
        <time>2025-02-18T14:29:14</time>
      </trkpt>
      <trkpt lat="45.14962" lon="5.63761">
        <ele>1844.3</ele>
        <time>2025-02-18T14:29:15</time>
      </trkpt>
      <trkpt lat="45.14965" lon="5.63759">
        <ele>1844.3</ele>
        <time>2025-02-18T14:29:18</time>
      </trkpt>
      <trkpt lat="45.14965" lon="5.63759">
        <ele>1844.3</ele>
        <time>2025-02-18T14:29:18</time>
      </trkpt>
      <trkpt lat="45.14968" lon="5.6376">
        <ele>1845.5</ele>
        <time>2025-02-18T14:29:20</time>
      </trkpt>
      <trkpt lat="45.1497" lon="5.63759">
        <ele>1845.5</ele>
        <time>2025-02-18T14:29:23</time>
      </trkpt>
      <trkpt lat="45.14975" lon="5.63757">
        <ele>1844.8</ele>
        <time>2025-02-18T14:29:27</time>
      </trkpt>
      <trkpt lat="45.14985" lon="5.63753">
        <ele>1844.6</ele>
        <time>2025-02-18T14:29:39</time>
      </trkpt>
      <trkpt lat="45.14986" lon="5.63753">
        <ele>1844.6</ele>
        <time>2025-02-18T14:29:39</time>
      </trkpt>
      <trkpt lat="45.14986" lon="5.63752">
        <ele>1844.7</ele>
        <time>2025-02-18T14:29:40</time>
      </trkpt>
      <trkpt lat="45.14987" lon="5.63751">
        <ele>1844.7</ele>
        <time>2025-02-18T14:29:41</time>
      </trkpt>
      <trkpt lat="45.14987" lon="5.63751">
        <ele>1844.7</ele>
        <time>2025-02-18T14:29:41</time>
      </trkpt>
      <trkpt lat="45.14988" lon="5.63751">
        <ele>1844.7</ele>
        <time>2025-02-18T14:29:42</time>
      </trkpt>
      <trkpt lat="45.14989" lon="5.63752">
        <ele>1844.7</ele>
        <time>2025-02-18T14:29:43</time>
      </trkpt>
      <trkpt lat="45.1499" lon="5.63752">
        <ele>1844.7</ele>
        <time>2025-02-18T14:29:43</time>
      </trkpt>
      <trkpt lat="45.1499" lon="5.63752">
        <ele>1844.7</ele>
        <time>2025-02-18T14:29:44</time>
      </trkpt>
      <trkpt lat="45.1499" lon="5.63751">
        <ele>1844.7</ele>
        <time>2025-02-18T14:29:44</time>
      </trkpt>
      <trkpt lat="45.1499" lon="5.63751">
        <ele>1844.7</ele>
        <time>2025-02-18T14:29:45</time>
      </trkpt>
      <trkpt lat="45.1499" lon="5.63751">
        <ele>1843.9</ele>
        <time>2025-02-18T14:29:48</time>
      </trkpt>
      <trkpt lat="45.1499" lon="5.63752">
        <ele>1843.9</ele>
        <time>2025-02-18T14:29:49</time>
      </trkpt>
      <trkpt lat="45.14991" lon="5.63752">
        <ele>1843.9</ele>
        <time>2025-02-18T14:29:50</time>
      </trkpt>
      <trkpt lat="45.14989" lon="5.63752">
        <ele>1843.9</ele>
        <time>2025-02-18T14:29:53</time>
      </trkpt>
      <trkpt lat="45.14994" lon="5.63753">
        <ele>1843.9</ele>
        <time>2025-02-18T14:29:53</time>
      </trkpt>
      <trkpt lat="45.14996" lon="5.63754">
        <ele>1843.9</ele>
        <time>2025-02-18T14:29:54</time>
      </trkpt>
      <trkpt lat="45.14998" lon="5.63755">
        <ele>1842.5</ele>
        <time>2025-02-18T14:29:54</time>
      </trkpt>
      <trkpt lat="45.14999" lon="5.63754">
        <ele>1842.5</ele>
        <time>2025-02-18T14:29:55</time>
      </trkpt>
      <trkpt lat="45.15" lon="5.63754">
        <ele>1842.5</ele>
        <time>2025-02-18T14:29:56</time>
      </trkpt>
      <trkpt lat="45.15002" lon="5.63753">
        <ele>1842.5</ele>
        <time>2025-02-18T14:29:57</time>
      </trkpt>
      <trkpt lat="45.15002" lon="5.63752">
        <ele>1842.5</ele>
        <time>2025-02-18T14:29:58</time>
      </trkpt>
      <trkpt lat="45.15003" lon="5.6375">
        <ele>1842.5</ele>
        <time>2025-02-18T14:29:59</time>
      </trkpt>
      <trkpt lat="45.15003" lon="5.6375">
        <ele>1842.5</ele>
        <time>2025-02-18T14:30:00</time>
      </trkpt>
      <trkpt lat="45.15005" lon="5.63749">
        <ele>1840.8</ele>
        <time>2025-02-18T14:30:01</time>
      </trkpt>
      <trkpt lat="45.15009" lon="5.63747">
        <ele>1840.8</ele>
        <time>2025-02-18T14:30:06</time>
      </trkpt>
      <trkpt lat="45.1502" lon="5.63742">
        <ele>1841.2</ele>
        <time>2025-02-18T14:30:19</time>
      </trkpt>
      <trkpt lat="45.15021" lon="5.63741">
        <ele>1841.2</ele>
        <time>2025-02-18T14:30:20</time>
      </trkpt>
      <trkpt lat="45.15022" lon="5.6374">
        <ele>1840.8</ele>
        <time>2025-02-18T14:30:22</time>
      </trkpt>
      <trkpt lat="45.15022" lon="5.63739">
        <ele>1840.8</ele>
        <time>2025-02-18T14:30:23</time>
      </trkpt>
      <trkpt lat="45.15025" lon="5.63733">
        <ele>1840.8</ele>
        <time>2025-02-18T14:30:28</time>
      </trkpt>
      <trkpt lat="45.15027" lon="5.63732">
        <ele>1843.5</ele>
        <time>2025-02-18T14:30:30</time>
      </trkpt>
      <trkpt lat="45.15029" lon="5.63731">
        <ele>1843.5</ele>
        <time>2025-02-18T14:30:32</time>
      </trkpt>
      <trkpt lat="45.15029" lon="5.63731">
        <ele>1843.5</ele>
        <time>2025-02-18T14:30:32</time>
      </trkpt>
      <trkpt lat="45.15029" lon="5.6373">
        <ele>1843.5</ele>
        <time>2025-02-18T14:30:33</time>
      </trkpt>
      <trkpt lat="45.15028" lon="5.6373">
        <ele>1843.5</ele>
        <time>2025-02-18T14:30:34</time>
      </trkpt>
      <trkpt lat="45.15028" lon="5.6373">
        <ele>1843.5</ele>
        <time>2025-02-18T14:30:35</time>
      </trkpt>
      <trkpt lat="45.15028" lon="5.63731">
        <ele>1843.5</ele>
        <time>2025-02-18T14:30:37</time>
      </trkpt>
      <trkpt lat="45.15028" lon="5.63731">
        <ele>1845.4</ele>
        <time>2025-02-18T14:30:38</time>
      </trkpt>
      <trkpt lat="45.15028" lon="5.63731">
        <ele>1845.4</ele>
        <time>2025-02-18T14:30:39</time>
      </trkpt>
      <trkpt lat="45.15028" lon="5.63732">
        <ele>1845.4</ele>
        <time>2025-02-18T14:30:40</time>
      </trkpt>
      <trkpt lat="45.15029" lon="5.63732">
        <ele>1845.4</ele>
        <time>2025-02-18T14:30:42</time>
      </trkpt>
      <trkpt lat="45.15029" lon="5.63732">
        <ele>1845.4</ele>
        <time>2025-02-18T14:30:43</time>
      </trkpt>
      <trkpt lat="45.15029" lon="5.63732">
        <ele>1845.4</ele>
        <time>2025-02-18T14:30:47</time>
      </trkpt>
      <trkpt lat="45.15029" lon="5.63732">
        <ele>1844.6</ele>
        <time>2025-02-18T14:30:51</time>
      </trkpt>
      <trkpt lat="45.1503" lon="5.63732">
        <ele>1844.6</ele>
        <time>2025-02-18T14:30:52</time>
      </trkpt>
      <trkpt lat="45.1503" lon="5.63732">
        <ele>1844.6</ele>
        <time>2025-02-18T14:30:53</time>
      </trkpt>
      <trkpt lat="45.1503" lon="5.63732">
        <ele>1844.6</ele>
        <time>2025-02-18T14:30:54</time>
      </trkpt>
      <trkpt lat="45.15027" lon="5.6373">
        <ele>1844.2</ele>
        <time>2025-02-18T14:30:59</time>
      </trkpt>
      <trkpt lat="45.15026" lon="5.63729">
        <ele>1844.2</ele>
        <time>2025-02-18T14:31:01</time>
      </trkpt>
      <trkpt lat="45.15024" lon="5.63725">
        <ele>1844.2667</ele>
        <time>2025-02-18T14:31:06</time>
      </trkpt>
      <trkpt lat="45.15023" lon="5.63724">
        <ele>1844.2667</ele>
        <time>2025-02-18T14:31:07</time>
      </trkpt>
      <trkpt lat="45.15023" lon="5.63724">
        <ele>1844.2667</ele>
        <time>2025-02-18T14:31:08</time>
      </trkpt>
      <trkpt lat="45.15023" lon="5.63722">
        <ele>1841.7</ele>
        <time>2025-02-18T14:31:12</time>
      </trkpt>
      <trkpt lat="45.15023" lon="5.63722">
        <ele>1841.7</ele>
        <time>2025-02-18T14:31:12</time>
      </trkpt>
      <trkpt lat="45.15023" lon="5.63722">
        <ele>1841.7</ele>
        <time>2025-02-18T14:31:13</time>
      </trkpt>
      <trkpt lat="45.15023" lon="5.63722">
        <ele>1841.7</ele>
        <time>2025-02-18T14:31:15</time>
      </trkpt>
      <trkpt lat="45.15023" lon="5.63722">
        <ele>1841.7</ele>
        <time>2025-02-18T14:31:16</time>
      </trkpt>
      <trkpt lat="45.15023" lon="5.63722">
        <ele>1841.7</ele>
        <time>2025-02-18T14:31:16</time>
      </trkpt>
      <trkpt lat="45.15023" lon="5.63722">
        <ele>1841.7</ele>
        <time>2025-02-18T14:31:17</time>
      </trkpt>
      <trkpt lat="45.15022" lon="5.63723">
        <ele>1841.7</ele>
        <time>2025-02-18T14:31:18</time>
      </trkpt>
      <trkpt lat="45.15021" lon="5.63724">
        <ele>1841.4</ele>
        <time>2025-02-18T14:31:19</time>
      </trkpt>
      <trkpt lat="45.1502" lon="5.63725">
        <ele>1841.4</ele>
        <time>2025-02-18T14:31:20</time>
      </trkpt>
      <trkpt lat="45.1502" lon="5.63725">
        <ele>1841.4</ele>
        <time>2025-02-18T14:31:21</time>
      </trkpt>
      <trkpt lat="45.1502" lon="5.63725">
        <ele>1841.4</ele>
        <time>2025-02-18T14:31:22</time>
      </trkpt>
      <trkpt lat="45.1502" lon="5.63724">
        <ele>1841.4</ele>
        <time>2025-02-18T14:31:24</time>
      </trkpt>
      <trkpt lat="45.1502" lon="5.63724">
        <ele>1841.4</ele>
        <time>2025-02-18T14:31:26</time>
      </trkpt>
      <trkpt lat="45.15019" lon="5.63721">
        <ele>1841.3</ele>
        <time>2025-02-18T14:31:35</time>
      </trkpt>
      <trkpt lat="45.15019" lon="5.63721">
        <ele>1841.3</ele>
        <time>2025-02-18T14:31:36</time>
      </trkpt>
      <trkpt lat="45.1502" lon="5.63722">
        <ele>1843.7</ele>
        <time>2025-02-18T14:31:38</time>
      </trkpt>
      <trkpt lat="45.15023" lon="5.63726">
        <ele>1843.7</ele>
        <time>2025-02-18T14:31:40</time>
      </trkpt>
      <trkpt lat="45.1503" lon="5.63728">
        <ele>1844.8334</ele>
        <time>2025-02-18T14:31:46</time>
      </trkpt>
      <trkpt lat="45.15031" lon="5.63728">
        <ele>1844.8334</ele>
        <time>2025-02-18T14:31:47</time>
      </trkpt>
      <trkpt lat="45.15032" lon="5.63728">
        <ele>1844.8334</ele>
        <time>2025-02-18T14:31:48</time>
      </trkpt>
      <trkpt lat="45.15032" lon="5.63727">
        <ele>1844.8334</ele>
        <time>2025-02-18T14:31:48</time>
      </trkpt>
      <trkpt lat="45.15033" lon="5.63726">
        <ele>1844.8334</ele>
        <time>2025-02-18T14:31:49</time>
      </trkpt>
      <trkpt lat="45.15033" lon="5.63724">
        <ele>1844.8334</ele>
        <time>2025-02-18T14:31:50</time>
      </trkpt>
      <trkpt lat="45.15033" lon="5.63722">
        <ele>1845.1</ele>
        <time>2025-02-18T14:31:52</time>
      </trkpt>
      <trkpt lat="45.15033" lon="5.63721">
        <ele>1845.1</ele>
        <time>2025-02-18T14:31:54</time>
      </trkpt>
      <trkpt lat="45.15034" lon="5.63722">
        <ele>1845.1</ele>
        <time>2025-02-18T14:31:55</time>
      </trkpt>
      <trkpt lat="45.15034" lon="5.63722">
        <ele>1845.1</ele>
        <time>2025-02-18T14:31:56</time>
      </trkpt>
      <trkpt lat="45.15034" lon="5.63723">
        <ele>1845.1</ele>
        <time>2025-02-18T14:31:57</time>
      </trkpt>
      <trkpt lat="45.15034" lon="5.63723">
        <ele>1845.1</ele>
        <time>2025-02-18T14:31:58</time>
      </trkpt>
      <trkpt lat="45.15034" lon="5.63723">
        <ele>1845.1</ele>
        <time>2025-02-18T14:31:59</time>
      </trkpt>
      <trkpt lat="45.15035" lon="5.63723">
        <ele>1845.1</ele>
        <time>2025-02-18T14:31:59</time>
      </trkpt>
      <trkpt lat="45.15035" lon="5.63723">
        <ele>1845.2</ele>
        <time>2025-02-18T14:32:00</time>
      </trkpt>
      <trkpt lat="45.15035" lon="5.63723">
        <ele>1845.2</ele>
        <time>2025-02-18T14:32:02</time>
      </trkpt>
    </trkseg>
  </trk>
</gpx>